[[{"header":{"parameterUnit":"m.s-1","parameterCategory":1,"la1":30.6,"la2":28.766,"lo1":-90.7593,"lo2":-88.6598,"dy":0.0162,"dx":0.0183,"nx":116,"ny":114,"refTime":"2024-03-27T06:00:00:Z","depth":0,"parameterNumber":2,"parameterNumberName":"U-component_of_WINDS"},"data":[0.0,0.0,0.0,0.0,0.0,0.0,0.0,0.0,0.0,0.0,0.0,0.0,0.0,0.0,0.0,0.0,0.0,0.0,0.0,0.0,0.0,0.0,0.0,0.0,0.0,0.0,0.0,0.0,0.0,0.0,0.0,0.0,0.0,0.0,0.0,0.0,0.0,0.0,0.0,0.0,0.0,0.0,0.0,0.0,0.0,0.0,0.0,0.0,0.0,0.0,0.0,0.0,0.0,0.0,0.0,0.0,0.0,0.0,0.0,0.0,0.0,0.0,0.0,0.0,0.0,0.0,0.0,0.0,0.0,0.0,0.0,0.0,0.0,0.0,0.0,0.0,0.0,0.0,0.0,0.0,0.0,0.0,0.0,0.0,0.0,0.0,0.0,0.0,0.0,0.0,0.0,0.0,0.0,0.0,0.0,0.0,0.0,0.0,0.0,0.0,0.0,0.0,0.0,0.0,0.0,0.0,0.0,0.0,0.0,0.0,0.0,0.0,0.0,0.0,0.0,0.0,0.0,0.0,0.0,0.0,0.0,0.0,0.0,0.0,0.0,0.0,0.0,0.0,0.0,0.0,0.0,0.0,0.0,0.0,0.0,0.0,0.0,0.0,0.0,0.0,0.0,0.0,0.0,0.0,0.0,0.0,0.0,0.0,0.0,0.0,0.0,0.0,0.0,0.0,0.0,0.0,0.0,0.0,0.0,0.0,0.0,0.0,0.0,0.0,0.0,0.0,0.0,0.0,0.0,0.0,0.0,0.0,0.0,0.0,0.0,0.0,0.0,0.0,0.0,0.0,0.0,0.0,0.0,0.0,0.0,0.0,0.0,0.0,0.0,0.0,0.0,0.0,0.0,0.0,0.0,0.0,0.0,0.0,0.0,0.0,0.0,0.0,0.0,0.0,0.0,0.0,0.0,0.0,0.0,0.0,0.0,0.0,0.0,0.0,0.0,0.0,0.0,0.0,0.0,0.0,0.0,0.0,0.0,0.0,0.0,0.0,0.0,0.0,0.0,0.0,0.0,0.0,0.0,0.0,0.0,0.0,0.0,0.0,0.0,0.0,0.0,0.0,0.0,0.0,0.0,0.0,0.0,0.0,0.0,0.0,0.0,0.0,0.0,0.0,0.0,0.0,0.0,0.0,0.0,0.0,0.0,0.0,0.0,0.0,0.0,0.0,0.0,0.0,0.0,0.0,0.0,0.0,0.0,0.0,0.0,0.0,0.0,0.0,0.0,0.0,0.0,0.0,0.0,0.0,0.0,0.0,0.0,0.0,0.0,0.0,0.0,0.0,0.0,0.0,0.0,0.0,0.0,0.0,0.0,0.0,0.0,0.0,0.0,0.0,0.0,0.0,0.0,0.0,0.0,0.0,0.0,0.0,0.0,0.0,0.0,0.0,0.0,0.0,0.0,0.0,0.0,0.0,0.0,0.0,0.0,0.0,0.0,0.0,0.0,0.0,0.0,0.0,0.0,0.0,0.0,0.0,0.0,0.0,0.0,0.0,0.0,0.0,0.0,0.0,0.0,0.0,0.0,0.0,0.0,0.0,0.0,0.0,0.0,0.0,0.0,0.0,0.0,0.0,0.0,0.0,0.0,0.0,0.0,0.0,0.0,0.0,0.0,0.0,0.0,0.0,0.0,0.0,0.0,0.0,0.0,0.0,0.0,0.0,0.0,0.0,0.0,0.0,0.0,0.0,0.0,0.0,0.0,0.0,0.0,0.0,0.0,0.0,0.0,0.0,0.0,0.0,0.0,0.0,0.0,0.0,0.0,0.0,0.0,0.0,0.0,0.0,0.0,0.0,0.0,0.0,0.0,0.0,0.0,0.0,0.0,0.0,0.0,0.0,0.0,0.0,0.0,0.0,0.0,0.0,0.0,0.0,0.0,0.0,0.0,0.0,0.0,0.0,0.0,0.0,0.0,0.0,0.0,0.0,0.0,0.0,0.0,0.0,0.0,0.0,0.0,0.0,0.0,0.0,0.0,0.0,0.0,0.0,0.0,0.0,0.0,0.0,0.0,0.0,0.0,0.0,0.0,0.0,0.0,0.0,0.0,0.0,0.0,0.0,0.0,0.0,0.0,0.0,0.0,0.0,0.0,0.0,0.0,0.0,0.0,0.0,0.0,0.0,0.0,0.0,0.0,0.0,0.0,0.0,0.0,0.0,0.0,0.0,0.0,0.0,0.0,0.0,0.0,0.0,0.0,0.0,0.0,0.0,0.0,0.0,0.0,0.0,0.0,0.0,0.0,0.0,0.0,0.0,0.0,0.0,0.0,0.0,0.0,0.0,0.0,0.0,0.0,0.0,0.0,0.0,0.0,0.0,0.0,0.0,0.0,0.0,0.0,0.0,0.0,0.0,0.0,0.0,0.0,0.0,0.0,0.0,0.0,0.0,0.0,0.0,0.0,0.0,0.0,0.0,0.0,0.0,0.0,0.0,0.0,0.0,0.0,0.0,0.0,0.0,0.0,0.0,0.0,0.0,0.0,0.0,0.0,0.0,0.0,0.0,0.0,0.0,0.0,0.0,0.0,0.0,0.0,0.0,0.0,0.0,0.0,0.0,0.0,0.0,0.0,0.0,0.0,0.0,0.0,0.0,0.0,0.0,0.0,0.0,0.0,0.0,0.0,0.0,0.0,0.0,0.0,0.0,0.0,0.0,0.0,0.0,0.0,0.0,0.0,0.0,0.0,0.0,0.0,0.0,0.0,0.0,0.0,0.0,0.0,0.0,0.0,0.0,0.0,0.0,0.0,0.0,0.0,0.0,0.0,0.0,0.0,0.0,0.0,0.0,0.0,0.0,0.0,0.0,0.0,0.0,0.0,0.0,0.0,0.0,0.0,0.0,0.0,0.0,0.0,0.0,0.0,0.0,0.0,0.0,0.0,0.0,0.0,0.0,0.0,0.0,0.0,0.0,0.0,0.0,0.0,0.0,0.0,0.0,0.0,0.0,0.0,0.0,0.0,0.0,0.0,0.0,0.0,0.0,0.0,0.0,0.0,0.0,0.0,0.0,0.0,0.0,0.0,0.0,0.0,0.0,0.0,0.0,0.0,0.0,0.0,0.0,0.0,0.0,0.0,0.0,0.0,0.0,0.0,0.0,0.0,0.0,0.0,0.0,0.0,0.0,0.0,0.0,0.0,0.0,0.0,0.0,0.0,0.0,0.0,0.0,0.0,0.0,0.0,0.0,0.0,0.0,0.0,0.0,0.0,0.0,0.0,0.0,0.0,0.0,0.0,0.0,0.0,0.0,0.0,0.0,0.0,0.0,0.0,0.0,0.0,0.0,0.0,0.0,0.0,0.0,0.0,0.0,0.0,0.0,0.0,0.0,0.0,0.0,0.0,0.0,0.0,0.0,0.0,0.0,0.0,0.0,0.0,0.0,0.0,0.0,0.0,0.0,0.0,0.0,0.0,0.0,0.0,0.0,0.0,0.0,0.0,0.0,0.0,0.0,0.0,0.0,0.0,0.0,0.0,0.0,0.0,0.0,0.0,0.0,0.0,0.0,0.0,0.0,0.0,0.0,0.0,0.0,0.0,0.0,0.0,0.0,0.0,0.0,0.0,0.0,0.0,0.0,0.0,0.0,0.0,0.0,0.0,0.0,0.0,0.0,0.0,0.0,0.0,0.0,0.0,0.0,0.0,0.0,0.0,0.0,0.0,0.0,0.0,0.0,0.0,0.0,0.0,0.0,0.0,0.0,0.0,0.0,0.0,0.0,0.0,0.0,0.0,0.0,0.0,0.0,0.0,0.0,0.0,0.0,0.0,0.0,0.0,0.0,0.0,0.0,0.0,0.0,0.0,0.0,0.0,0.0,0.0,0.0,0.0,0.0,0.0,0.0,0.0,0.0,0.0,0.0,0.0,0.0,0.0,0.0,0.0,0.0,0.0,0.0,0.0,0.0,0.0,0.0,0.0,0.0,0.0,0.0,0.0,0.0,0.0,0.0,0.0,0.0,0.0,0.0,0.0,0.0,0.0,0.0,0.0,0.0,0.0,0.0,0.0,0.0,0.0,0.0,0.0,0.0,0.0,0.0,0.0,0.0,0.0,0.0,0.0,0.0,0.0,0.0,0.0,0.0,0.0,0.0,0.0,0.0,0.0,0.0,0.0,0.0,0.0,0.0,0.0,0.0,0.0,0.0,0.0,0.0,0.0,0.0,0.0,0.0,0.0,0.0,0.0,0.0,0.0,0.0,0.0,0.0,0.0,0.0,0.0,0.0,0.0,0.0,0.0,0.0,0.0,0.0,0.0,0.0,0.0,0.0,0.0,0.0,0.0,0.0,0.0,0.0,0.0,0.0,0.0,0.0,0.0,0.0,0.0,0.0,0.0,0.0,0.0,0.0,0.0,0.0,0.0,0.0,0.0,0.0,0.0,0.0,0.0,0.0,0.0,0.0,0.0,0.0,0.0,0.0,0.0,0.0,0.0,0.0,0.0,0.0,0.0,0.0,0.0,0.0,0.0,0.0,0.0,0.0,0.0,0.0,0.0,0.0,0.0,0.0,0.0,0.0,0.0,0.0,0.0,0.0,0.0,0.0,0.0,0.0,0.0,0.0,0.0,0.0,0.0,0.0,0.0,0.0,0.0,0.0,0.0,0.0,0.0,0.0,0.0,0.0,0.0,0.0,0.0,0.0,0.0,0.0,0.0,0.0,0.0,0.0,0.0,0.0,0.0,0.0,0.0,0.0,0.0,0.0,0.0,0.0,0.0,0.0,0.0,0.0,0.0,0.0,0.0,0.0,0.0,0.0,0.0,0.0,0.0,0.0,0.0,0.0,0.0,0.0,0.0,0.0,0.0,0.0,0.0,0.0,0.0,0.0,0.0,0.0,0.0,0.0,0.0,0.0,0.0,0.0,0.0,0.0,0.0,0.0,0.0,0.0,0.0,0.0,0.0,0.0,0.0,0.0,0.0,0.0,0.0,0.0,0.0,0.0,0.0,0.0,0.0,0.0,0.0,0.0,0.0,0.0,0.0,0.0,0.0,0.0,0.0,0.0,0.0,0.0,0.0,0.0,0.0,0.0,0.0,0.0,0.0,0.0,0.0,0.0,0.0,0.0,0.0,0.0,0.0,0.0,0.0,0.0,0.0,0.0,0.0,0.0,0.0,0.0,0.0,0.0,0.0,0.0,0.0,0.0,0.0,0.0,0.0,0.0,0.0,0.0,0.0,0.0,0.0,0.0,0.0,0.0,0.0,0.0,0.0,0.0,0.0,0.0,0.0,0.0,0.0,0.0,0.0,0.0,0.0,0.0,0.0,0.0,0.0,0.0,0.0,0.0,0.0,0.0,0.0,0.0,0.0,0.0,0.0,0.0,0.0,0.0,0.0,0.0,0.0,0.0,0.0,0.0,0.0,0.0,0.0,0.0,0.0,0.0,0.0,0.0,0.0,0.0,0.0,0.0,0.0,0.0,0.0,0.0,0.0,0.0,0.0,0.0,0.0,0.0,0.0,0.0,0.0,0.0,0.0,0.0,0.0,0.0,0.0,0.0,0.0,0.0,0.0,0.0,0.0,0.0,0.0,0.0,0.0,0.0,0.0,0.0,0.0,0.0,0.0,0.0,0.0,0.0,0.0,0.0,0.0,0.0,0.0,0.0,0.0,0.0,0.0,0.0,0.0,0.0,0.0,0.0,0.0,0.0,0.0,0.0,0.0,0.0,0.0,0.0,0.0,0.0,0.0,0.0,0.0,0.0,0.0,0.0,0.0,0.0,0.0,0.0,0.0,0.0,0.0,0.0,0.0,0.0,0.0,0.0,0.0,0.0,0.0,0.0,0.0,0.0,0.0,0.0,0.0,0.0,0.0,0.0,0.0,0.0,0.0,0.0,0.0,0.0,0.0,0.0,0.0,0.0,0.0,0.0,0.0,0.0,0.0,0.0,0.0,0.0,0.0,0.0,0.0,0.0,0.0,0.0,0.0,0.0,0.0,0.0,0.0,0.0,0.0,0.0,0.0,0.0,0.0,0.0,0.0,0.0,0.0,0.0,0.0,0.0,0.0,0.0,0.0,0.0,0.0,0.0,0.0,0.0,0.0,0.0,0.0,0.0,0.0,0.0,0.0,0.0,0.0,0.0,0.0,0.0,0.0,0.0,-4.9733,0.0,0.0,0.0,0.0,0.0,0.0,0.0,0.0,0.0,0.0,0.0,0.0,0.0,0.0,0.0,0.0,0.0,0.0,0.0,0.0,0.0,0.0,0.0,0.0,-4.5594,-4.5594,-4.5594,-4.5594,-4.5594,-4.5594,-4.5594,0.0,0.0,0.0,0.0,-4.5559,-4.5532,-4.5485,-4.5485,-4.5457,-4.5458,-4.5409,-4.538,-4.538,-4.5409,0.0,0.0,0.0,0.0,0.0,0.0,0.0,0.0,0.0,0.0,0.0,0.0,0.0,0.0,0.0,0.0,0.0,0.0,0.0,0.0,0.0,0.0,0.0,0.0,0.0,0.0,0.0,0.0,0.0,0.0,0.0,0.0,0.0,0.0,0.0,0.0,0.0,0.0,0.0,0.0,0.0,0.0,0.0,0.0,0.0,0.0,0.0,0.0,0.0,0.0,0.0,0.0,0.0,0.0,0.0,0.0,0.0,0.0,0.0,0.0,0.0,0.0,0.0,0.0,0.0,0.0,0.0,0.0,0.0,0.0,0.0,-5.0984,0.0,0.0,0.0,0.0,0.0,0.0,0.0,0.0,0.0,0.0,0.0,0.0,0.0,0.0,0.0,0.0,0.0,0.0,0.0,0.0,0.0,-4.5594,-4.5594,-4.5594,-4.5594,-4.5594,-4.5594,-4.5594,-4.5594,-4.5594,-4.5594,-4.5594,-4.555,-4.5532,-4.5532,-4.5523,-4.5475,-4.5466,-4.5419,-4.539,-4.5337,-4.5337,-4.5357,-4.5388,-4.5309,0.0,0.0,0.0,0.0,0.0,0.0,0.0,0.0,0.0,0.0,0.0,0.0,0.0,0.0,0.0,0.0,0.0,0.0,0.0,0.0,0.0,0.0,0.0,0.0,0.0,0.0,0.0,0.0,0.0,0.0,0.0,0.0,0.0,0.0,0.0,0.0,0.0,0.0,0.0,0.0,0.0,0.0,0.0,0.0,0.0,0.0,0.0,0.0,0.0,0.0,0.0,0.0,0.0,0.0,0.0,0.0,0.0,0.0,0.0,0.0,0.0,0.0,0.0,-5.0313,-5.0705,-5.1408,-5.1412,-5.1414,-5.1414,-5.1414,-5.1414,-5.1414,0.0,0.0,0.0,0.0,0.0,0.0,0.0,0.0,0.0,0.0,0.0,0.0,0.0,0.0,0.0,0.0,0.0,0.0,0.0,0.0,-4.5594,-4.5594,-4.5594,-4.5594,-4.5594,-4.5594,-4.5594,-4.5594,-4.5594,-4.5594,-4.5594,-4.5586,-4.5586,-4.5586,-4.5541,-4.5457,-4.5419,-4.54,-4.5408,-4.5398,-4.5398,-4.5367,-4.5298,-4.5288,-4.5288,-4.5288,0.0,0.0,0.0,0.0,0.0,0.0,0.0,0.0,0.0,0.0,0.0,0.0,0.0,0.0,0.0,0.0,0.0,0.0,0.0,0.0,0.0,0.0,0.0,0.0,0.0,0.0,0.0,0.0,0.0,0.0,0.0,0.0,0.0,0.0,0.0,0.0,0.0,0.0,0.0,0.0,0.0,-4.6165,-4.6215,0.0,0.0,0.0,0.0,0.0,0.0,0.0,0.0,0.0,0.0,0.0,0.0,0.0,0.0,-4.9934,-4.9919,-5.0342,-5.1128,-5.1219,-5.1302,-5.138,-5.1406,-5.1414,-5.1414,-5.1414,0.0,-5.1414,-5.1414,0.0,0.0,0.0,0.0,0.0,0.0,0.0,0.0,0.0,0.0,0.0,0.0,0.0,0.0,0.0,0.0,0.0,0.0,0.0,0.0,0.0,-4.5568,-4.5559,-4.5594,-4.5568,-4.5568,-4.5594,-4.5594,-4.5594,-4.5594,-4.5568,-4.5541,-4.5475,-4.5448,-4.541,-4.54,-4.5418,-4.5388,-4.5357,-4.5357,-4.5347,-4.5288,-4.5288,-4.5288,-4.5288,-4.5288,0.0,0.0,0.0,0.0,0.0,0.0,0.0,0.0,0.0,0.0,0.0,0.0,0.0,0.0,0.0,0.0,0.0,0.0,0.0,0.0,0.0,0.0,0.0,0.0,0.0,0.0,0.0,0.0,0.0,0.0,0.0,0.0,0.0,0.0,0.0,0.0,0.0,0.0,0.0,-4.606,-4.6219,-4.6219,-4.6187,-4.619,0.0,0.0,0.0,0.0,0.0,0.0,0.0,0.0,0.0,-4.9517,-4.9994,-5.0433,-5.0829,-5.0831,-5.0993,-5.1352,-5.1396,-5.1399,-5.1399,-5.141,-5.1414,-5.1414,-5.1414,-5.1414,-5.1414,-5.1414,-5.1414,-5.1414,0.0,0.0,0.0,0.0,0.0,-5.1414,0.0,0.0,0.0,0.0,0.0,0.0,0.0,0.0,0.0,0.0,0.0,0.0,-4.5577,-4.5541,-4.5541,-4.5586,-4.5559,-4.555,-4.5594,-4.5594,-4.5594,-4.5594,-4.555,-4.5466,-4.5429,-4.54,-4.5409,-4.5408,-4.5388,-4.5367,-4.5288,-4.5288,-4.5288,-4.5288,-4.5288,-4.5288,-4.5288,-4.5288,-4.5288,-4.5288,0.0,0.0,0.0,0.0,0.0,0.0,0.0,0.0,0.0,0.0,0.0,0.0,0.0,0.0,0.0,0.0,0.0,0.0,0.0,0.0,0.0,0.0,0.0,0.0,0.0,0.0,0.0,0.0,0.0,0.0,0.0,0.0,0.0,0.0,0.0,0.0,0.0,-4.6126,-4.6219,-4.6219,-4.6219,-4.6297,0.0,0.0,0.0,0.0,0.0,0.0,-4.9081,-4.9913,-5.042,-5.0407,-5.1236,-5.1713,-5.1713,-5.1921,-5.2049,-5.2057,-5.2023,-5.2025,-5.203,-5.2071,-5.2073,-5.2078,-5.2078,-5.2078,-5.2038,-5.157,-5.1414,-5.1414,-5.1414,-5.1414,-5.1414,-5.1414,-5.1414,-5.1414,0.0,0.0,0.0,0.0,0.0,0.0,0.0,0.0,0.0,0.0,0.0,-4.5523,-4.5523,-4.5485,-4.5541,-4.5586,-4.5594,-4.5594,-4.5594,-4.5594,-4.5594,-4.5594,-4.555,-4.5523,-4.5514,-4.5419,-4.5408,-4.5408,-4.5357,-4.5288,-4.5288,-4.5288,-4.5288,-4.5288,-4.5288,-4.5288,-4.5288,-4.5288,-4.5288,-4.5288,-4.5288,0.0,0.0,0.0,0.0,0.0,0.0,0.0,0.0,0.0,0.0,0.0,0.0,0.0,0.0,0.0,0.0,0.0,0.0,0.0,0.0,0.0,0.0,0.0,0.0,0.0,0.0,0.0,0.0,0.0,0.0,0.0,0.0,0.0,0.0,0.0,0.0,0.0,0.0,-4.6219,-4.6219,0.0,0.0,0.0,0.0,-4.8656,-4.9422,-4.9878,-4.9956,-5.0778,-5.1242,-5.1242,-5.2099,-5.2528,-5.2528,-5.335,-5.3779,-5.3779,-5.3763,-5.378,-5.3796,-5.385,-5.3862,-5.3873,-5.3873,-5.3873,-5.3756,-5.2078,-5.1414,-5.1414,-5.1414,-5.1414,-5.1414,-5.1414,-5.1414,-5.1414,0.0,0.0,0.0,0.0,0.0,-4.5586,-4.555,-4.555,-4.5532,-4.5438,-4.5457,-4.5485,-4.5485,-4.5485,-4.5541,-4.5586,-4.5532,-4.5475,-4.5541,-4.5514,-4.5457,-4.5457,-4.5438,-4.5458,-4.5419,-4.535,-4.5347,-4.5347,-4.5823,-4.608,-4.608,-4.6653,-4.692,-4.6882,-4.6309,-4.608,-4.6042,-4.5507,-4.5288,-4.5288,-4.5288,-4.5288,0.0,0.0,0.0,0.0,0.0,0.0,0.0,0.0,0.0,0.0,0.0,0.0,0.0,0.0,0.0,0.0,0.0,0.0,0.0,0.0,0.0,0.0,0.0,0.0,0.0,0.0,0.0,0.0,0.0,0.0,0.0,0.0,0.0,0.0,0.0,0.0,0.0,-4.6219,-4.6686,0.0,-4.7473,-4.8011,-4.8674,-4.9499,-4.9843,-5.0502,-5.1593,-5.1982,-5.2372,-5.2957,-5.328,-5.3444,-5.3444,-5.3728,-5.3933,-5.3946,-5.3952,-5.3964,-5.3977,-5.3982,-5.3986,-5.399,-5.399,-5.399,-5.3951,-5.3327,-5.3053,-5.3053,-5.3053,-5.3053,-5.3053,-5.3053,-5.3053,-5.2975,0.0,0.0,0.0,0.0,-4.5568,-4.555,-4.5466,-4.5505,-4.5495,-4.5429,-4.5429,-4.5457,-4.5457,-4.5475,-4.5532,-4.5568,-4.5505,-4.5438,-4.5457,-4.5419,-4.54,-4.54,-4.539,-4.5505,-4.576,-4.5719,-4.5851,-4.6156,-4.6691,-4.6959,-4.6959,-4.7521,-4.7788,-4.775,-4.7177,-4.6959,-4.6882,-4.6042,-4.5545,-4.5288,-4.5288,-4.5288,-4.5288,0.0,0.0,0.0,0.0,0.0,0.0,0.0,0.0,0.0,0.0,0.0,0.0,0.0,0.0,0.0,0.0,0.0,0.0,0.0,0.0,0.0,0.0,0.0,0.0,0.0,0.0,0.0,0.0,0.0,0.0,0.0,0.0,0.0,0.0,0.0,-4.6647,-4.6647,-4.7423,-4.8047,-4.8319,-4.8865,-4.9683,-5.0774,-5.0891,-5.1515,-5.2957,-5.3034,-5.3307,-5.3888,-5.4177,-5.4496,-5.4769,-5.5053,-5.534,-5.5701,-5.5708,-5.572,-5.5733,-5.5738,-5.5704,-5.5708,-5.5708,-5.5708,-5.5708,-5.5708,-5.5708,-5.563,-5.4459,-5.399,-5.399,-5.399,-5.399,-5.3912,0.0,0.0,0.0,-4.5514,-4.5514,-4.5466,-4.541,-4.5448,-4.5477,-4.5418,-4.5409,-4.54,-4.54,-4.5448,-4.5514,-4.5514,-4.5514,-4.5457,-4.541,-4.54,-4.54,-4.54,-4.5428,-4.576,-4.65,-4.6538,-4.6959,-4.7788,-4.7826,-4.7826,-4.7826,-4.7865,-4.7865,-4.7865,-4.7865,-4.7826,-4.7788,-4.692,-4.608,-4.5326,-4.5326,-4.5288,-4.5288,0.0,0.0,0.0,0.0,0.0,0.0,0.0,0.0,0.0,0.0,0.0,0.0,0.0,0.0,0.0,0.0,0.0,0.0,0.0,0.0,0.0,0.0,0.0,0.0,0.0,0.0,0.0,0.0,0.0,0.0,0.0,0.0,0.0,-4.6302,-4.6991,-4.7536,-4.7536,-4.8319,-4.9138,-4.9956,-5.0073,-5.0774,-5.2528,-5.2645,-5.3034,-5.3888,-5.397,-5.4009,-5.4009,-5.4862,-5.5723,-5.6585,-5.7364,-5.8144,-5.9001,-5.8983,-5.9042,-5.9098,-5.9114,-5.909,-5.9102,-5.9102,-5.9102,-5.9102,-5.9102,-5.9102,-5.8751,-5.5435,-5.4108,-5.4108,-5.4108,-5.4068,-5.4029,0.0,0.0,-4.5429,-4.5429,-4.5429,-4.541,-4.54,-4.54,-4.539,-4.5357,-4.535,-4.539,-4.539,-4.5438,-4.5429,-4.5429,-4.5429,-4.54,-4.539,-4.535,-4.5329,-4.5329,-4.5882,-4.6282,-4.65,-4.7111,-4.7559,-4.7788,-4.8449,-4.8754,-4.8754,-4.9328,-4.9595,-4.9595,-4.8984,-4.8754,-4.8678,-4.7799,-4.6959,-4.6118,-4.5545,-4.5288,-4.5288,0.0,0.0,0.0,0.0,0.0,0.0,0.0,0.0,0.0,0.0,0.0,0.0,0.0,0.0,0.0,0.0,0.0,0.0,0.0,0.0,0.0,0.0,0.0,0.0,0.0,0.0,0.0,0.0,0.0,0.0,0.0,-4.683,-4.6936,-4.6784,-4.7617,-4.8209,-4.8209,-4.9097,-4.9995,-5.0852,-5.1515,-5.2333,-5.3463,-5.3541,-5.3927,-5.4784,-5.545,-5.6035,-5.6619,-5.7516,-5.8061,-5.8299,-5.8529,-5.8771,-5.8983,-5.8987,-5.9042,-5.9098,-5.9102,-5.9114,-5.909,-5.909,-5.9095,-5.9102,-5.9102,-5.9102,-5.8946,-5.7387,-5.6762,-5.6684,-5.6098,-5.5474,-5.4927,0.0,-4.5448,-4.5409,-4.5409,-4.5409,-4.539,-4.5378,-4.5388,-4.5388,-4.5288,-4.535,-4.539,-4.5408,-4.5429,-4.5419,-4.5419,-4.538,-4.5398,-4.5367,-4.5298,-4.543,-4.5774,-4.6233,-4.6844,-4.757,-4.8105,-4.8525,-4.8869,-4.9366,-4.9595,-4.9595,-5.0092,-5.0283,-5.0283,-4.9824,-4.9595,-4.9557,-4.8716,-4.8067,-4.7494,-4.6271,-4.5583,-4.5288,-4.5288,-4.5288,-4.5288,-4.5288,-4.5288,-4.5288,-4.5288,0.0,0.0,0.0,0.0,0.0,0.0,0.0,0.0,0.0,0.0,0.0,0.0,0.0,0.0,0.0,0.0,0.0,0.0,0.0,0.0,0.0,0.0,0.0,0.0,-4.7683,-4.7965,-4.7965,-4.8586,-4.9193,-4.9635,-5.0508,-5.1437,-5.2294,-5.284,-5.3502,-5.4394,-5.4788,-5.5372,-5.6191,-5.7087,-5.7754,-5.8217,-5.8724,-5.9191,-5.9542,-5.9542,-5.9746,-6.011,-6.0079,-6.0126,-6.0137,-6.0148,-6.0158,0.0,-6.0174,-6.018,-6.0188,-6.0195,-6.0195,0.0,0.0,0.0,0.0,0.0,-5.7348,-5.6879,0.0,-4.5696,-4.5666,-4.5666,-4.5589,-4.5492,-4.5441,-4.5406,-4.5378,-4.5326,-4.537,-4.5409,-4.5398,-4.5438,-4.5458,-4.5408,-4.5398,-4.5378,-4.5288,-4.5288,-4.566,-4.6462,-4.6577,-4.7417,-4.9071,-4.9186,-4.9595,-5.0283,-5.0397,-5.0436,-5.0436,-5.055,-5.055,-5.0436,-5.0436,-5.0397,-5.0245,-4.9519,-4.9186,-4.8957,-4.7417,-4.6233,-4.543,-4.5326,-4.5288,-4.5288,-4.5288,-4.5288,-4.5288,-4.5288,0.0,0.0,0.0,0.0,0.0,0.0,0.0,0.0,0.0,0.0,0.0,0.0,0.0,0.0,0.0,0.0,0.0,0.0,0.0,0.0,0.0,0.0,0.0,0.0,-4.8708,-4.9375,-4.9576,-4.9853,-5.0409,-5.1334,-5.2208,-5.3073,-5.3966,-5.4126,-5.4554,-5.5407,-5.6308,-5.7091,-5.7793,0.0,0.0,0.0,0.0,-5.9659,-6.0438,-6.0438,-6.0867,-6.1763,-6.1747,-6.1794,-6.1876,-6.1779,-6.1751,-6.1758,-6.1732,-6.1699,-6.1702,-6.1715,-6.1718,-6.1522,-5.9883,-5.918,-5.9102,-5.9102,-5.9102,0.0,0.0,-4.7357,-4.7352,-4.7352,-4.674,-4.6282,-4.6271,-4.5747,-4.5298,-4.5288,-4.5298,-4.5309,-4.5298,-4.5319,-4.5319,-4.5298,-4.5337,-4.5298,-4.5288,-4.5288,-4.566,-4.6462,-4.7177,-4.8028,-4.9071,-4.9748,-5.013,-5.0283,-5.1009,-5.1353,-5.1353,-5.2002,-5.1964,-5.1353,-5.1353,-5.0971,-5.0283,-5.013,-4.9671,-4.9071,-4.8727,-4.7646,-4.6194,-4.5545,-4.5288,-4.5288,-4.5288,-4.5288,-4.5288,-4.5288,-4.5288,-4.5288,-4.5288,-4.5288,0.0,0.0,0.0,0.0,0.0,0.0,0.0,0.0,0.0,0.0,0.0,0.0,0.0,0.0,0.0,0.0,0.0,0.0,0.0,-4.8884,-4.9071,-4.9726,-5.131,-5.161,-5.1791,-5.2158,-5.3064,-5.4004,-5.4862,-5.5567,-5.6351,-5.7165,-5.8022,-5.8568,-5.8724,-5.9581,0.0,-6.0049,-6.0711,-6.1179,-6.1334,-6.1334,-6.1802,-6.2659,0.0,0.0,-6.367,-6.2972,-6.268,-6.2672,-6.2011,-6.1705,-6.1715,-6.1718,-6.1718,-6.1601,-6.0549,-5.9729,-5.9102,-5.9102,-5.9102,-5.9102,0.0,-4.8384,-4.7788,-4.7788,-4.7444,-4.7139,-4.7139,-4.6424,-4.5889,-4.5889,-4.5576,-4.5357,-4.5288,-4.5347,-4.5357,-4.5288,-4.5288,-4.5288,-4.5288,-4.5288,-4.5851,-4.7101,-4.7559,-4.8411,-4.9671,-5.0092,-5.0283,-5.0283,-5.0741,-5.1162,-5.1608,-5.1544,-5.1582,-5.157,-5.1162,-5.0703,-5.0283,-5.0283,-5.0054,-4.9671,-4.9263,-4.8334,-4.7062,-4.6233,-4.566,-4.5288,-4.5288,-4.5288,-4.5288,-4.5288,-4.5288,-4.5288,-4.5288,-4.5288,-4.5288,0.0,0.0,0.0,0.0,0.0,0.0,0.0,0.0,0.0,0.0,0.0,0.0,0.0,0.0,-4.7302,-4.7723,0.0,-4.9209,-4.9712,-5.0155,-5.0804,-5.1817,-5.2743,-5.3375,-5.3483,-5.4012,-5.488,-5.6097,-5.6596,-5.7178,-5.7987,-5.8849,-5.9354,-5.9354,-6.0169,-6.0642,-6.0642,-6.1451,-6.1878,-6.1878,-6.2345,-6.2807,-6.3346,-6.3346,-6.3631,-6.4177,-6.3748,-6.3573,-6.3563,-6.314,-6.2951,-6.292,-6.2537,-6.211,-6.164,-6.1213,-6.0783,-6.039,-6.039,-6.039,-6.039,0.0,-4.9213,-4.8285,-4.8285,-4.8181,-4.8067,-4.8067,-4.7302,-4.6768,-4.6768,-4.6237,-4.5788,-4.5555,-4.5587,-4.5521,-4.5326,-4.5288,-4.5288,-4.5288,-4.5288,-4.5965,-4.7483,-4.7712,-4.8514,-5.0015,-5.0206,-5.0283,-5.0283,-5.0474,-5.0932,-5.157,-5.1047,-5.1085,-5.1582,-5.0856,-5.0474,-5.0283,-5.0283,-5.0283,-5.0245,-4.9404,-4.8563,-4.7712,-4.6844,-4.6003,-4.5288,-4.5288,-4.5288,-4.5288,-4.5288,-4.5288,-4.5288,-4.5288,-4.5288,-4.5288,-4.5288,-4.5288,0.0,0.0,0.0,0.0,0.0,0.0,0.0,0.0,-4.543,-4.5736,-4.6385,-4.7341,-4.8258,-4.8957,-4.9748,-5.0371,-5.057,-5.1239,-5.1872,-5.2221,-5.361,-5.4657,-5.4959,-5.5196,-5.5845,-5.7065,-5.7473,-5.7928,-5.8615,-5.9475,-5.9948,-5.9948,-6.076,-6.1234,-6.1234,-6.2037,-6.2462,-6.2462,-6.3149,-6.366,-6.4,-6.4,-6.4213,-6.4593,-6.4398,-6.434,-6.4367,-6.4189,-6.4119,-6.408,-6.3432,-6.2737,-6.207,-6.1914,-6.1875,-6.1843,-6.1749,-6.1718,-6.1718,0.0,-5.0168,-5.0015,-5.0015,-4.9442,-4.8945,-4.8945,-4.822,-4.7635,-4.7635,-4.757,-4.7226,-4.6462,-4.6385,-4.609,-4.5364,-4.5288,-4.5288,-4.5288,-4.5288,-4.5698,-4.6615,-4.7379,-4.8258,-4.9224,-4.9939,-5.0283,-5.0283,-5.1085,-5.1493,-5.1608,-5.2231,-5.2193,-5.1608,-5.1493,-5.1009,-5.0283,-5.0283,-5.0283,-5.0245,-4.9404,-4.8563,-4.7712,-4.6844,-4.6003,-4.5288,-4.5288,-4.5288,-4.5288,-4.5288,-4.5288,-4.5288,-4.5288,-4.5288,-4.5288,-4.5288,-4.5288,-4.5288,-4.5288,-4.5288,-4.5288,-4.5288,-4.5288,-4.5288,0.0,-4.5851,-4.6385,-4.65,-4.7799,-4.8995,-4.9071,-4.9748,-5.0581,-5.1478,-5.1628,-5.2185,-5.3776,-5.4262,-5.4902,-5.6205,-5.6693,-5.6996,-5.7164,-5.8556,-5.9475,-5.9552,-6.0374,-6.0838,-6.0838,-6.1611,-6.2075,-6.2075,-6.2917,-6.3342,-6.3342,-6.3458,-6.3893,-6.4696,-6.4696,-6.515,-6.5963,-6.5178,-6.487,-6.4952,-6.4168,-6.3857,-6.3857,-6.374,-6.3669,-6.3468,-6.2697,-6.2425,-6.2342,-6.1872,-6.1718,-6.1718,0.0,0.0,-5.0283,-5.0283,-5.0015,-4.9786,-4.9786,-4.9098,-4.8563,-4.8563,-4.8105,-4.7674,-4.7302,-4.6806,-4.6194,-4.5354,-4.5288,-4.5288,-4.5288,-4.5288,-4.566,-4.6462,-4.6844,-4.7685,-4.9071,-4.9442,-4.9824,-5.0283,-5.0665,-5.1123,-5.1608,-5.1429,-5.1429,-5.1582,-5.1085,-5.0627,-5.0283,-5.0283,-5.0015,-4.9557,-4.9263,-4.8258,-4.6986,-4.6653,-4.6003,-4.5288,-4.5288,-4.5288,0.0,-4.5288,-4.5288,-4.5288,-4.5288,-4.5288,-4.5288,-4.5288,-4.5288,-4.5288,-4.5288,-4.5288,-4.5288,-4.5288,-4.5288,-4.543,-4.5889,-4.6271,-4.6806,-4.7799,-4.8613,-4.9251,-4.971,-5.0474,-5.1185,0.0,-5.2444,-5.3338,-5.4085,-5.5028,-5.5923,-5.6524,-5.762,-5.8316,-5.8316,-5.8942,-5.9557,-6.0056,-6.0453,-6.0875,-6.1324,-6.167,-6.2093,-6.2592,-6.3438,-6.3899,-6.3899,-6.4347,-6.4859,-6.5323,-6.5323,-6.5589,-6.6146,-6.5816,-6.5721,-6.577,-6.5544,-6.5148,-6.4687,-6.4798,-6.4476,-6.3896,-6.3513,-6.3346,-6.3129,-6.1851,-6.1465,-6.1584,0.0,0.0,0.0,-5.0283,-5.0283,-5.0283,-5.0283,-4.9824,-4.9442,-4.9442,-4.8869,-4.8399,-4.8181,-4.7188,-4.6271,-4.566,-4.543,-4.5288,-4.5288,-4.5288,-4.5545,-4.6156,-4.6385,-4.7073,-4.8372,-4.8602,-4.9137,-4.9977,-4.9977,-5.0397,-5.1238,-5.0588,-5.0627,-5.12,-5.0588,-5.0168,-4.9977,-4.9977,-4.948,-4.8716,-4.8487,-4.7646,-4.65,-4.6233,-4.5812,-4.5288,-4.5288,-4.5288,-4.5288,-4.5288,-4.5288,-4.5288,-4.5288,-4.5288,-4.5288,-4.5288,-4.5288,-4.5288,-4.5288,-4.5288,-4.5288,-4.5288,-4.5468,-4.5774,-4.6385,-4.6882,-4.757,-4.8842,-4.9301,-4.9595,-5.0206,-5.1009,-5.1658,-5.1888,-5.3148,-5.418,-5.4409,-5.567,-5.6702,-5.6931,-5.823,-5.9185,-5.9453,-5.9453,-5.972,-6.0346,-6.0599,-6.0981,-6.1554,-6.2051,-6.2624,-6.3236,-6.4076,-6.4535,-6.4535,-6.5108,-6.5456,-6.5626,-6.5626,-6.573,-6.5936,-6.6049,-6.6119,-6.6156,-6.6338,-6.6061,-6.5524,-6.5694,-6.5283,-6.4578,-6.4381,-6.4195,-6.3906,-6.2454,-6.1875,-6.1796,0.0,0.0,0.0,0.0,-5.0283,-5.0283,-5.0283,-5.0283,-5.0245,-5.0245,-5.0245,-4.9939,-4.9137,-4.7532,-4.65,-4.6462,-4.5736,-4.5288,-4.5288,-4.5288,-4.5326,-4.5326,-4.608,-4.6538,-4.6577,-4.7406,-4.8258,-4.9148,-4.9148,-4.9557,-5.0359,-5.0321,-5.0321,-5.0359,-5.0321,-4.9862,-4.9148,-4.9148,-4.864,-4.775,-4.692,-4.6538,-4.6424,-4.5621,-4.5326,-4.5288,-4.5288,-4.5288,-4.5288,-4.5288,-4.5288,-4.5288,-4.5288,-4.5288,-4.5288,-4.5288,-4.5288,-4.5288,-4.5288,-4.5288,-4.5288,-4.5288,-4.5889,-4.6462,-4.65,-4.7799,-4.9033,-4.911,-4.971,-5.0283,-5.0283,-5.1009,-5.1849,-5.2652,-5.3531,-5.4409,-5.525,-5.6091,-5.6893,-5.7772,-5.8574,-5.9415,0.0,-6.0384,-6.037,-6.0422,-6.1134,-6.1554,-6.1593,-6.3197,-6.4129,-6.4167,-6.4955,-6.5375,-6.5375,-6.5375,-6.5413,-6.5429,-6.5429,-6.5435,-6.5537,-6.5715,-6.582,-6.582,-6.591,-6.6001,-6.6089,-6.6089,-6.6051,-6.5954,-6.5328,-6.4937,-6.4677,-6.3977,-6.3175,-6.2461,0.0,0.0,0.0,0.0,0.0,-5.0283,-5.0283,-5.0283,-5.0283,-5.0283,-5.0283,0.0,0.0,0.0,0.0,0.0,-4.6233,-4.5851,-4.5326,-4.5288,-4.5288,-4.5288,-4.5545,-4.5965,-4.65,-4.6806,-4.7379,-4.8258,-4.8258,-4.8372,-4.8629,-4.8629,-4.8629,-4.8629,-4.8629,-4.8487,-4.8258,-4.8258,-4.7723,-4.692,-4.6615,-4.6194,-4.566,-4.5392,-4.5288,-4.5288,0.0,-4.5288,-4.5288,-4.5288,-4.5288,-4.5288,-4.5288,-4.5288,-4.5288,-4.5288,-4.5288,-4.5288,-4.5288,-4.5698,-4.6118,-4.6118,-4.6729,-4.7532,-4.8105,-4.8678,-4.9263,-4.9786,-5.0588,-5.1162,-5.1162,-5.2308,-5.3339,-5.3607,-5.4409,-5.5059,-5.5365,-5.6587,-5.7581,-5.7886,-5.9109,0.0,0.0,0.0,0.0,-6.0422,-6.1134,-6.186,-6.2433,-6.3579,-6.4435,-6.4993,-6.5261,-6.5413,-6.5413,-6.5413,-6.5413,-6.5413,-6.5413,-6.5459,-6.5509,-6.5632,-6.5701,-6.5807,-6.5978,-6.6074,-6.6118,-6.6212,-6.6194,-6.6079,-6.5838,-6.5662,-6.5504,-6.5275,-6.464,-6.3843,0.0,0.0,0.0,0.0,0.0,0.0,0.0,0.0,0.0,0.0,0.0,0.0,0.0,0.0,0.0,0.0,0.0,-4.6271,-4.5774,-4.5468,-4.5288,-4.5288,-4.5288,-4.5545,-4.6042,-4.608,-4.65,-4.733,-4.733,-4.7483,-4.7788,-4.7788,-4.7788,-4.7788,-4.7788,-4.7635,-4.733,-4.733,-4.6844,-4.608,-4.608,-4.5774,-4.5288,-4.5288,-4.5288,0.0,-4.5288,-4.5288,-4.5288,-4.5288,-4.5288,-4.5288,-4.5288,-4.5288,-4.5288,-4.5288,-4.5288,-4.5354,-4.566,-4.6118,-4.6577,-4.6882,-4.7608,-4.8411,-4.8957,-4.9328,-4.9671,-5.0206,-5.1009,-5.1608,-5.1608,-5.2957,-5.4104,-5.4104,-5.483,-5.5403,-5.5403,-5.6855,-5.7886,-5.7886,-5.9376,-6.0422,0.0,0.0,0.0,-6.0422,-6.144,-6.2319,-6.2892,-6.4,-6.4879,-6.5375,-6.5413,-6.5413,-6.5413,-6.5413,-6.5413,-6.5413,-6.5413,-6.5405,-6.5465,-6.5537,-6.5608,-6.5728,-6.5931,-6.6014,-6.6118,-6.6212,-6.6185,-6.6118,-6.6148,-6.6088,-6.5967,-6.6019,-6.5705,-6.5129,0.0,0.0,0.0,0.0,0.0,0.0,0.0,0.0,0.0,0.0,0.0,0.0,0.0,0.0,0.0,0.0,0.0,0.0,-4.65,-4.5736,-4.5288,-4.5288,-4.5288,-4.5288,-4.5288,-4.5288,-4.566,-4.6424,-4.6424,-4.6882,-4.7674,-4.7674,-4.7674,-4.7674,-4.7674,-4.7226,-4.6424,-4.6424,-4.6003,-4.5288,-4.5288,-4.5288,-4.5288,-4.5288,-4.5288,-4.5288,-4.5288,-4.5288,-4.5288,-4.5288,-4.5288,-4.5288,-4.5288,-4.5288,-4.5288,-4.5288,-4.5326,-4.5507,-4.6309,-4.6577,-4.6844,-4.7674,-4.8525,-4.9148,-4.9148,-4.9748,-5.0283,-5.0283,-5.1009,-5.1608,-5.1646,0.0,-5.4104,-5.4142,-5.4868,-5.5403,-5.5403,-5.6855,-5.7886,0.0,0.0,0.0,0.0,0.0,0.0,-6.046,0.0,-6.293,-6.2968,-6.4496,-6.5413,-6.5413,-6.5413,-6.5413,-6.5413,-6.5413,-6.5413,-6.5413,-6.5413,-6.5413,-6.5413,-6.5465,-6.5537,-6.5594,-6.5753,-6.5895,-6.6088,-6.6088,-6.6088,-6.6108,-6.6217,-6.6183,-6.6118,-6.6226,-6.6283,-6.6126,0.0,0.0,0.0,0.0,0.0,0.0,0.0,0.0,0.0,0.0,0.0,0.0,0.0,0.0,0.0,0.0,0.0,0.0,-4.6538,-4.5736,-4.5288,-4.5288,-4.5288,-4.5288,-4.5288,-4.5288,-4.5392,-4.5621,-4.5621,-4.5736,-4.5927,-4.5927,-4.5927,-4.5927,-4.5927,-4.5812,-4.5621,-4.5621,-4.5468,-4.5288,-4.5288,-4.5288,-4.5288,-4.5288,-4.5288,-4.5288,-4.5288,-4.5288,-4.5288,-4.5288,-4.5288,-4.5288,-4.5288,-4.5288,-4.5288,-4.5288,-4.5736,-4.6233,-4.6462,-4.7455,-4.8487,-4.8716,-4.9404,-4.9977,-4.9977,-5.0168,-5.0283,-5.0283,-5.1009,-5.1773,-5.2384,-5.3378,0.0,-5.4982,-5.525,0.0,-5.5403,-5.6855,0.0,-5.7886,-5.9376,-6.0422,-6.0422,-6.0422,0.0,0.0,-6.228,-6.3197,-6.3809,-6.484,-6.5413,-6.5413,-6.5413,-6.5413,-6.5413,-6.5413,-6.5413,-6.5413,-6.5413,-6.5413,-6.5413,-6.5465,-6.5509,-6.5537,-6.5701,-6.5846,-6.5884,-6.5946,-6.5958,-6.597,-6.599,-6.5978,-6.597,-6.599,-6.6013,-6.5963,0.0,0.0,0.0,0.0,0.0,0.0,0.0,0.0,0.0,0.0,0.0,0.0,0.0,0.0,0.0,0.0,0.0,0.0,0.0,-4.6309,-4.566,-4.5326,-4.5288,-4.5288,-4.5288,-4.5288,-4.5288,-4.5288,-4.5288,-4.5288,-4.5288,-4.5288,-4.5288,-4.5288,-4.5288,-4.5288,-4.5288,-4.5288,-4.5288,0.0,0.0,-4.5288,-4.5288,-4.5288,-4.5288,-4.5288,-4.5288,-4.5288,-4.5288,-4.5288,-4.5288,-4.5288,-4.5288,-4.5288,-4.5288,-4.5288,-4.5851,-4.6577,-4.6959,-4.8067,-4.9186,-4.9519,-4.9977,-5.0283,-5.0283,-5.0283,-5.0283,-5.0283,-5.1009,-5.1735,-5.2193,-5.3263,-5.4256,0.0,0.0,0.0,-5.5403,-5.6855,-5.7886,0.0,-5.9376,0.0,-6.0422,-6.0422,-6.0867,0.0,-6.2624,-6.3274,-6.4167,-6.4955,-6.5413,-6.5413,-6.5413,-6.5413,-6.5413,-6.5413,-6.5413,-6.5413,-6.5413,-6.5413,-6.5413,-6.542,-6.5465,-6.5509,0.0,-6.5767,-6.5793,-6.5872,-6.5897,-6.5897,-6.5897,-6.5897,-6.5897,-6.5897,-6.5897,-6.5897,0.0,0.0,0.0,0.0,0.0,0.0,0.0,0.0,0.0,0.0,-5.0283,-5.0283,0.0,0.0,0.0,0.0,0.0,0.0,0.0,0.0,-4.6194,-4.5468,-4.5364,-4.5288,-4.5288,-4.5288,-4.5288,-4.5288,-4.5288,-4.5288,-4.5288,-4.5288,-4.5288,-4.5288,-4.5288,-4.5288,-4.5288,-4.5288,-4.5288,-4.5288,-4.5288,-4.5288,-4.5288,0.0,-4.5288,-4.5288,-4.5288,-4.5288,-4.5288,-4.5288,-4.5288,-4.5288,-4.5288,-4.5288,-4.5288,-4.5288,-4.5965,-4.6844,-4.7597,-4.8525,-4.9442,-5.013,-5.0283,-5.0283,-5.0283,-5.0283,-5.0283,-5.0283,-5.0894,-5.1455,-5.157,-5.2805,-5.3836,-5.4065,0.0,-5.5288,-5.5403,-5.6855,-5.7886,-5.7886,-5.9376,-6.0422,-6.0422,-6.0422,-6.1096,-6.2777,-6.2892,-6.335,-6.432,-6.5031,-6.5413,-6.5413,-6.5413,-6.5413,-6.5413,-6.5413,-6.5413,-6.5413,-6.5413,-6.5413,-6.5413,-6.5413,-6.542,-6.5494,0.0,0.0,-6.578,-6.5859,-6.5897,-6.5897,-6.5897,-6.5897,-6.5897,-6.5897,-6.5897,-6.5897,0.0,0.0,0.0,0.0,0.0,0.0,0.0,0.0,0.0,0.0,-5.0283,-5.0283,0.0,0.0,0.0,0.0,0.0,0.0,0.0,0.0,0.0,-4.6309,-4.566,-4.5288,-4.5288,-4.5288,-4.5288,-4.5288,-4.5288,-4.5288,-4.5288,-4.5288,-4.5288,-4.5288,-4.5288,-4.5288,-4.5288,-4.5288,-4.5288,-4.5288,-4.5288,-4.5288,-4.5288,-4.5288,0.0,0.0,-4.5288,-4.5288,-4.5288,-4.5288,-4.5288,-4.5288,-4.5288,-4.5288,-4.5288,-4.5288,-4.6385,-4.7597,-4.775,-4.8907,-5.013,-5.0283,-5.0283,-5.0283,-5.0283,-5.0283,-5.0283,-5.0283,-5.0436,-5.0741,-5.1455,-5.1837,-5.2499,-5.3874,-5.4218,-5.46,-5.5288,-5.6855,-5.7886,0.0,-5.9376,-6.0422,-6.0422,-6.0422,0.0,0.0,0.0,-6.3579,-6.5108,-6.5337,-6.5413,-6.5413,-6.5413,-6.5413,-6.5413,-6.5413,-6.5413,-6.5413,-6.5413,-6.5413,-6.5413,-6.5413,-6.5429,-6.5405,0.0,0.0,-6.5622,-6.578,-6.5846,-6.5897,-6.5897,-6.5897,-6.5897,-6.5897,-6.5897,-6.5897,0.0,0.0,0.0,0.0,0.0,0.0,0.0,-5.0283,-5.0283,-5.0283,-5.0283,-5.0283,-5.0283,-5.0283,-5.0283,0.0,0.0,0.0,0.0,0.0,0.0,0.0,0.0,0.0,-4.5326,-4.5288,-4.5288,-4.5288,0.0,-4.5288,-4.5288,-4.5288,-4.5288,-4.5288,-4.5288,-4.5288,-4.5288,-4.5288,-4.5288,-4.5288,-4.5288,-4.5288,-4.5288,0.0,0.0,0.0,-4.5288,-4.5288,-4.5288,-4.5288,-4.5288,-4.5288,-4.5288,-4.5288,-4.5288,-4.5288,-4.65,-4.7788,-4.7788,-4.9022,-5.0283,-5.0283,-5.0283,-5.0283,-5.0283,-5.0283,-5.0283,-5.0283,-5.0283,-5.0436,-5.0856,-5.1314,-5.2002,-5.3225,-5.3798,-5.4409,-5.5288,-5.6434,-5.739,-5.7848,-5.8994,-5.9911,-6.0384,-6.0422,-6.1096,0.0,0.0,-6.3618,-6.5299,-6.5413,-6.5413,-6.5413,-6.5413,-6.5413,-6.5413,-6.5413,-6.5413,-6.5413,-6.5413,-6.5413,-6.5413,-6.5413,-6.5413,-6.5413,-6.5509,0.0,-6.5608,-6.5768,-6.5872,-6.5897,-6.5897,-6.5897,-6.5897,-6.5897,-6.5897,-6.5897,0.0,0.0,0.0,0.0,0.0,0.0,-5.0283,-5.0283,-5.0283,-5.0283,-5.0283,-5.0283,-5.0283,-5.0283,-5.0283,0.0,0.0,0.0,0.0,0.0,0.0,0.0,0.0,0.0,0.0,0.0,0.0,-4.5288,-4.5288,0.0,0.0,0.0,0.0,0.0,-4.5288,-4.5288,-4.5288,-4.5288,-4.5288,0.0,0.0,-4.5288,0.0,0.0,0.0,0.0,0.0,-4.5288,-4.5288,-4.5288,-4.5288,-4.5288,-4.5288,-4.5288,-4.5288,-4.5288,-4.65,-4.7788,-4.7788,-4.9022,-5.0283,-5.0283,-5.0283,-5.0283,-5.0283,-5.0283,-5.0283,-5.0283,-5.0283,-5.0283,-5.0283,-5.0856,-5.1658,-5.2652,-5.3378,-5.418,-5.525,-5.6091,-5.6931,-5.781,-5.8612,0.0,-6.0332,-6.0422,0.0,0.0,0.0,0.0,-6.5337,-6.5413,-6.5413,-6.5413,-6.5413,-6.5413,-6.5413,-6.5413,-6.5413,-6.5413,-6.5413,-6.5413,-6.5413,-6.5413,-6.5429,-6.5444,-6.5523,0.0,0.0,-6.5795,-6.5885,-6.5897,-6.5897,-6.5897,-6.5897,-6.5897,-6.5897,-6.5897,0.0,0.0,0.0,0.0,0.0,0.0,-5.0283,-5.0283,-5.0283,-5.0283,-5.0283,-5.0283,-5.0283,-5.0283,-5.0283,0.0,0.0,0.0,0.0,0.0,0.0,0.0,0.0,0.0,0.0,0.0,0.0,-4.5288,-4.5288,0.0,0.0,0.0,0.0,0.0,0.0,0.0,-4.5288,-4.5288,0.0,0.0,0.0,0.0,0.0,0.0,0.0,0.0,0.0,-4.5288,-4.5288,-4.5288,-4.5288,-4.5288,-4.5288,-4.5288,-4.5288,-4.5288,-4.65,-4.7788,-4.7788,-4.9022,-5.0283,-5.0283,-5.0283,-5.0283,-5.0283,-5.0283,-5.0283,-5.0283,-5.0283,-5.0283,-5.0283,-5.0359,-5.0932,-5.2537,-5.2881,-5.3492,-5.5174,-5.6091,-5.6931,-5.781,0.0,0.0,-6.0332,-6.0422,0.0,0.0,0.0,0.0,0.0,-6.5413,-6.5413,-6.5413,-6.5413,-6.5413,-6.5413,-6.5413,-6.5413,-6.5413,-6.5413,-6.5413,-6.5413,-6.5413,-6.542,-6.5494,0.0,0.0,0.0,-6.5793,-6.5846,-6.5897,-6.5897,-6.5897,-6.5897,-6.5897,-6.5897,-6.5897,0.0,0.0,0.0,0.0,0.0,0.0,-5.0283,-5.0283,-5.0283,-5.0283,-5.0283,-5.0283,-5.0283,-5.0283,-5.0283,-5.0283,0.0,0.0,0.0,0.0,0.0,0.0,0.0,0.0,0.0,0.0,-4.5774,-4.5288,-4.5288,0.0,0.0,0.0,0.0,0.0,0.0,0.0,0.0,0.0,0.0,0.0,0.0,0.0,0.0,0.0,0.0,0.0,0.0,0.0,-4.5288,-4.5288,-4.5288,-4.5288,-4.5288,-4.5288,-4.5403,-4.5889,-4.6882,-4.7903,-4.8449,-4.9404,-5.0283,-5.0283,-5.0283,-5.0283,-5.0283,-5.0283,-5.0283,-5.0283,-5.0283,-5.0283,-5.0283,-5.0283,-5.0703,-5.1888,-5.2461,-5.3225,-5.4448,-5.5326,-5.6396,-5.7734,-5.8192,0.0,0.0,0.0,0.0,0.0,0.0,0.0,0.0,-6.5413,-6.5413,-6.5413,-6.5413,-6.5413,-6.5413,-6.5413,-6.5413,-6.5413,-6.5413,-6.5413,-6.5413,-6.542,-6.5465,-6.5509,0.0,0.0,0.0,-6.5846,-6.5872,-6.5897,-6.5897,-6.5897,-6.5897,-6.5897,-6.5897,-6.5897,0.0,0.0,0.0,0.0,0.0,-5.0283,-5.0283,-5.0283,-5.0283,-5.0283,-5.0283,-5.0283,-5.0283,-5.0283,-5.0283,-5.0283,-5.0283,0.0,0.0,0.0,0.0,0.0,0.0,0.0,0.0,0.0,-4.6233,-4.566,-4.543,-4.5288,0.0,0.0,0.0,0.0,0.0,0.0,0.0,0.0,0.0,0.0,0.0,0.0,0.0,0.0,0.0,0.0,0.0,0.0,0.0,0.0,0.0,-4.6042,-4.6042,-4.6042,-4.608,-4.6424,-4.7111,-4.7979,-4.8869,-4.9671,-5.0283,-5.0283,-5.0283,-5.0283,-5.0283,-5.0283,-5.0283,-5.0283,-5.0283,-5.0283,-5.0283,-5.0283,-5.0588,-5.1455,-5.227,-5.311,-5.3989,-5.4868,-5.6014,-5.7695,0.0,-5.8574,0.0,0.0,0.0,0.0,0.0,0.0,0.0,-6.5413,-6.5413,-6.5413,-6.5413,-6.5413,-6.5413,-6.5413,-6.5413,-6.5413,-6.5413,-6.5413,-6.5413,-6.5435,-6.5494,-6.5537,0.0,0.0,0.0,-6.5885,-6.5897,-6.5897,-6.5897,-6.5897,-6.5897,-6.5897,-6.5897,-6.5897,0.0,0.0,0.0,0.0,0.0,0.0,-5.0283,-5.0283,-5.0283,-5.0283,-5.0283,-5.0283,-5.0283,-5.0283,-5.0283,-5.0283,-5.0283,0.0,0.0,0.0,0.0,0.0,0.0,0.0,0.0,0.0,-4.65,-4.65,-4.5698,-4.5288,-4.5288,-4.5288,-4.5288,-4.5288,0.0,0.0,0.0,0.0,0.0,0.0,0.0,0.0,-4.5288,0.0,0.0,0.0,0.0,0.0,0.0,0.0,0.0,0.0,0.0,-4.775,-4.7597,-4.6768,-4.7111,-4.7979,-4.8869,-4.9671,-5.0283,-5.0283,-5.0283,-5.0283,-5.0283,-5.0283,-5.0283,-5.0283,-5.0283,-5.0283,-5.0283,-5.0283,-5.0588,-5.1455,-5.227,-5.311,-5.3989,-5.4868,-5.6014,0.0,0.0,-5.8574,0.0,0.0,0.0,0.0,0.0,0.0,0.0,-6.5413,-6.5413,-6.5413,-6.5413,-6.5413,-6.5413,-6.5413,-6.5413,-6.5413,-6.5413,-6.5413,-6.5413,-6.5413,-6.5465,0.0,0.0,0.0,0.0,-6.5897,-6.5897,-6.5897,-6.5897,-6.5897,-6.5897,-6.5897,-6.5897,-6.5897,0.0,0.0,0.0,0.0,0.0,0.0,-5.0283,-5.0283,-5.0283,-5.0283,-5.0283,-5.0283,-5.0283,-5.0283,-5.0283,-5.0283,-5.0283,0.0,0.0,0.0,0.0,0.0,0.0,0.0,0.0,-4.8563,-4.7685,-4.65,-4.6233,-4.5851,-4.5288,-4.5288,-4.5288,-4.5288,-4.5288,0.0,0.0,0.0,0.0,0.0,0.0,-4.6997,-4.6997,0.0,0.0,0.0,0.0,0.0,0.0,0.0,0.0,0.0,0.0,0.0,0.0,-4.8181,-4.8449,-4.8869,-4.971,-5.0092,-5.0283,-5.0283,-5.0283,-5.0283,-5.0283,-5.0283,-5.0283,-5.0283,-5.0283,-5.0283,-5.0283,-5.0283,-5.0397,-5.0665,-5.1888,-5.2881,0.0,0.0,0.0,-5.7695,-5.8918,-5.9811,0.0,0.0,0.0,0.0,0.0,0.0,0.0,-6.5413,-6.5413,-6.5413,-6.5413,-6.5413,-6.5413,-6.5413,-6.5413,-6.5413,-6.5413,-6.5413,-6.5413,-6.5435,0.0,0.0,0.0,0.0,0.0,-6.5897,-6.5897,-6.5897,-6.5897,-6.5897,-6.5897,-6.5897,-6.5897,-6.5897,0.0,0.0,0.0,0.0,0.0,0.0,-5.0283,-5.0283,-5.0283,-5.0283,-5.0283,-5.0283,-5.0283,-5.0283,-5.0283,-5.0283,-5.0283,0.0,0.0,0.0,0.0,0.0,0.0,0.0,-4.9557,-4.9263,-4.8563,-4.7494,-4.715,-4.6729,-4.6233,-4.6233,-4.6233,-4.6233,-4.6233,-4.6233,0.0,0.0,0.0,0.0,-4.7559,-4.7788,-4.7788,0.0,0.0,0.0,0.0,0.0,0.0,0.0,0.0,0.0,0.0,0.0,0.0,0.0,-4.9557,-4.9671,-5.0168,-5.0283,-5.0283,-5.0283,-5.0283,-5.0283,-5.0283,-5.0283,-5.0283,-5.0283,-5.0283,-5.0283,-5.0283,-5.0283,-5.0397,-5.0741,-5.1926,-5.2919,0.0,0.0,0.0,-5.7695,0.0,0.0,0.0,0.0,0.0,0.0,0.0,0.0,0.0,0.0,-6.5413,-6.5413,-6.5413,-6.5413,-6.5413,-6.5413,-6.5413,-6.5413,-6.5413,-6.5413,-6.5413,-6.5435,0.0,0.0,0.0,0.0,0.0,-6.5885,-6.5897,-6.5897,-6.5897,-6.5897,-6.5897,-6.5897,-6.5897,-6.5897,0.0,0.0,0.0,0.0,0.0,0.0,0.0,-5.0283,-5.0283,-5.0283,-5.0283,-5.0283,-5.0283,-5.0283,-5.0283,-5.0283,-5.0283,0.0,0.0,0.0,0.0,0.0,0.0,0.0,-5.0283,-4.9557,-4.9148,-4.911,-4.8296,-4.7865,-4.7788,-4.7788,-4.7788,-4.7788,-4.7788,-4.7788,-4.7788,-4.7865,-4.7903,-4.7903,-4.7941,-4.7979,0.0,0.0,0.0,0.0,0.0,0.0,0.0,0.0,0.0,0.0,0.0,0.0,0.0,0.0,0.0,0.0,0.0,-5.0283,-5.0283,-5.0283,-5.0283,-5.0283,-5.0283,-5.0283,0.0,-5.0283,-5.0283,-5.0283,-5.0283,-5.0283,-5.0588,-5.1455,-5.227,0.0,0.0,-5.4944,0.0,0.0,0.0,0.0,0.0,0.0,0.0,0.0,0.0,0.0,0.0,0.0,-6.5413,-6.5413,-6.5413,-6.5413,-6.5413,-6.5413,-6.5413,-6.5413,-6.5413,-6.5413,-6.5413,-6.5413,0.0,0.0,0.0,0.0,0.0,-6.5872,-6.5897,-6.5897,-6.5897,-6.5897,-6.5897,-6.5897,-6.5897,-6.5897,0.0,0.0,0.0,0.0,0.0,0.0,0.0,0.0,0.0,0.0,-5.0283,-5.0283,-5.0283,-5.0283,-5.0283,0.0,0.0,0.0,0.0,0.0,0.0,0.0,0.0,0.0,-5.0283,-5.0092,-4.971,-4.911,-4.8869,-4.8449,-4.7788,-4.7788,-4.7788,-4.7788,-4.7788,-4.7788,-4.7826,-4.8525,-4.8793,-4.8831,-4.948,-4.971,0.0,0.0,0.0,0.0,-4.971,-4.9824,0.0,0.0,0.0,0.0,0.0,0.0,0.0,0.0,-5.0283,-5.0283,-5.0283,0.0,-5.0283,-5.0283,-5.0283,-5.0283,0.0,-5.0283,-5.0283,-5.0283,-5.0283,-5.0283,-5.0283,-5.0283,-5.0588,-5.1455,0.0,0.0,-5.3989,0.0,0.0,-5.7848,0.0,0.0,0.0,0.0,0.0,0.0,0.0,0.0,0.0,0.0,-6.5413,-6.5413,-6.5413,-6.5413,-6.5413,-6.5413,-6.5413,-6.5413,-6.5413,-6.5413,-6.5413,-6.5413,0.0,0.0,0.0,0.0,-6.5872,-6.5897,-6.5897,-6.5897,-6.5897,-6.5897,-6.5897,-6.5897,-6.5897,-6.5897,0.0,0.0,0.0,0.0,0.0,0.0,0.0,0.0,0.0,0.0,-5.0283,-5.0283,-5.0283,-5.0283,-5.0283,0.0,0.0,0.0,0.0,0.0,0.0,0.0,0.0,-5.0283,-5.0283,-5.0283,-5.0092,-4.9633,-4.9633,-4.9404,-4.8945,-4.8945,-4.8945,-4.8945,-4.8945,-4.8945,-4.8984,-4.9442,-4.9633,-4.9671,-5.013,0.0,0.0,0.0,0.0,0.0,-5.0283,-5.0283,0.0,-5.0283,-5.0283,-5.0283,0.0,0.0,0.0,0.0,-5.0283,-5.0283,-5.0283,-5.0283,-5.0283,-5.0283,-5.0283,-5.0283,-5.0283,-5.0283,-5.0283,-5.0283,-5.0283,-5.0283,-5.0283,-5.0627,-5.1162,-5.2002,-5.2843,0.0,0.0,0.0,0.0,0.0,0.0,0.0,0.0,0.0,0.0,0.0,0.0,0.0,0.0,0.0,-6.5413,-6.5413,-6.5413,-6.5413,-6.5413,-6.5413,-6.5413,-6.5413,-6.5413,-6.5413,-6.5413,-6.5413,0.0,0.0,0.0,0.0,-6.5768,-6.5872,-6.5897,-6.5897,-6.5897,-6.5897,-6.5897,-6.5897,-6.5897,-6.5897,0.0,0.0,0.0,0.0,0.0,0.0,0.0,0.0,0.0,0.0,0.0,0.0,0.0,0.0,0.0,0.0,0.0,0.0,0.0,0.0,0.0,0.0,-5.0283,-5.0283,-5.0283,-5.0283,-5.0283,-5.0283,-5.0283,-5.0283,-5.0283,-5.0283,-5.0283,-5.0283,-5.0283,-5.0283,-5.0283,-5.0283,-5.0283,-5.0283,-5.0283,0.0,0.0,0.0,0.0,0.0,0.0,0.0,0.0,-5.0283,-5.0283,-5.0283,-5.0283,0.0,0.0,0.0,0.0,0.0,-5.0283,-5.0283,-5.0283,-5.0283,-5.0283,-5.0283,-5.0283,-5.0283,-5.0283,-5.0283,-5.0283,-5.0283,-5.0283,-5.1009,-5.1849,0.0,0.0,0.0,-5.6358,-5.7351,0.0,0.0,0.0,0.0,0.0,0.0,0.0,0.0,0.0,0.0,0.0,0.0,0.0,-6.5413,-6.5413,-6.5413,-6.5413,-6.5413,-6.5413,-6.5413,-6.5413,-6.5413,-6.5413,-6.5413,-6.5413,0.0,0.0,0.0,-6.5622,-6.5795,-6.5885,-6.5897,-6.5897,-6.5897,-6.5897,-6.5897,-6.5897,-6.5897,0.0,0.0,0.0,0.0,0.0,0.0,0.0,0.0,0.0,0.0,0.0,0.0,0.0,0.0,0.0,0.0,0.0,0.0,0.0,0.0,0.0,-5.0283,-5.0283,-5.0283,-5.0283,-5.0283,-5.0283,-5.0283,-5.0283,-5.0283,-5.0283,-5.0283,-5.0283,-5.0283,-5.0283,-5.0283,-5.0283,-5.0283,-5.0283,-5.0283,-5.0283,0.0,0.0,0.0,0.0,0.0,0.0,0.0,0.0,-5.0283,-5.0283,-5.0283,-5.0283,0.0,0.0,0.0,0.0,0.0,-5.0283,-5.0283,-5.0283,-5.0283,-5.0283,-5.0283,-5.0283,-5.0283,-5.0283,-5.0283,-5.0283,-5.0283,-5.0283,-5.1009,-5.1849,0.0,0.0,-5.5517,0.0,0.0,0.0,0.0,0.0,0.0,0.0,0.0,0.0,0.0,0.0,0.0,0.0,0.0,0.0,-6.5413,-6.5413,-6.5413,-6.5413,-6.5413,-6.5413,-6.5413,-6.5413,-6.5413,-6.5413,-6.5413,-6.542,0.0,0.0,-6.5618,-6.578,-6.5793,-6.5846,-6.5897,-6.5897,-6.5897,-6.5897,-6.5897,-6.5897,-6.5897,0.0,0.0,0.0,0.0,0.0,0.0,0.0,0.0,0.0,0.0,0.0,0.0,0.0,0.0,0.0,0.0,0.0,0.0,0.0,0.0,-5.0283,-5.0283,-5.0283,-5.0283,-5.0283,-5.0283,-5.0283,-5.0283,-5.0283,-5.0283,-5.0283,-5.0283,-5.0283,-5.0283,-5.0283,-5.0283,-5.0283,-5.0283,-5.0283,-5.0283,0.0,0.0,0.0,0.0,0.0,0.0,0.0,0.0,0.0,0.0,-5.0283,-5.0283,-5.0283,0.0,0.0,0.0,0.0,0.0,-5.0283,-5.0283,-5.0283,-5.0283,-5.0283,-5.0283,-5.0283,-5.0283,-5.0283,-5.0283,-5.0283,-5.0436,-5.0932,0.0,-5.269,-5.3989,0.0,0.0,0.0,0.0,0.0,0.0,0.0,0.0,0.0,0.0,0.0,0.0,0.0,0.0,0.0,0.0,0.0,0.0,-6.5413,-6.5413,-6.5413,-6.5413,-6.5413,-6.5413,-6.5413,-6.5413,-6.5413,-6.5413,-6.5429,-6.5435,0.0,-6.5537,-6.5646,-6.5767,-6.5807,-6.5846,-6.5885,-6.5897,-6.5897,-6.5897,-6.5897,-6.5897,0.0,0.0,0.0,0.0,0.0,0.0,0.0,0.0,0.0,0.0,0.0,0.0,0.0,0.0,0.0,0.0,0.0,0.0,0.0,-5.0283,-5.0283,-5.0283,-5.0283,-5.0283,-5.0283,-5.0283,-5.0283,-5.0283,-5.0283,-5.0283,-5.0283,-5.0283,-5.0283,-5.0283,-5.0283,-5.0283,-5.0283,-5.0283,-5.0283,-5.0283,0.0,0.0,0.0,0.0,0.0,0.0,0.0,0.0,0.0,0.0,0.0,0.0,0.0,0.0,0.0,-5.0283,-5.0283,-5.0283,-5.0283,-5.0283,-5.0283,-5.0283,-5.0283,-5.0283,-5.0283,-5.0283,-5.0283,-5.0283,-5.0283,-5.0588,-5.1429,-5.2422,0.0,-5.5135,-5.5403,0.0,0.0,0.0,0.0,0.0,0.0,0.0,0.0,0.0,0.0,0.0,0.0,0.0,0.0,0.0,0.0,0.0,-6.5413,-6.5413,-6.5413,-6.5413,-6.5413,-6.5413,-6.5413,-6.5413,-6.5413,-6.5413,-6.5413,-6.5413,-6.545,-6.5479,-6.5509,-6.5674,-6.578,-6.5807,-6.5872,-6.5897,-6.5897,-6.5897,-6.5897,-6.5897,0.0,0.0,0.0,0.0,0.0,0.0,0.0,0.0,0.0,0.0,0.0,0.0,0.0,0.0,0.0,0.0,0.0,0.0,0.0,-5.0283,-5.0283,-5.0283,-5.0283,-5.0283,-5.0283,-5.0283,-5.0283,-5.0283,-5.0283,-5.0283,-5.0283,-5.0283,-5.0283,-5.0283,-5.0283,-5.0283,-5.0283,-5.0283,-5.0283,-5.0283,-5.0283,0.0,0.0,0.0,0.0,0.0,0.0,0.0,0.0,0.0,0.0,0.0,0.0,0.0,-5.0283,-5.0283,-5.0283,-5.0283,-5.0283,-5.0283,-5.0283,-5.0283,-5.0283,-5.0283,-5.0283,-5.0283,-5.0283,-5.0283,-5.0283,-5.0588,-5.1429,-5.2919,-5.4295,-5.525,0.0,0.0,0.0,0.0,0.0,0.0,0.0,0.0,0.0,0.0,0.0,0.0,0.0,0.0,0.0,0.0,0.0,0.0,0.0,-6.5413,-6.5413,-6.5413,-6.5413,-6.5413,-6.5413,-6.5413,-6.5413,-6.5413,-6.5413,-6.5413,-6.5413,-6.5435,-6.5509,-6.558,-6.5688,-6.5807,-6.5872,-6.5897,-6.5897,-6.5897,-6.5897,-6.5897,0.0,0.0,0.0,0.0,0.0,0.0,0.0,0.0,0.0,0.0,0.0,-5.0283,-5.0283,0.0,0.0,0.0,0.0,0.0,0.0,-5.0283,-5.0283,-5.0283,-5.0283,-5.0283,-5.0283,-5.0283,-5.0283,-5.0283,-5.0283,-5.0283,-5.0283,-5.0283,-5.0283,-5.0283,-5.0283,-5.0283,-5.0283,-5.0283,-5.0283,-5.0283,-5.0283,-5.0283,0.0,0.0,0.0,0.0,0.0,0.0,0.0,0.0,-5.0283,-5.0283,-5.0283,-5.0283,-5.0283,-5.0283,-5.0283,-5.0283,-5.0283,-5.0283,-5.0283,-5.0283,-5.0283,-5.0283,-5.0283,-5.0283,-5.0283,-5.0283,-5.0741,-5.1544,-5.2919,0.0,-5.5021,0.0,0.0,0.0,0.0,0.0,0.0,0.0,0.0,0.0,0.0,0.0,0.0,0.0,0.0,0.0,0.0,0.0,0.0,0.0,0.0,-6.5413,-6.5413,-6.5413,-6.5413,-6.5413,-6.5413,-6.5413,-6.5413,-6.5413,-6.5413,-6.5413,-6.5413,-6.539,-6.5435,-6.5509,-6.558,-6.5688,-6.5859,-6.5897,-6.5897,-6.5897,-6.5897,-6.5897,0.0,0.0,0.0,0.0,0.0,0.0,0.0,0.0,-5.1085,0.0,0.0,0.0,0.0,-5.0703,0.0,0.0,0.0,0.0,-5.0283,-5.0283,-5.0283,-5.0283,-5.0283,-5.0283,-5.0283,-5.0283,-5.0283,-5.0283,-5.0283,-5.0283,-5.0283,-5.0283,-5.0283,-5.0283,-5.0283,-5.0283,-5.0283,-5.0283,-5.0283,-5.0283,-5.0283,-5.0283,0.0,0.0,0.0,0.0,0.0,0.0,0.0,0.0,-5.0283,-5.0283,-5.0283,-5.0283,-5.0283,-5.0283,-5.0283,-5.0283,-5.0283,-5.0283,-5.0283,-5.0283,-5.0283,-5.0283,-5.0283,-5.0283,-5.0283,-5.0283,-5.12,-5.2422,-5.3836,-5.483,0.0,0.0,0.0,0.0,0.0,0.0,0.0,0.0,0.0,0.0,0.0,0.0,0.0,0.0,0.0,0.0,0.0,0.0,0.0,0.0,0.0,-6.5146,-6.5413,-6.5413,-6.5413,-6.5413,-6.5413,-6.5413,-6.5413,-6.5413,-6.5413,-6.5413,-6.5413,-6.5413,-6.5413,-6.5465,-6.5552,-6.5688,-6.5833,-6.5885,-6.5897,-6.5897,-6.5897,-6.5897,0.0,0.0,0.0,0.0,0.0,0.0,0.0,0.0,-5.2805,-5.2805,-5.2805,0.0,0.0,0.0,0.0,0.0,0.0,0.0,-5.0321,-5.0283,-5.0283,-5.0283,-5.0283,-5.0283,-5.0283,-5.0283,-5.0283,-5.0283,-5.0283,-5.0283,-5.0283,-5.0283,-5.0283,-5.0283,-5.0283,-5.0283,-5.0283,-5.0283,-5.0283,-5.0283,-5.0283,-5.0283,-5.0283,0.0,0.0,0.0,0.0,0.0,0.0,0.0,-5.0283,-5.0283,-5.0283,-5.0283,-5.0283,-5.0283,-5.0283,-5.0283,-5.0283,-5.0283,-5.0283,-5.0283,-5.0283,-5.0283,-5.0283,-5.0321,-5.0321,-5.0321,-5.1658,-5.3072,-5.3951,-5.483,0.0,0.0,0.0,0.0,0.0,0.0,0.0,0.0,0.0,0.0,0.0,0.0,0.0,0.0,0.0,0.0,0.0,0.0,0.0,0.0,0.0,0.0,-6.5375,-6.5413,-6.5413,-6.5413,-6.5413,-6.5413,-6.5413,-6.5413,-6.5413,-6.5413,-6.5413,-6.5413,-6.5413,-6.5465,-6.5618,-6.5793,-6.5793,-6.5833,-6.5897,-6.5897,-6.5897,-6.5897,0.0,0.0,0.0,0.0,0.0,0.0,0.0,0.0,-5.2805,-5.2805,-5.2805,0.0,0.0,0.0,0.0,0.0,0.0,0.0,-5.12,-5.0627,-5.0283,-5.0283,-5.0283,-5.0283,-5.0283,-5.0283,-5.0283,-5.0283,-5.0283,-5.0283,-5.0283,-5.0283,-5.0283,-5.0283,-5.0283,-5.0283,-5.0283,-5.0283,-5.0283,-5.0283,-5.0283,-5.0283,-5.0283,0.0,0.0,0.0,0.0,0.0,0.0,0.0,0.0,0.0,-5.0283,-5.0283,-5.0283,-5.0283,-5.0283,-5.0283,-5.0283,-5.0283,-5.0283,-5.0283,-5.0283,-5.0283,-5.0283,-5.0779,-5.1544,-5.2728,-5.3378,-5.3989,-5.4868,-5.525,0.0,0.0,0.0,0.0,0.0,0.0,0.0,0.0,0.0,0.0,0.0,0.0,0.0,0.0,0.0,0.0,0.0,0.0,0.0,0.0,0.0,0.0,-6.4535,-6.5108,-6.5413,-6.5413,-6.5413,-6.5413,-6.5413,-6.5413,-6.5413,-6.5413,-6.5413,-6.5413,-6.5413,-6.5465,-6.5523,-6.5604,-6.566,-6.5688,-6.5701,-6.5701,-6.5701,-6.5715,0.0,0.0,0.0,0.0,0.0,0.0,-5.4639,-5.418,-5.3836,-5.3836,-5.3836,-5.3683,0.0,0.0,0.0,0.0,0.0,0.0,-5.2079,-5.1582,-5.1162,-5.0818,-5.0818,-5.0665,-5.0321,-5.0283,-5.0283,-5.0283,-5.0283,-5.0283,-5.0283,-5.0283,-5.0283,-5.0283,-5.0283,-5.0283,-5.0283,-5.0283,-5.0283,-5.0283,-5.0283,-5.0283,-5.0283,0.0,0.0,0.0,0.0,0.0,0.0,0.0,0.0,0.0,-5.0283,-5.0283,-5.0283,-5.0283,-5.0283,-5.0283,-5.0283,-5.0283,-5.0283,-5.0283,-5.0283,-5.0474,-5.1123,-5.1467,-5.2002,-5.3301,-5.3874,-5.4371,-5.525,-5.5403,0.0,0.0,0.0,0.0,0.0,0.0,0.0,0.0,0.0,0.0,0.0,0.0,0.0,0.0,0.0,0.0,0.0,0.0,0.0,0.0,0.0,0.0,-6.4206,-6.4688,-6.507,-6.5413,-6.5413,-6.5413,-6.5413,-6.5413,-6.5413,-6.5413,-6.5413,-6.5413,-6.5413,-6.5435,-6.5465,-6.5509,-6.5537,-6.558,-6.5594,-6.5594,-6.5594,-6.5608,0.0,0.0,-5.5403,-5.5403,0.0,0.0,-5.5403,-5.5403,-5.5403,-5.5403,-5.5403,-5.5097,0.0,0.0,0.0,-5.311,-5.2957,-5.2919,-5.2919,-5.2843,-5.2461,-5.1735,-5.1646,-5.1238,-5.0436,-5.0359,-5.0283,-5.0283,-5.0283,-5.0283,-5.0283,-5.0283,-5.0283,-5.0283,-5.0283,-5.0283,-5.0283,-5.0283,-5.0283,-5.0283,-5.0283,-5.0283,-5.0283,-5.0283,0.0,0.0,0.0,0.0,0.0,0.0,0.0,0.0,-5.0283,-5.0283,-5.0283,-5.0283,-5.0283,-5.0283,-5.0283,-5.0283,-5.0283,-5.0283,-5.0283,-5.0703,-5.2346,-5.2193,-5.1964,-5.2843,0.0,-5.4448,-5.525,0.0,0.0,0.0,0.0,0.0,0.0,0.0,0.0,0.0,0.0,0.0,0.0,0.0,0.0,0.0,0.0,0.0,0.0,0.0,0.0,0.0,0.0,0.0,-6.3938,-6.4129,-6.4573,0.0,-6.5375,-6.5413,-6.5413,-6.5413,-6.5413,-6.5413,-6.5413,-6.5413,-6.5413,-6.5413,-6.542,-6.5494,-6.5494,-6.5523,-6.558,-6.558,-6.558,-6.558,0.0,0.0,-5.5403,-5.5403,0.0,0.0,-5.5403,-5.5403,-5.5403,-5.5403,-5.5403,-5.5326,-5.5135,-5.5135,0.0,-5.4868,-5.4218,-5.3836,-5.3836,-5.3187,-5.2728,-5.2537,-5.1926,-5.1493,-5.1302,-5.0665,-5.0283,-5.0283,-5.0283,-5.0283,-5.0283,-5.0283,-5.0283,-5.0283,-5.0283,-5.0283,-5.0283,-5.0283,-5.0283,-5.0283,-5.0283,-5.0283,-5.0283,-5.0283,-5.0283,0.0,0.0,0.0,0.0,0.0,0.0,0.0,-5.0283,-5.0283,-5.0283,-5.0283,-5.0283,-5.0283,-5.0283,-5.0283,-5.0283,-5.0283,-5.0283,-5.0588,-5.162,-5.2193,-5.2996,-5.4524,-5.4982,-5.5174,-5.5365,0.0,0.0,0.0,0.0,0.0,0.0,0.0,0.0,0.0,0.0,0.0,0.0,0.0,0.0,0.0,0.0,0.0,0.0,0.0,0.0,0.0,0.0,-6.1784,-6.2166,-6.3503,-6.4282,0.0,-6.5108,-6.5413,-6.5413,-6.5413,-6.5413,-6.5413,-6.5413,-6.5413,-6.5413,-6.5413,-6.5429,-6.5405,-6.5405,-6.5405,-6.542,-6.542,-6.542,-6.5435,0.0,0.0,0.0,0.0,0.0,0.0,0.0,0.0,-5.4944,-5.5365,-5.5403,-5.5403,-5.5403,-5.5403,0.0,0.0,-5.4982,-5.4715,-5.4715,-5.4295,-5.3874,-5.3454,-5.2614,-5.2155,-5.2155,-5.1735,-5.1314,-5.0932,-5.0932,-5.0703,-5.0283,-5.0283,-5.0283,-5.0283,-5.0283,-5.0283,-5.0283,-5.0283,-5.0283,-5.0283,-5.0283,-5.0283,-5.0283,-5.0283,-5.0283,-5.0283,-5.0283,0.0,0.0,0.0,0.0,0.0,0.0,0.0,-5.0283,-5.0283,-5.0283,-5.0283,-5.0283,-5.0283,-5.0283,-5.0283,-5.0283,-5.0627,-5.1888,-5.2499,-5.3301,-5.5059,-5.5403,-5.5403,0.0,0.0,0.0,0.0,0.0,0.0,0.0,0.0,0.0,0.0,0.0,0.0,0.0,0.0,0.0,0.0,0.0,0.0,0.0,0.0,0.0,0.0,-6.079,-6.1211,-6.1593,-6.251,-6.335,-6.4206,-6.4611,-6.5031,-6.5413,-6.5413,-6.5413,-6.5413,-6.5413,-6.5413,-6.5413,-6.5413,-6.5413,-6.5413,-6.5413,-6.5413,-6.5413,-6.5413,-6.5413,-6.5375,0.0,0.0,0.0,0.0,0.0,0.0,0.0,0.0,0.0,-5.5326,-5.5403,-5.5403,-5.5403,-5.5403,-5.5403,0.0,0.0,0.0,-5.5403,-5.5403,-5.5097,-5.4371,-5.3492,-5.3034,-5.3034,-5.2881,-5.2461,-5.1811,-5.1811,-5.1391,-5.0512,-5.0359,-5.0283,-5.0283,-5.0283,-5.0283,-5.0283,-5.0283,-5.0283,-5.0283,-5.0283,-5.0283,-5.0283,-5.0283,-5.0283,-5.0283,-5.0283,-5.0283,-5.0283,-5.0283,0.0,0.0,0.0,0.0,-5.0283,-5.0283,-5.0283,-5.0283,-5.0283,-5.0283,-5.0283,-5.0283,-5.0283,-5.0741,-5.2422,-5.2805,-5.3301,-5.5059,-5.5403,0.0,0.0,0.0,0.0,0.0,0.0,0.0,0.0,0.0,0.0,0.0,0.0,0.0,0.0,0.0,0.0,0.0,0.0,0.0,0.0,0.0,-6.0422,-6.0422,-6.0422,-6.0714,-6.1402,-6.1516,-6.2319,-6.3747,-6.4053,-6.4611,-6.5413,-6.5413,-6.5413,-6.5413,-6.5413,-6.5413,-6.5413,-6.5413,-6.5413,-6.5413,-6.5413,-6.5413,-6.5413,-6.5413,-6.5413,-6.5413,0.0,0.0,0.0,0.0,0.0,0.0,0.0,0.0,0.0,0.0,-5.5403,-5.5403,-5.5403,-5.5403,-5.5403,-5.5403,-5.5403,-5.5403,-5.5403,0.0,0.0,-5.525,-5.4409,-5.3913,-5.3913,-5.3187,-5.2728,-5.2652,-5.2652,-5.2231,-5.1417,-5.0665,-5.0283,-5.0283,-5.0283,-5.0283,-5.0283,-5.0283,-5.0283,-5.0283,-5.0283,-5.0283,-5.0283,-5.0283,-5.0283,-5.0283,-5.0283,-5.0283,-5.0283,-5.0283,-5.0283,0.0,0.0,0.0,-5.0283,-5.0283,-5.0283,-5.0283,-5.0283,-5.0283,-5.0283,-5.0283,-5.0283,-5.0741,-5.2422,0.0,-5.3301,0.0,0.0,0.0,0.0,0.0,0.0,0.0,0.0,0.0,0.0,0.0,0.0,0.0,0.0,0.0,0.0,0.0,0.0,0.0,0.0,0.0,0.0,-6.0422,-6.0422,-6.0422,-6.0422,-6.046,-6.0561,-6.1249,-6.1707,-6.1975,-6.3465,-6.4611,-6.5413,-6.5413,-6.5413,-6.5413,-6.5413,-6.5413,-6.5413,-6.5413,-6.5413,-6.5413,-6.5413,-6.5413,-6.5413,-6.5413,-6.5413,-6.5413,0.0,0.0,0.0,0.0,0.0,0.0,0.0,0.0,0.0,0.0,0.0,-5.5403,-5.5403,-5.5403,-5.5403,-5.5403,-5.5403,-5.5403,-5.5403,-5.5403,-5.5403,-5.5403,-5.5021,-5.483,-5.483,-5.4448,-5.4027,-5.3531,-5.3531,-5.311,-5.227,-5.1888,-5.1467,-5.1047,-5.1047,-5.1276,-5.1697,-5.1697,-5.1429,-5.1047,-5.1047,-5.0741,-5.0283,-5.0283,-5.0283,-5.0283,-5.0283,-5.0283,-5.0283,-5.0283,-5.0283,-5.0283,-5.0283,0.0,0.0,0.0,-5.0283,-5.0283,-5.0283,-5.0283,-5.0283,-5.0283,-5.0283,-5.0627,-5.1849,-5.2461,-5.3148,0.0,0.0,0.0,0.0,0.0,0.0,0.0,0.0,0.0,0.0,0.0,0.0,0.0,0.0,0.0,0.0,0.0,0.0,0.0,0.0,0.0,-6.0422,-6.0422,-6.0422,-6.0422,-6.0422,-6.0422,-6.0422,-6.0752,-6.1134,-6.1631,-6.335,-6.4382,-6.4726,-6.5184,-6.5413,-6.5413,-6.5413,-6.5413,-6.5413,-6.5413,-6.5413,-6.5413,-6.5413,-6.5413,-6.5413,-6.5413,-6.5413,-6.5413,0.0,0.0,0.0,0.0,0.0,0.0,0.0,0.0,0.0,0.0,0.0,0.0,-5.5403,0.0,0.0,0.0,-5.5326,-5.5313,-5.5339,-5.539,-5.5403,-5.5403,-5.5403,-5.5403,-5.5403,-5.5403,-5.5097,-5.4448,-5.4448,-5.3989,-5.311,-5.311,-5.2805,-5.2231,-5.2002,-5.2231,-5.2805,-5.2805,-5.2461,-5.1888,-5.1697,-5.12,-5.0627,-5.0397,-5.0283,-5.0283,-5.0283,-5.0283,-5.0283,-5.0283,-5.0283,-5.0283,-5.0283,-5.0283,0.0,0.0,0.0,-5.0283,-5.0283,-5.0283,-5.0283,-5.0283,-5.0283,-5.055,0.0,0.0,-5.3034,0.0,0.0,0.0,0.0,0.0,0.0,0.0,0.0,0.0,0.0,0.0,0.0,0.0,0.0,0.0,0.0,0.0,0.0,0.0,0.0,0.0,-6.0422,-6.0422,-6.0422,-6.0422,-6.0422,-6.0422,-6.0422,-6.0422,-6.079,-6.1631,-6.3121,-6.4,-6.4244,-6.5031,-6.5413,-6.5413,-6.5413,-6.5413,-6.5413,-6.5413,-6.5413,-6.5413,-6.5413,-6.5413,-6.5413,-6.5413,-6.5413,-6.5413,0.0,0.0,0.0,0.0,0.0,0.0,0.0,0.0,0.0,0.0,0.0,0.0,-5.5403,-5.5313,-5.5197,-5.5197,-5.513,-5.5154,-5.5197,-5.5326,-5.5403,-5.5403,-5.5403,0.0,-5.5403,-5.5403,-5.5403,-5.5326,-5.5326,-5.4906,-5.4027,-5.4027,-5.4027,-5.3913,-5.311,-5.2766,-5.2805,-5.2805,-5.2766,-5.2652,-5.1926,-5.1582,-5.1429,-5.0627,-5.0283,-5.0283,-5.0283,-5.0283,-5.0283,0.0,0.0,0.0,0.0,-5.0283,-5.0283,0.0,0.0,0.0,-5.0283,-5.0283,-5.0283,-5.0283,-5.0283,-5.055,0.0,0.0,0.0,0.0,0.0,0.0,0.0,0.0,0.0,0.0,0.0,0.0,0.0,0.0,0.0,0.0,0.0,0.0,0.0,0.0,0.0,0.0,0.0,0.0,-6.0422,-6.0422,-6.0422,-6.0422,-6.0422,-6.0422,-6.0422,-6.0422,-6.079,-6.1593,-6.2548,-6.3388,-6.4244,-6.5031,-6.5413,-6.5413,-6.5413,-6.5413,-6.5413,-6.5413,-6.5413,-6.5413,-6.5413,-6.5413,-6.5413,-6.5413,-6.5413,-6.5413,0.0,0.0,0.0,0.0,0.0,0.0,0.0,0.0,0.0,0.0,0.0,0.0,0.0,-5.5377,-5.5326,-5.5326,-5.53,-5.53,-5.5326,-5.539,-5.5403,-5.5403,-5.5403,-5.5403,-5.5403,-5.5403,-5.5403,-5.5403,-5.5403,-5.525,-5.4944,-5.4944,-5.4944,-5.4906,-5.4027,-5.3951,-5.4486,-5.4486,-5.4142,-5.3569,-5.2728,-5.2079,-5.1493,-5.0627,-5.0283,-5.0283,-5.0283,0.0,0.0,0.0,0.0,0.0,0.0,0.0,-5.0283,-5.0283,-5.0283,-5.0283,-5.0283,-5.0283,-5.0283,-5.0283,-5.0283,-5.0397,-5.0703,-5.1811,0.0,0.0,0.0,0.0,0.0,0.0,0.0,0.0,0.0,0.0,0.0,0.0,0.0,0.0,0.0,0.0,0.0,0.0,0.0,0.0,0.0,0.0,-6.0422,-6.0422,-6.0422,-6.0422,-6.0422,-6.0422,-6.0422,-6.0422,-6.0523,-6.0828,-6.1669,-6.251,-6.3388,-6.4229,-6.4917,-6.5413,-6.5413,-6.5413,-6.5413,-6.5413,-6.5413,-6.5413,-6.5413,-6.5413,-6.5413,-6.5413,-6.5413,-6.5413,0.0,0.0,0.0,0.0,0.0,-5.4692,-5.4852,-5.4889,-5.5014,-5.5168,0.0,0.0,0.0,0.0,-5.5286,-5.526,-5.53,-5.5326,-5.5326,-5.539,-5.5403,-5.5403,-5.5403,-5.5403,-5.5403,-5.5097,-5.5097,-5.5403,-5.5097,-5.5097,-5.5403,-5.5403,-5.5403,-5.5365,-5.4791,-5.4868,-5.5403,-5.5403,-5.5059,-5.4448,-5.3569,-5.2919,-5.2346,-5.1467,-5.0971,-5.0741,0.0,0.0,0.0,0.0,0.0,0.0,0.0,0.0,-5.0283,-5.0283,-5.0283,-5.0283,-5.0283,-5.0283,-5.0283,-5.0283,-5.0283,-5.0283,-5.0283,0.0,0.0,0.0,0.0,0.0,0.0,0.0,0.0,0.0,0.0,0.0,0.0,0.0,0.0,0.0,0.0,0.0,0.0,0.0,0.0,0.0,0.0,0.0,-6.0422,-6.0422,-6.0422,-6.0422,-6.0422,-6.0422,-6.0422,-6.0422,-6.0422,-6.0422,-6.1211,-6.2051,-6.293,-6.3809,-6.4649,-6.5413,-6.5413,-6.5413,-6.5413,-6.5413,-6.5413,-6.5413,-6.5413,-6.5413,-6.5413,-6.5413,-6.5413,-6.5413,0.0,0.0,-5.3958,-5.4101,-5.4118,-5.4292,-5.4746,-5.4791,-5.4947,-5.5351,0.0,0.0,0.0,0.0,0.0,-5.5014,-5.5116,-5.5197,-5.5197,-5.5326,-5.5403,-5.5403,-5.5403,-5.5403,-5.5403,-5.4562,-5.4562,-5.5403,-5.4562,-5.4562,-5.5403,-5.5403,-5.5403,-5.5403,-5.5403,-5.5403,-5.5403,-5.5403,-5.5403,-5.5326,-5.4448,-5.4104,-5.3989,-5.311,-5.227,0.0,-5.1582,-5.1009,0.0,-5.0283,0.0,0.0,0.0,0.0,-5.0283,-5.0283,-5.0283,-5.0283,0.0,0.0,0.0,-5.0283,-5.0283,0.0,-5.0283,0.0,0.0,0.0,0.0,0.0,0.0,0.0,0.0,0.0,0.0,0.0,0.0,0.0,0.0,0.0,0.0,0.0,0.0,0.0,0.0,0.0,0.0,-6.037,-6.0422,-6.0422,-6.0422,-6.0422,-6.0422,-6.0422,-6.0422,-6.0422,-6.0422,-6.0422,-6.1172,-6.2013,-6.2892,-6.377,-6.4611,-6.5375,-6.5375,-6.5413,-6.5413,-6.5413,-6.5413,-6.5413,-6.5413,-6.5413,-6.5413,-6.5413,-6.5413,-6.5413,0.0,-5.4645,-5.4645,-5.4676,-5.4676,-5.4707,-5.4867,-5.4882,-5.4956,0.0,0.0,0.0,-5.5326,-5.5313,-5.53,-5.5273,-5.5313,-5.5339,-5.5339,-5.539,-5.5403,-5.5403,-5.5403,-5.5403,-5.5403,-5.5174,-5.5174,-5.5403,-5.5174,-5.5174,-5.5403,-5.5403,-5.5403,-5.5403,-5.5403,-5.5403,-5.5403,-5.5403,-5.5403,-5.5326,-5.4448,-5.4104,-5.3951,0.0,0.0,0.0,0.0,-5.0512,-5.0283,0.0,-5.0283,-5.0283,0.0,-5.0283,-5.0283,-5.0283,-5.0283,-5.0283,-5.0283,0.0,0.0,0.0,0.0,0.0,-5.0283,-5.0971,0.0,0.0,0.0,0.0,0.0,0.0,0.0,0.0,0.0,0.0,0.0,0.0,0.0,0.0,0.0,0.0,0.0,0.0,0.0,0.0,-5.9338,-5.972,-6.0384,-6.0422,-6.0422,-6.0422,-6.0422,-6.0422,-6.0422,-6.0422,-6.0422,-6.0422,-6.0637,-6.1172,-6.1975,-6.2853,-6.3732,-6.4535,-6.5146,-6.5413,-6.5413,-6.5413,-6.5413,-6.5413,-6.5413,-6.5413,-6.5413,-6.5413,-6.5413,-6.5413,-5.3796,-5.3925,-5.3888,-5.3943,-5.3943,-5.4015,-5.4296,-5.433,-5.4479,0.0,0.0,0.0,-5.53,-5.53,-5.5286,-5.5313,-5.539,-5.5403,-5.5403,-5.5403,-5.5403,-5.5403,-5.5403,-5.5403,-5.5403,-5.5059,-5.5059,-5.5403,-5.5059,-5.5059,-5.5403,-5.5403,-5.5403,-5.5403,-5.5403,-5.5403,-5.5403,-5.5403,-5.5403,-5.5365,-5.4868,-5.4639,0.0,-5.3569,-5.2957,0.0,0.0,0.0,-5.1276,-5.0971,-5.0588,0.0,0.0,0.0,0.0,0.0,0.0,-5.0283,-5.0283,-5.0283,-5.0283,-5.0283,0.0,0.0,-5.0283,-5.0703,-5.1276,0.0,0.0,0.0,0.0,0.0,0.0,0.0,0.0,0.0,0.0,0.0,0.0,0.0,0.0,0.0,0.0,0.0,0.0,0.0,-5.8689,-5.9491,-6.0346,-6.0422,-6.0422,-6.0422,-6.0422,-6.0422,-6.0422,-6.0422,-6.0422,-6.0422,-6.0422,-6.0828,-6.1631,-6.251,-6.3388,-6.4244,-6.5031,-6.5413,-6.5413,-6.5413,-6.5413,-6.5413,-6.5413,-6.5413,-6.5413,-6.5413,-6.5413,-6.5413,0.0,-5.264,-5.2649,-5.2725,-5.2733,-5.2993,-5.3491,-5.3626,-5.3941,0.0,-5.4836,-5.4976,-5.5183,-5.5181,-5.5168,-5.5183,-5.5326,-5.539,-5.539,-5.539,-5.5403,-5.5403,-5.5403,-5.5403,-5.5403,-5.4639,-5.4639,-5.5403,-5.4639,-5.4639,-5.5403,-5.5403,-5.5403,-5.5403,-5.5403,-5.5403,-5.5403,-5.5403,-5.5403,-5.5403,-5.5403,-5.5403,0.0,0.0,-5.4791,-5.4104,-5.3989,-5.3454,-5.269,-5.1964,-5.1238,0.0,0.0,0.0,0.0,0.0,-5.0397,-5.0283,-5.0283,-5.0283,-5.0283,0.0,-5.0283,0.0,-5.0283,-5.0283,-5.055,0.0,0.0,0.0,0.0,0.0,0.0,0.0,0.0,0.0,0.0,0.0,0.0,0.0,0.0,0.0,0.0,0.0,-5.6511,-5.6587,-5.8154,-5.9491,-6.0346,-6.0422,-6.0422,-6.0422,-6.0422,-6.0422,-6.0422,-6.0422,-6.0422,-6.0422,-6.0422,-6.0752,-6.1516,-6.2357,-6.3236,-6.4076,-6.4917,-6.5337,-6.5413,-6.5413,-6.5413,-6.5413,-6.5413,-6.5413,-6.5413,-6.5413,-6.5413,-6.5413,-5.339,-5.345,-5.345,-5.3469,-5.3739,-5.4034,-5.4141,-5.4413,-5.4723,-5.5004,-5.5168,-5.53,-5.5377,-5.5364,-5.53,-5.5197,-5.5326,-5.5339,-5.5248,-5.5339,-5.5403,-5.5403,-5.5403,-5.5403,-5.5403,-5.525,-5.525,-5.5403,-5.525,-5.525,-5.5403,-5.5403,-5.5403,-5.5403,-5.5403,-5.5403,-5.5403,-5.5403,0.0,-5.5403,-5.5403,0.0,-5.5326,-5.4639,-5.4256,-5.4027,-5.3301,-5.2919,-5.2766,-5.2614,-5.2461,-5.2308,0.0,0.0,0.0,-5.1353,0.0,0.0,0.0,0.0,0.0,0.0,0.0,0.0,-5.0283,-5.0283,-5.055,0.0,0.0,0.0,0.0,0.0,0.0,0.0,0.0,0.0,0.0,0.0,0.0,0.0,0.0,0.0,0.0,0.0,-5.5899,-5.6549,-5.8154,-5.9491,-6.0346,-6.0422,-6.0422,-6.0422,-6.0422,-6.0422,-6.0422,-6.0422,-6.0422,-6.0422,-6.0422,-6.0499,-6.0637,-6.1478,-6.2319,-6.3197,-6.4038,-6.4802,-6.5413,-6.5413,-6.5413,-6.5413,-6.5413,-6.5413,-6.5413,-6.5413,-6.5413,-6.5413,-5.368,-5.3702,-5.3702,-5.3702,-5.3888,-5.405,-5.4088,-5.4279,-5.4565,-5.4814,-5.5085,-5.5273,-5.5313,-5.5313,-5.5313,-5.5313,-5.5339,-5.539,-5.5313,-5.5339,-5.5403,-5.5403,-5.5403,-5.5403,-5.5403,-5.5403,-5.5403,-5.5403,-5.5403,-5.5403,-5.5403,-5.5403,-5.5403,-5.5403,-5.5403,-5.5403,-5.5403,-5.5403,-5.5403,-5.5403,-5.5403,0.0,-5.5365,-5.4906,-5.4753,-5.4677,-5.4256,-5.3836,-5.3454,-5.3454,-5.3148,0.0,0.0,-5.2499,-5.2193,0.0,-5.162,-5.0971,0.0,0.0,0.0,-5.0283,0.0,0.0,0.0,-5.0283,-5.0436,0.0,0.0,0.0,0.0,0.0,0.0,0.0,0.0,0.0,0.0,0.0,0.0,0.0,0.0,0.0,0.0,0.0,-5.5747,-5.6549,-5.7772,-5.888,-5.972,-6.0141,-6.0422,-6.0422,-6.0422,-6.0422,-6.0422,-6.0422,-6.0422,-6.0422,-6.0422,-6.0422,-6.0422,-6.1211,-6.186,-6.2319,-6.3618,-6.442,-6.484,-6.5222,-6.5413,-6.5413,-6.5413,-6.5413,-6.5413,-6.5413,-6.5413,-6.5413,-5.3833,-5.3709,-5.3654,-5.3604,-5.3702,-5.3796,-5.3833,-5.398,-5.4193,-5.4528,-5.4844,-5.5061,-5.5235,-5.5235,-5.5248,-5.5339,-5.539,-5.539,-5.5339,-5.539,-5.5403,-5.5403,-5.5403,-5.5403,-5.5403,-5.5403,-5.5403,-5.5403,-5.5403,-5.5403,-5.5403,-5.5403,-5.5403,-5.5403,-5.5403,-5.5403,-5.5403,-5.5403,0.0,-5.5403,0.0,-5.5403,-5.5403,-5.5403,-5.5403,-5.5403,-5.5403,-5.4944,-5.4333,-5.4333,-5.3874,-5.3301,-5.3301,-5.3187,0.0,0.0,0.0,0.0,0.0,0.0,0.0,0.0,0.0,-5.055,0.0,0.0,0.0,0.0,0.0,0.0,0.0,0.0,0.0,0.0,0.0,0.0,0.0,0.0,0.0,0.0,0.0,0.0,0.0,0.0,-5.5747,-5.6549,-5.739,-5.8268,-5.9057,-5.9911,-6.0422,-6.0422,-6.0422,-6.0422,-6.0422,-6.0422,-6.0422,-6.0422,-6.0422,-6.0422,-6.0408,-6.1058,-6.144,-6.1707,-6.3274,-6.4038,-6.4282,-6.507,-6.5413,-6.5413,-6.5413,-6.5413,-6.5413,-6.5413,-6.5413,-6.5413,-5.4054,-5.3694,-5.3577,-5.3246,-5.345,-5.372,-5.372,-5.4052,-5.433,-5.449,-5.467,-5.4903,-5.5313,-5.5261,-5.5197,-5.5235,-5.5326,-5.5339,-5.5248,-5.5326,-5.5403,-5.5403,-5.5403,-5.5403,-5.5403,-5.5403,-5.5403,-5.5403,-5.5403,-5.5403,-5.5403,-5.5403,-5.5403,-5.5403,-5.5403,-5.5403,-5.5403,0.0,-5.5403,0.0,-5.5403,-5.5403,0.0,-5.5403,-5.5403,-5.5403,-5.5403,-5.5326,-5.525,0.0,-5.5212,-5.5097,0.0,-5.4562,-5.3951,-5.3951,0.0,0.0,0.0,0.0,0.0,0.0,-5.1964,0.0,0.0,0.0,0.0,0.0,0.0,0.0,0.0,0.0,0.0,0.0,0.0,0.0,0.0,0.0,0.0,0.0,0.0,0.0,0.0,0.0,0.0,-5.6549,-5.739,-5.8268,-5.9057,-5.9911,-6.0422,-6.0422,-6.0422,-6.0422,-6.0422,-6.0422,-6.0422,-6.0422,-6.0422,-6.0422,-6.0422,-6.0499,-6.0943,-6.1669,-6.2624,-6.3503,-6.4282,-6.507,-6.5413,-6.5413,-6.5413,-6.5413,-6.5413,-6.5413,-6.5413,-6.5413,-5.5339,-5.4706,-5.4328,-5.4166,-5.3998,-5.3851,-5.3814,-5.4178,-5.45,-5.4707,-5.4814,-5.4971,-5.5165,-5.5195,-5.5197,-5.5197,0.0,-5.539,0.0,0.0,-5.5326,-5.539,-5.5286,-5.5222,-5.5261,-5.526,-5.5222,-5.5275,-5.5275,-5.5326,-5.5403,-5.5403,-5.5403,-5.5403,-5.5403,0.0,-5.5403,0.0,-5.5403,0.0,0.0,0.0,0.0,-5.5403,-5.5403,-5.5403,-5.5403,-5.5403,-5.5403,0.0,-5.5403,0.0,0.0,0.0,0.0,0.0,0.0,0.0,0.0,0.0,0.0,0.0,0.0,0.0,-5.2308,0.0,-5.162,0.0,0.0,0.0,0.0,0.0,0.0,0.0,0.0,0.0,0.0,0.0,0.0,0.0,0.0,0.0,0.0,0.0,0.0,0.0,0.0,-5.8039,-5.8383,-5.9682,-6.0422,-6.0422,-6.0422,-6.0422,-6.0422,-6.0422,-6.0422,-6.0422,-6.0422,-6.0422,-6.0422,-6.0422,-6.0561,-6.0943,-6.1784,-6.2624,-6.3503,-6.4344,-6.4993,-6.5413,-6.5413,-6.5413,-6.5413,-6.5413,-6.5413,-6.5413,-5.6515,-5.5681,-5.5047,-5.4907,-5.4447,-5.407,-5.4035,-5.4196,-5.4434,-5.4745,-5.4852,-5.4988,-5.523,-5.5227,0.0,0.0,-5.5401,-5.5403,0.0,0.0,-5.5313,0.0,0.0,0.0,-5.5248,-5.5208,-5.5208,-5.5261,-5.5261,-5.5313,-5.5403,-5.5403,-5.5403,-5.5403,-5.5403,-5.5403,-5.5403,0.0,-5.5403,-5.5403,-5.5403,-5.5403,-5.5403,-5.5403,-5.5403,-5.5403,-5.5403,-5.5403,-5.5403,-5.5403,-5.5403,0.0,-5.5403,0.0,0.0,0.0,0.0,0.0,-5.4448,0.0,0.0,0.0,0.0,0.0,0.0,0.0,0.0,0.0,0.0,0.0,0.0,0.0,0.0,0.0,0.0,0.0,0.0,0.0,0.0,0.0,0.0,0.0,0.0,0.0,0.0,0.0,-5.674,0.0,-5.7886,-5.9262,-6.0141,-6.0384,-6.0422,-6.0422,-6.0422,-6.0422,-6.0422,-6.0422,-6.0422,-6.0422,-6.0422,-6.0422,-6.0422,-6.046,-6.1249,-6.2089,-6.2968,-6.3847,-6.4649,-6.5413,-6.5413,-6.5413,-6.5413,-6.5413,-6.5413,-6.5413,-5.7166,-5.628,-5.5374,-5.4959,-5.4557,-5.4279,-5.4279,-5.4089,-5.4016,-5.4359,0.0,0.0,0.0,0.0,0.0,0.0,0.0,-5.5403,-5.5403,0.0,-5.539,0.0,0.0,-5.539,0.0,-5.539,-5.539,-5.539,-5.539,-5.539,-5.5403,-5.5403,-5.5403,-5.5403,-5.5403,-5.5403,-5.5403,-5.5403,-5.5403,-5.5403,-5.5403,-5.5403,-5.5403,0.0,-5.5403,-5.5403,-5.5403,0.0,0.0,-5.5403,-5.5403,0.0,0.0,0.0,0.0,0.0,0.0,0.0,0.0,0.0,0.0,-5.5326,0.0,0.0,0.0,0.0,-5.2805,0.0,0.0,0.0,0.0,0.0,-5.2487,-5.1749,0.0,0.0,0.0,0.0,0.0,0.0,0.0,0.0,0.0,0.0,0.0,-5.5403,-5.6167,-5.7008,-5.7848,-5.8689,-5.9529,-6.037,-6.0422,-6.0422,-6.0422,-6.0422,-6.0422,-6.0422,-6.0422,-6.0422,-6.0422,-6.0422,-6.0422,-6.046,-6.1249,-6.2089,-6.2968,-6.3847,-6.4649,-6.5413,-6.5413,-6.5413,-6.5413,-6.5413,-6.5413,-6.5413,-5.7188,-5.6708,-5.6088,-5.5417,-5.4549,-5.3896,-5.3737,-5.387,-5.4293,0.0,0.0,0.0,0.0,-5.6954,-5.6986,0.0,0.0,-5.7046,-5.7046,-5.7006,0.0,0.0,0.0,-5.5818,0.0,0.0,0.0,-5.5261,-5.5261,-5.5181,-5.5004,-5.5273,-5.526,-5.5004,-5.5273,-5.5403,0.0,0.0,0.0,0.0,0.0,-5.6205,-5.6129,0.0,0.0,-5.5403,-5.5403,-5.5403,0.0,-5.5403,-5.5403,-5.5403,-5.5403,-5.5403,-5.5403,-5.5403,-5.5403,0.0,0.0,0.0,-5.5403,-5.5403,0.0,0.0,0.0,0.0,0.0,0.0,0.0,0.0,0.0,0.0,-5.3186,-5.2681,-5.3412,0.0,0.0,0.0,0.0,0.0,0.0,0.0,0.0,0.0,0.0,-5.5403,-5.6129,-5.6969,0.0,-5.8651,-5.9491,-6.037,-6.0422,-6.0422,-6.0422,-6.0422,-6.0422,-6.0422,-6.0422,-6.0676,-6.1172,-6.0637,-6.0676,-6.1172,-6.0905,-6.1133,-6.1695,-6.2569,-6.3272,-6.3781,-6.433,-6.4538,-6.4612,-6.5166,-6.5236,-6.5002,-5.7188,-5.7037,-5.6679,-5.6057,-5.4957,-5.4127,-5.3984,-5.4317,0.0,0.0,-5.6581,0.0,-5.781,0.0,-5.7825,0.0,-5.7957,-5.7886,-5.7886,-5.7846,0.0,-5.7084,-5.6965,0.0,0.0,0.0,0.0,0.0,0.0,-5.5075,-5.4806,-5.5219,-5.5206,-5.4806,0.0,-5.5403,-5.5403,-5.5403,-5.5556,0.0,0.0,-5.7046,0.0,0.0,-5.6282,-5.6282,0.0,-5.6282,-5.6243,-5.5938,-5.5823,-5.5785,-5.5479,-5.5403,-5.5403,-5.5403,-5.5403,-5.5403,-5.5403,-5.5403,0.0,0.0,-5.5403,0.0,-5.5403,0.0,0.0,0.0,0.0,0.0,0.0,0.0,0.0,-5.3959,-5.4236,-5.4397,0.0,-5.3998,0.0,0.0,0.0,0.0,0.0,0.0,-5.5403,-5.5403,-5.5861,-5.6664,0.0,0.0,-5.9185,-6.0384,-6.0422,-6.0422,-6.0422,-6.0422,-6.0422,-6.0422,-6.0676,-6.1096,-6.1593,-6.1058,-6.1039,-6.1355,-6.0555,-6.0447,-6.0873,-6.1725,-6.2428,-6.2972,-6.3796,-6.4096,-6.4156,-6.4719,-6.4792,-6.4557,-5.7188,-5.7188,-5.7084,-5.6736,-5.5713,0.0,0.0,0.0,-5.6065,0.0,-5.7384,-5.7893,-5.8457,-5.8098,-5.8034,-5.8568,-5.8254,-5.8001,-5.8001,-5.8001,0.0,0.0,-5.7963,-5.7542,-5.6664,0.0,0.0,0.0,0.0,0.0,-5.4791,-5.5181,-5.5168,-5.4806,-5.5233,0.0,-5.5479,-5.5479,-5.5938,-5.674,-5.7619,-5.7963,-5.7963,-5.8001,0.0,-5.8001,-5.7925,-5.7886,-5.7772,-5.6931,-5.6677,-5.6511,-5.5747,-5.5479,-5.5479,-5.5479,-5.5441,-5.5403,-5.5403,-5.5403,-5.5403,-5.5403,0.0,0.0,0.0,0.0,-5.5403,0.0,0.0,0.0,0.0,0.0,0.0,-5.5403,-5.5071,-5.4806,0.0,0.0,0.0,0.0,0.0,0.0,0.0,-5.539,-5.5403,-5.5403,-5.5403,-5.6129,0.0,0.0,0.0,-6.0346,-6.0422,-6.0422,-6.0422,-6.0422,-6.0422,-6.0422,-6.1211,-6.1631,-6.1669,-6.1655,-6.1439,-6.1022,-6.0172,-6.0045,-6.0454,-6.1261,-6.2067,-6.2855,-6.3661,-6.3998,-6.4036,-6.4056,-6.4076,-6.4156,-5.7188,-5.7188,-5.6985,0.0,-5.5984,-5.576,0.0,0.0,0.0,0.0,-5.8471,-5.9026,-5.9822,-5.9765,-5.9755,-5.9889,-5.9831,0.0,0.0,0.0,0.0,-5.8842,-5.8803,-5.8421,-5.7581,-5.7567,0.0,-5.6202,0.0,0.0,-5.4676,-5.5047,-5.5061,-5.4746,0.0,-5.5747,-5.6282,-5.6282,-5.6778,-5.7619,-5.8459,-5.8803,0.0,0.0,-5.9759,-5.9606,-5.8345,-5.7886,-5.7886,-5.7619,-5.7581,-5.7542,-5.7313,-5.6816,-5.6282,-5.6282,-5.5861,-5.5403,-5.5403,-5.5403,-5.5403,-5.5403,-5.5403,-5.5403,0.0,0.0,0.0,0.0,0.0,0.0,0.0,0.0,0.0,0.0,-5.5071,0.0,0.0,0.0,0.0,0.0,0.0,0.0,0.0,-5.5233,-5.5403,-5.5403,-5.5403,0.0,0.0,0.0,0.0,-6.0346,-6.0422,-6.0422,-6.0422,-6.0422,-6.0422,-6.0422,-6.1211,-6.1936,-6.2571,-6.2252,-6.2053,-6.1894,-6.0767,-5.9815,-5.9143,-5.9942,-6.0608,-6.1112,-6.1925,-6.2604,-6.3168,-6.3535,-6.3846,-6.4116,-5.7188,-5.7188,0.0,-5.6609,0.0,0.0,-5.6325,0.0,0.0,-5.8927,-5.9361,0.0,-6.0332,-6.038,-6.038,-6.0408,-6.0422,0.0,-6.0422,0.0,0.0,-5.9682,-5.9682,-5.93,-5.8459,-5.8394,0.0,-5.7107,0.0,0.0,-5.5798,-5.6193,-5.6193,-5.5875,0.0,-5.674,-5.7199,-5.7542,-5.7963,-5.8498,-5.9338,0.0,0.0,-6.0217,-6.0422,-6.0255,-5.9338,-5.8994,-5.8918,-5.8536,-5.8421,-5.8345,-5.8001,-5.7542,-5.7084,-5.6702,-5.6282,-5.5861,-5.5517,-5.5403,-5.5403,-5.5403,-5.5403,-5.5403,-5.5403,-5.5403,-5.5403,0.0,0.0,0.0,0.0,0.0,0.0,0.0,0.0,0.0,0.0,0.0,0.0,0.0,0.0,0.0,0.0,0.0,-5.5403,0.0,0.0,0.0,0.0,0.0,0.0,-6.0346,-6.0422,-6.0422,-6.0422,-6.0422,-6.0422,-6.0422,-6.1593,-6.2322,-6.2626,-6.2774,-6.244,-6.1714,-6.0618,-5.9434,-5.84,-5.9191,-5.9882,-6.0529,-6.1667,-6.2401,-6.283,-6.3086,-6.3331,-6.3587,-5.7188,-5.7188,0.0,0.0,0.0,0.0,0.0,-5.809,0.0,-5.9625,0.0,-6.0323,-6.0408,-6.0352,-6.0337,-6.037,0.0,-6.0422,-6.0422,-6.0422,-6.0422,-6.0422,-6.0422,-6.0064,-5.93,-5.9206,0.0,0.0,0.0,0.0,-5.737,-5.7711,-5.7696,0.0,0.0,0.0,0.0,-5.8918,-5.9262,-5.9338,-6.0102,-6.0422,-6.0422,-6.0422,-6.0422,-6.0422,-6.0422,-6.0422,-6.0255,-5.9529,-5.9262,-5.9147,-5.8459,-5.8154,-5.7925,-5.716,-5.6855,-5.6587,-5.5785,-5.5556,-5.5517,-5.5441,-5.5403,-5.5403,-5.5403,-5.5403,-5.5403,-5.5403,-5.5403,0.0,0.0,0.0,0.0,0.0,0.0,0.0,0.0,0.0,0.0,0.0,0.0,0.0,0.0,0.0,0.0,0.0,0.0,0.0,0.0,0.0,0.0,0.0,-6.0422,0.0,-6.0422,0.0,-6.0422,-6.0408,-6.2046,-6.2626,-6.2332,-6.3136,-6.2615,-6.1038,-6.0231,-5.9154,-5.8033,-5.8767,-5.9575,-6.0566,-6.2181,-6.278,-6.278,-6.278,-6.278,-6.2929,-5.7188,0.0,0.0,0.0,0.0,-5.9022,-6.0039,-5.9966,-5.9893,-6.0217,-6.0294,-6.0323,-6.0408,-6.0408,-6.0394,-6.0408,-6.0422,0.0,0.0,0.0,0.0,-6.0422,-6.0422,-6.0332,-6.0179,-6.0179,-5.9731,0.0,0.0,0.0,-5.7558,-5.7749,0.0,0.0,0.0,0.0,-5.8956,-5.9797,0.0,-6.0179,-6.0346,-6.0422,-6.0422,-6.0422,-6.0422,-6.0422,-6.0422,-6.0422,-6.037,-6.0217,-6.0179,-6.0141,-6.0002,-5.9453,-5.888,-5.8727,-5.8192,-5.7466,-5.6625,-5.6396,-5.6243,-5.5556,-5.5403,-5.5403,-5.5403,-5.5403,-5.5403,-5.5403,-5.5403,-5.5403,-5.5403,0.0,0.0,0.0,0.0,0.0,0.0,0.0,0.0,0.0,0.0,0.0,0.0,0.0,0.0,0.0,0.0,0.0,0.0,0.0,0.0,0.0,0.0,0.0,0.0,0.0,0.0,-6.0408,-6.1764,-6.2362,-6.2315,-6.3133,-6.2603,-6.1076,-6.054,-5.9425,-5.7997,-5.8143,-5.9098,-6.0566,-6.2181,-6.278,-6.278,-6.278,-6.278,-6.288,0.0,0.0,0.0,0.0,0.0,0.0,0.0,-5.9938,0.0,-6.0356,-6.038,-6.0366,-6.0408,-6.0422,-6.0422,-6.0422,-6.0422,-6.0422,-6.0422,-6.0422,-6.0422,-6.0422,-6.0422,0.0,-6.0422,-6.0422,-6.0165,-5.9717,0.0,0.0,-5.905,-5.9073,0.0,-5.9144,0.0,-5.9415,0.0,0.0,0.0,-6.0422,-6.0422,-6.0422,-6.0422,-6.0422,-6.0422,-6.0422,-6.0422,-6.0422,-6.0422,-6.0422,-6.0422,-6.0422,-6.0422,-6.0102,-5.9682,-5.9224,-5.8842,-5.8345,-5.7504,-5.7275,-5.7084,-5.6243,-5.6014,-5.5899,-5.5517,-5.5403,-5.5403,-5.5403,-5.5403,-5.5403,-5.5403,-5.5233,0.0,0.0,0.0,0.0,0.0,0.0,0.0,0.0,0.0,0.0,0.0,0.0,0.0,0.0,0.0,0.0,0.0,0.0,0.0,0.0,0.0,0.0,0.0,0.0,0.0,-6.073,-6.1771,-6.2273,-6.2291,-6.3131,-6.2464,-6.0734,-6.0478,-5.9501,-5.807,-5.8914,-5.9722,-6.0566,-6.2181,-6.278,-6.278,-6.278,-6.2941,-6.3205,0.0,-5.8604,0.0,0.0,-5.9173,0.0,-5.8896,-5.9528,-6.0106,-6.0256,-6.0328,-6.0432,-6.0637,-6.0637,-6.0637,-6.0637,-6.0637,-6.0561,-6.0422,-6.0422,-6.0422,-6.0422,-6.0422,-6.0499,-6.0637,-6.0499,-6.0499,0.0,0.0,0.0,0.0,0.0,0.0,0.0,0.0,0.0,0.0,0.0,-6.0422,-6.0422,-6.0422,-6.0422,-6.0422,-6.0422,-6.0422,-6.0422,-6.0422,-6.0422,-6.0422,-6.0422,-6.0422,-6.0422,-6.0422,-6.0422,-6.0255,-5.9568,-5.9376,-5.9185,-5.8383,-5.8154,-5.7963,-5.7084,-5.674,-5.6434,-5.5785,-5.5517,-5.5403,-5.5403,-5.5403,-5.5403,-5.5403,-5.514,0.0,0.0,0.0,0.0,0.0,0.0,0.0,0.0,0.0,0.0,0.0,0.0,0.0,0.0,0.0,0.0,0.0,0.0,0.0,0.0,0.0,0.0,-6.0408,0.0,-6.0189,0.0,-6.1722,-6.2087,-6.2235,-6.3006,-6.2271,-6.0419,-6.0419,-5.9501,-5.8107,-5.9758,-6.0419,-6.0566,-6.2181,-6.278,-6.278,-6.278,-6.3014,-6.3331,0.0,0.0,0.0,0.0,0.0,0.0,0.0,-5.9666,-5.9381,-5.9809,-6.0137,-6.059,-6.1387,-6.1478,-6.1478,-6.1478,-6.1478,-6.1172,-6.046,-6.0422,-6.0422,-6.0422,-6.0422,-6.0752,-6.1478,-6.0752,-6.0752,0.0,0.0,0.0,0.0,0.0,0.0,0.0,0.0,0.0,0.0,-6.0422,-6.0422,-6.0422,-6.0422,-6.0422,-6.0422,-6.0422,-6.0422,-6.0422,-6.0422,-6.0422,-6.0422,-6.0422,-6.0422,-6.0422,-6.0422,-6.0422,-6.037,-6.0307,-6.0255,-6.0102,-5.9224,-5.8994,-5.8803,-5.7963,-5.716,-5.6587,-5.6511,-5.5938,-5.5403,-5.5403,-5.5403,-5.5403,-5.5403,-5.5377,-5.5246,0.0,0.0,0.0,0.0,0.0,0.0,0.0,0.0,0.0,0.0,0.0,0.0,0.0,0.0,0.0,0.0,0.0,0.0,-6.037,0.0,-6.0356,-6.0422,-5.9984,0.0,-6.0989,-6.1067,-6.149,-6.2235,-6.2669,-6.1973,-6.0419,-6.0419,-5.9501,-5.8107,-5.9758,-6.0419,-6.0566,-6.2181,-6.278,-6.278,-6.278,-6.283,-6.288,0.0,0.0,0.0,0.0,0.0,0.0,0.0,-6.0987,-6.1375,-6.1304,-6.0969,-6.1149,-6.2251,-6.2395,-6.2269,-6.2031,-6.2239,-6.2154,-6.1574,-6.13,-6.1134,-6.1134,-6.0637,-6.0561,-6.0867,-6.1019,-6.1019,0.0,0.0,0.0,0.0,0.0,0.0,0.0,0.0,-6.0422,-6.0422,-6.0422,-6.0422,-6.0422,-6.0422,-6.0422,-6.0422,-6.0422,-6.0422,-6.0422,-6.0422,-6.0422,-6.0422,-6.0422,-6.0422,-6.0422,-6.0422,-6.0422,-6.0422,-6.0422,-6.0422,-6.0332,-5.995,-5.9873,-5.9682,-5.8842,-5.8345,-5.7963,-5.7504,-5.674,-5.6129,-5.6129,-5.5747,-5.5403,-5.5403,-5.5042,-5.4769,0.0,0.0,0.0,0.0,0.0,0.0,0.0,0.0,0.0,0.0,0.0,0.0,0.0,0.0,0.0,0.0,0.0,0.0,-6.037,0.0,-5.9809,-6.0053,-5.9622,-5.9964,-6.1012,-6.1002,-6.1567,-6.2559,-6.2733,-6.1924,-6.0382,-5.9905,-5.9061,-5.8107,-5.9758,-6.0419,-6.0566,-6.2181,-6.278,-6.278,-6.278,-6.278,-6.278,-5.9909,0.0,-6.0732,0.0,-6.1245,-6.1468,-6.0923,-6.1809,-6.2569,-6.2665,-6.2138,-6.2157,-6.3168,-6.3274,-6.3184,-6.2857,-6.3101,-6.3055,-6.2515,-6.2186,-6.186,-6.1593,-6.1058,0.0,-6.0752,-6.1325,-6.144,-6.1134,-6.1635,0.0,0.0,0.0,0.0,0.0,-6.0422,-6.0422,-6.0422,-6.0422,-6.0422,-6.0422,-6.0422,-6.0422,-6.0422,-6.0422,-6.0422,-6.0422,-6.0422,-6.0422,-6.0422,-6.0422,-6.0422,-6.0422,-6.0422,-6.0422,-6.0422,-6.0422,-6.0422,-6.0422,-6.0422,-6.0422,-6.0255,-5.9644,-5.93,-5.8956,-5.8383,-5.7581,-5.6969,-5.6969,-5.6254,-5.5628,-5.5628,-5.489,-5.433,0.0,0.0,0.0,0.0,0.0,0.0,0.0,-5.4538,-5.4842,-5.5283,0.0,0.0,0.0,0.0,0.0,0.0,0.0,0.0,0.0,0.0,0.0,0.0,0.0,-6.0035,-6.1017,-6.1145,-6.1744,-6.278,-6.2585,-6.1704,-6.0382,-5.9551,-5.8854,-5.8474,-5.9832,-6.0529,-6.0896,-6.223,-6.278,-6.278,-6.278,-6.278,-6.278,-5.9557,-6.0142,-6.0755,-6.1563,-6.1676,-6.1713,-6.1713,-6.1713,-6.2165,-6.3393,-6.3558,-6.3731,-6.4123,-6.4167,-6.4167,-6.4191,-6.4191,-6.3809,-6.2953,-6.2877,-6.251,0.0,0.0,-6.1593,-6.1593,-6.1593,-6.2013,-6.2892,0.0,0.0,-6.027,0.0,0.0,-6.0422,-6.0422,-6.0422,-6.0422,-6.0422,-6.0422,-6.0422,-6.0422,-6.0422,-6.0422,-6.0422,-6.0422,-6.0422,-6.0422,-6.0422,-6.0422,-6.0422,-6.0422,-6.0422,-6.0422,-6.0422,-6.0422,-6.0422,-6.0422,-6.0422,-6.0422,-6.0422,-6.0422,-6.0384,-5.9759,-5.9095,-5.9095,-5.8459,-5.7886,-5.7886,-5.694,-5.6088,-5.6088,-5.5109,-5.4176,-5.3777,0.0,0.0,0.0,0.0,0.0,0.0,-5.4346,-5.4554,-5.485,0.0,0.0,0.0,0.0,0.0,0.0,0.0,0.0,-5.9809,-5.9809,0.0,-5.9809,-6.0188,-6.0596,-6.1017,-6.1392,-6.1998,-6.2743,-6.1998,-6.1153,-6.0382,-5.9551,-5.9184,-5.9258,-6.0052,-6.086,-6.1667,-6.2475,-6.278,-6.278,-6.278,-6.278,-6.278,-6.13,-6.1615,-6.1885,-6.2439,-6.3019,-6.34,-6.34,-6.3856,-6.4383,-6.4762,-6.4816,-6.4886,-6.4993,-6.5031,-6.4901,0.0,-6.487,-6.4787,0.0,-6.3955,-6.3656,-6.3388,-6.2815,-6.2204,-6.1593,-6.2166,-6.2319,-6.2013,0.0,0.0,0.0,-6.1793,-6.1488,-6.1211,-6.1211,-6.0905,-6.0422,-6.0422,-6.0422,-6.0422,-6.0422,-6.0422,-6.0422,-6.0422,-6.0422,-6.0422,-6.0422,-6.0422,-6.0422,-6.0422,-6.0422,-6.0422,-6.0422,-6.0422,-6.0422,-6.0422,-6.0422,-6.0422,-6.0422,-6.0422,-6.0422,-6.0422,-6.0179,-5.9988,-5.9988,-5.9338,-5.8467,-5.7642,-5.718,-5.6851,-5.6568,-5.5993,-5.549,-5.5354,0.0,0.0,0.0,0.0,0.0,0.0,0.0,-5.5739,0.0,-5.6433,0.0,0.0,0.0,0.0,0.0,0.0,0.0,0.0,-5.9289,0.0,-5.9397,-5.9773,-6.0178,-6.0619,-6.1263,-6.2034,-6.2743,-6.1961,-6.1153,-6.0382,-5.9551,-5.9184,-5.9258,-6.0089,-6.086,-6.1667,-6.2511,-6.278,-6.278,-6.278,-6.278,-6.278,-6.2088,-6.2556,-6.2931,-6.3502,-6.4192,-6.4649,-6.4649,-6.507,-6.5413,-6.5413,-6.5413,-6.5413,-6.5413,-6.5413,0.0,-6.5052,-6.5267,-6.5283,-6.5035,-6.4771,-6.4496,-6.4206,-6.3694,-6.2968,-6.2128,0.0,0.0,-6.2089,-6.2624,-6.3083,-6.3388,-6.3045,-6.2624,-6.2089,-6.2089,-6.1822,-6.1325,-6.0981,-6.0828,-6.0828,-6.0523,-6.0422,-6.0422,-6.0422,-6.0422,-6.0422,-6.0422,-6.0422,-6.0422,-6.0422,-6.0422,-6.0422,-6.0422,-6.0422,-6.0422,-6.0422,-6.0422,-6.0422,-6.0422,-6.0422,-6.0422,-6.0422,-6.0422,-6.0422,-6.0422,-5.9865,-5.9147,-5.8401,-5.7763,-5.7278,-5.6987,-5.6397,-5.5928,-5.5928,0.0,-5.5507,0.0,0.0,0.0,0.0,0.0,0.0,0.0,-5.6942,0.0,0.0,0.0,0.0,0.0,0.0,0.0,-5.9251,-5.8773,0.0,-5.9417,-5.9976,-6.0441,-6.086,-6.1667,-6.2303,-6.2693,-6.1936,-6.1129,-6.0274,-5.9551,-5.9368,-5.9685,-6.0199,-6.1043,-6.2108,-6.2622,-6.278,-6.278,-6.278,-6.278,-6.278,-6.2227,-6.3008,0.0,0.0,-6.5101,0.0,-6.5413,-6.5413,-6.5413,-6.5413,-6.5413,-6.5413,-6.5413,-6.5413,-6.5413,-6.5413,0.0,0.0,0.0,-6.5413,-6.507,-6.432,-6.4282,0.0,-6.3006,-6.3006,-6.2968,-6.2892,-6.2968,-6.3388,-6.4091,-6.3274,-6.2892,-6.2892,-6.2853,-6.2815,-6.2739,-6.1898,-6.1516,-6.144,-6.0714,-6.0422,-6.0422,-6.0422,-6.0422,-6.0422,-6.0422,-6.0422,-6.0422,-6.0422,-6.0422,-6.0422,-6.0422,-6.0422,-6.0422,-6.0422,-6.0422,-6.0422,-6.0422,-6.0422,-6.0422,-6.0422,-6.0422,-6.037,-6.0356,-6.0084,-5.9755,-5.9744,-5.8521,-5.7472,-5.7452,-5.6541,-5.5757,-5.5757,-5.5668,-5.5578,-5.5578,0.0,0.0,0.0,0.0,0.0,0.0,-5.7145,-5.7607,0.0,0.0,0.0,0.0,0.0,-5.8338,-5.8402,-5.836,-5.881,-5.9791,-6.0565,-6.1172,-6.1643,-6.2413,-6.2705,-6.2567,-6.1813,-6.1043,-6.0152,-5.9504,-5.9685,-6.0419,-6.0456,-6.141,-6.278,-6.278,-6.278,-6.278,-6.278,-6.278,-6.278,0.0,0.0,-6.3787,-6.4648,-6.49,-6.5052,-6.5345,-6.5413,-6.5413,-6.5413,-6.5413,-6.5413,-6.5413,-6.5413,-6.5413,-6.5413,-6.5413,-6.5413,-6.5413,-6.5413,-6.5299,-6.5108,-6.5108,-6.4726,-6.3923,-6.3885,-6.3579,-6.2892,-6.3579,-6.3656,-6.3197,-6.3006,-6.2892,-6.2892,-6.2204,-6.1898,-6.186,-6.1019,-6.0676,-6.0676,-6.0499,-6.0422,-6.0422,-6.0422,-6.0422,-6.0422,-6.0422,-6.0422,-6.0422,-6.0422,-6.0422,-6.0422,-6.0422,-6.0422,-6.0422,-6.0422,-6.0422,-6.0422,-6.0422,-6.0422,-6.0422,-6.0422,-6.0422,-6.0313,-6.0,-5.9874,-5.9622,-5.8989,-5.8601,-5.8243,-5.7914,-5.7519,-5.7294,-5.7446,-5.7225,-5.7107,-5.7225,0.0,0.0,0.0,-5.7242,-5.7352,-5.7328,-5.7473,-5.7713,0.0,0.0,0.0,0.0,0.0,-5.7863,-5.8381,-5.8194,-5.8644,-5.9791,-6.0199,-6.0982,-6.2219,-6.2402,-6.2475,-6.2412,-6.1115,-6.0396,-6.0152,-5.9504,-5.9685,-6.0456,-6.1043,-6.1887,-6.278,-6.278,-6.278,-6.278,-6.278,-6.278,-6.278,-6.3134,-6.3354,-6.3668,-6.4114,-6.435,-6.4612,-6.5052,-6.5117,-6.5204,-6.5398,-6.5413,-6.5413,-6.5413,-6.5413,-6.5413,-6.5413,-6.5413,-6.5413,-6.5413,-6.5413,-6.5413,-6.5413,-6.5413,-6.5184,-6.4764,-6.4382,-6.3976,-6.3503,-6.3976,-6.3962,-6.3503,-6.3503,-6.3274,-6.2892,-6.2433,-6.2204,-6.2128,-6.1287,-6.0943,-6.0905,-6.0561,-6.0422,-6.0422,-6.0422,-6.0422,-6.0422,-6.0422,-6.0422,-6.0422,-6.0422,-6.0422,-6.0422,-6.0422,-6.0422,-6.0422,-6.0422,-6.0422,-6.0422,-6.0422,-6.027,-6.0084,-5.989,-5.9858,-5.9809,-5.9571,-5.9397,-5.9103,-5.8689,-5.8439,-5.8216,-5.7973,-5.7857,-5.781,-5.7834,-5.7631,-5.751,-5.7583,-5.7534,0.0,-5.7412,-5.7461,-5.7461,-5.7412,-5.7412,-5.7534,-5.7747,0.0,0.0,-5.7629,-5.7474,-5.7546,-5.7932,-5.8187,-5.8783,-5.9859,-6.0775,-6.1609,-6.2407,-6.2407,-6.2162,-6.1709,-6.0674,-5.9981,-5.9566,-5.9296,-5.9601,-6.0359,-6.1239,-6.2046,-6.2705,-6.278,-6.278,-6.278,-6.278,-6.278,-6.278,-6.278,-6.311,-6.3422,-6.349,-6.3782,-6.4136,-6.4593,-6.4757,-6.4934,-6.5267,-6.5345,-6.5413,-6.5413,-6.5413,-6.5413,-6.5413,-6.5413,-6.5413,-6.5413,-6.5413,-6.5413,-6.5413,-6.5413,-6.5413,-6.5413,-6.4726,-6.432,-6.4206,-6.4206,-6.4129,-6.4,-6.4,-6.3694,-6.3083,-6.2815,-6.2777,-6.2853,-6.186,-6.1402,-6.1363,-6.0676,-6.0422,-6.0422,-6.0422,-6.0422,-6.0422,-6.0422,-6.0422,-6.0422,-6.0422,-6.0422,-6.0422,-6.0422,-6.0422,-6.0422,-6.0422,-6.0422,-6.0422,-6.0422,-6.0144,-5.9809,-5.9397,-5.9307,-5.927,-5.914,-5.885,-5.8586,-5.8503,-5.8253,-5.7973,-5.7834,-5.7786,-5.7763,-5.7667,-5.7461,-5.7363,-5.7412,0.0,-5.7313,-5.7213,-5.7289,-5.7313,-5.7213,-5.7188,-5.7188,-5.7188,-5.7188,0.0,0.0,-5.7397,-5.7545,-5.7545,-5.826,-5.9135,-6.0147,-6.1641,-6.2381,-6.2354,-6.2209,-6.1756,-6.0923,-6.027,-5.9517,-5.8798,-5.9151,-5.9639,-6.0237,-6.1275,-6.2057,-6.2578,-6.2679,-6.2755,-6.2755,-6.273,-6.2755,-6.278,-6.278,-6.2855,-6.3014,-6.3422,-6.3557,-6.3718,-6.4174,-6.4538,-6.481,-6.4862,-6.5204,-6.5413,-6.5413,-6.5413,-6.5413,-6.5413,-6.5413,-6.5413,-6.5413,-6.5413,-6.5413,-6.5413,-6.5413,-6.5413,-6.5413,-6.5261,-6.4879,-6.4206,-6.4206,-6.3809,-6.3121,-6.3121,-6.3427,-6.3923,-6.2471,-6.2204,-6.2815,-6.1249,-6.0599,-6.0575,-6.046,-6.0422,-6.0422,-6.0422,-6.0422,-6.0422,-6.0422,-6.0422,-6.0422,-6.0422,-6.0422,-6.0422,-6.0422,-6.0422,-6.0422,-6.0422,-6.0422,-6.0422,-6.0422,-6.0342,-6.0188,-5.9826,-5.9727,-5.9537,-5.887,-5.8648,-5.8482,-5.8164,-5.8042,-5.7973,-5.7834,-5.7715,-5.7655,-5.7763,-5.7461,-5.7313,0.0,0.0,-5.7213,-5.7188,-5.7213,-5.7213,-5.7188,-5.7188,-5.7188,-5.7188,-5.7188,-5.7188,-5.7188,-5.7866,-5.8228,-5.8228,-5.8601,-5.9415,-6.083,-6.1776,-6.2195,-6.206,-6.1371,-6.0972,-6.0801,-5.9434,-5.8783,-5.8685,-5.9516,-5.993,-6.0149,-6.1646,-6.2339,-6.2423,-6.2449,-6.2526,-6.2629,-6.25,-6.2603,-6.278,-6.278,-6.278,-6.288,-6.3086,-6.3134,-6.3262,-6.3718,-6.3971,-6.4174,-6.4407,-6.481,-6.5068,-6.5068,-6.5267,-6.5413,-6.5413,-6.5413,-6.5413,-6.5413,-6.5413,-6.5413,-6.5413,-6.5413,-6.5413,-6.5413,-6.5413,-6.5222,-6.484,-6.484,-6.442,-6.3579,-6.3579,-6.3541,-6.3465,-6.2662,-6.251,-6.2815,-6.1554,-6.1058,-6.1019,-6.0575,-6.0422,-6.0422,-6.0422,-6.0422,-6.0422,-6.0422,-6.0422,-6.0422,-6.0422,-6.0422,-6.0422,-6.0422,-6.0422,-6.0422,-6.0422,-6.0422,-6.0342,-6.0129,-6.0084,-5.9922,-5.9325,-5.914,-5.8989,-5.8412,-5.826,-5.8231,-5.8042,-5.795,-5.7857,-5.7739,-5.7559,-5.7486,-5.7461,-5.7313,0.0,0.0,-5.7264,-5.7188,-5.7188,-5.7188,-5.7188,-5.7188,-5.7188,-5.7188,-5.7188,-5.7188,-5.7369,-5.7804,-5.8202,-5.8818,-5.9687,-5.9792,-6.0399,-6.1543,-6.1906,-6.206,-6.1978,-6.1181,-6.0593,-6.0122,-5.9056,-5.8623,-5.866,-5.9575,-6.0194,-6.0653,-6.187,-6.2381,-6.2291,-6.2344,-6.2423,-6.2475,-6.2397,-6.2475,-6.2578,-6.278,-6.278,-6.278,-6.278,-6.278,-6.2929,-6.3262,-6.3422,-6.3587,-6.393,-6.4369,-6.4686,-6.4775,-6.5068,-6.5298,-6.5413,-6.5413,-6.5413,-6.5413,-6.5413,-6.5413,-6.5413,-6.5413,-6.5413,-6.5413,-6.5413,-6.5413,-6.5413,-6.5413,-6.507,-6.4458,-6.4458,-6.4114,-6.3465,-6.3312,-6.3197,-6.3159,-6.228,-6.1898,-6.1822,-6.1019,-6.0676,-6.0637,-6.0446,-6.0422,-6.0422,-6.0422,-6.0422,-6.0422,-6.0422,-6.0422,-6.0422,-6.0422,-6.0422,-6.0422,-6.0422,-6.0422,-6.0328,-6.0,-5.9937,-5.976,-5.8931,-5.875,-5.8607,-5.8097,-5.7997,-5.7997,-5.7997,-5.7904,-5.7786,-5.7607,-5.7486,-5.7363,-5.7264,0.0,0.0,0.0,-5.7213,-5.7188,-5.7188,-5.7188,-5.7188,-5.7188,-5.7188,-5.7188,-5.7188,-5.7369,-5.7732,-5.8383,-5.8746,-5.9615,-6.1,-6.1073,-6.1362,-6.1978,-6.1978,-6.1906,-6.1688,-6.0919,-6.0122,-5.9289,-5.8595,-5.8391,-5.8609,-5.9536,-6.0311,-6.1042,-6.1947,-6.2248,-6.2132,-6.2275,-6.2328,-6.2354,-6.2328,-6.2354,-6.2407,-6.278,-6.278,-6.278,-6.278,-6.278,-6.2805,-6.2855,-6.3228,-6.3513,-6.3557,-6.3909,-6.4331,-6.4739,-6.481,-6.5002,-6.5383,-6.5413,-6.5413,-6.5413,-6.5413,-6.5413,-6.5413,-6.5413,-6.5413,-6.5413,-6.5413,-6.5413,-6.5413,-6.5413,-6.5375,-6.5299,-6.5299,-6.5261,-6.5184,-6.442,-6.4076,-6.4038,-6.3159,-6.2815,-6.2739,-6.186,-6.1516,-6.144,-6.0676,-6.0422,-6.0422,-6.0422,-6.0422,-6.0422,-6.0422,-6.0422,-6.0422,-6.0422,-6.0422,-6.0422,-6.0422,-6.0422,-6.037,-6.0356,-6.0342,-6.0159,-5.9361,-5.9159,-5.8968,-5.8164,-5.7997,-5.7997,-5.7997,-5.7904,-5.7786,-5.7607,-5.7486,-5.7388,-5.7388,0.0,0.0,-5.7363,-5.7264,-5.7188,-5.7188,-5.7188,-5.7188,-5.7188,-5.7188,-5.7188,-5.7188,-5.7876,-5.8347,-5.8383,-5.9832,-6.1027,-6.1869,-6.1906,-6.1942,-6.1978,-6.1978,-6.1616,-6.0883,-6.0086,-5.9289,-5.8456,-5.7684,-5.7721,-5.8482,-5.9279,-6.0076,-6.0883,-6.1679,-6.2005,-6.2005,-6.2005,-6.2114,-6.2185,-6.2087,-6.2195,-6.237,-6.278,-6.278,-6.278,-6.278,-6.278,-6.278,-6.278,-6.2978,-6.3062,-6.3062,-6.3468,-6.3909,-6.4331,-6.4649,-6.4968,-6.5345,-6.5413,-6.5413,-6.5413,-6.5413,-6.5413,-6.5413,-6.5413,-6.5413,-6.5413,-6.5413,-6.5413,-6.5413,-6.5413,-6.5413,-6.5413,-6.5413,-6.5413,-6.5375,-6.507,-6.4955,-6.4879,-6.4038,-6.3694,-6.3618,-6.2777,-6.2089,-6.1554,-6.1249,-6.0828,-6.0422,-6.0422,-6.0422,-6.0422,-6.0422,-6.0422,-6.0422,-6.0422,-6.0422,-6.0422,-6.0422,-6.0422,-6.0422,-6.0422,-6.0422,-6.027,-5.9689,-5.9397,-5.9122,-5.8811,-5.8348,-5.8088,-5.8304,-5.7992,-5.7655,-5.7583,-5.7412,-5.7264,-5.7264,0.0,-5.7213,-5.7264,-5.7213,-5.7188,-5.7188,-5.7188,-5.7188,-5.7188,-5.7188,-5.7406,-5.7913,-5.8239,-5.8854,-5.9832,-6.0955,-6.1652,-6.1978,-6.1978,-6.1978,-6.1978,-6.1978,-6.158,-6.0783,-5.9977,-5.918,-5.8383,-5.8094,-5.8383,-5.918,-6.0013,-6.081,-6.1543,-6.1869,-6.1978,-6.1978,-6.1978,-6.2033,-6.206,-6.2005,-6.206,-6.2141,-6.278,-6.278,-6.278,-6.278,-6.278,-6.278,-6.278,-6.278,-6.278,-6.278,-6.3086,-6.3445,-6.3888,-6.4194,-6.4631,-6.515,-6.522,-6.5267,-6.5413,-6.5413,-6.5413,-6.5413,-6.5413,-6.5413,-6.5413,-6.5413,-6.5413,-6.5413,-6.5413,-6.5413,-6.5413,-6.5413,-6.5413,-6.5413,-6.5413,-6.5413,-6.5375,-6.4802,-6.4588,-6.4496,-6.3656,-6.2968,-6.2395,-6.2128,-6.1516,-6.079,-6.079,-6.0599,-6.0422,-6.0422,-6.0422,-6.0422,-6.0422,-6.0422,-6.0422,-6.0422,-6.0422,-6.0422,-6.0422,-6.0422,-6.0299,-5.9906,-5.9588,-5.9361,-5.9234,-5.8669,-5.8238,-5.8482,-5.806,-5.7583,-5.7534,-5.7338,-5.7188,-5.7188,-5.7188,-5.7188,-5.7188,-5.7188,-5.7188,-5.7188,-5.7188,-5.7188,-5.7188,-5.7188,-5.7442,-5.7985,-5.8275,-5.8999,-6.0375,-6.0955,-6.1254,-6.1254,-6.1254,-6.1254,-6.1254,-6.1471,-6.11,-6.005,-5.9506,-5.8818,-5.8021,-5.8275,-5.8854,-5.9651,-6.0448,-6.1254,-6.1978,-6.1978,-6.1978,-6.1978,-6.1978,-6.1978,-6.1978,-6.1978,-6.1978,-6.1978,-6.278,-6.278,-6.278,-6.278,-6.278,-6.278,-6.278,-6.278,-6.278,-6.278,-6.278,-6.2965,-6.3445,-6.3513,-6.3846,-6.4721,-6.4792,-6.4985,-6.536,-6.5413,-6.5413,-6.5413,-6.5413,-6.5413,-6.5413,-6.5413,-6.5413,-6.5413,-6.5413,-6.5413,-6.5413,-6.5413,-6.5413,-6.5413,-6.5413,-6.5413,-6.5413,-6.5413,-6.5413,-6.5337,-6.4535,-6.4206,-6.4129,-6.3236,-6.2357,-6.1593,-6.1593,-6.1096,-6.0422,-6.0422,-6.0422,-6.0422,-6.0422,-6.0422,-6.0422,-6.0422,-6.0422,-6.0422,-6.0422,-6.0422,-6.0299,-5.9906,-5.9809,-5.9711,-5.9307,-5.891,-5.8566,-5.8424,-5.7955,-5.7559,-5.7412,-5.7289,-5.7188,-5.7188,-5.7188,-5.7188,-5.7188,-5.7188,-5.7188,-5.7188,-5.7188,-5.7188,-5.7188,-5.7188,-5.7188,-5.7188,-5.7949,-5.8746,-5.9579,-5.9615,-5.9615,-5.9615,-5.9615,-5.9615,-5.9615,-6.0412,-6.0013,-5.8383,-5.8383,-5.7985,-5.7224,-5.8058,-5.8854,-5.9651,-6.0484,-6.1254,-6.1978,-6.1978,-6.1978,-6.1978,-6.1978,-6.1978,-6.1978,-6.1978,-6.1978,-6.1978,-6.278,-6.278,-6.278,-6.278,-6.278,-6.278,-6.278,-6.278,-6.278,-6.278,-6.278,-6.2965,-6.3445,-6.3761,-6.4174,-6.4739,-6.5052,-6.5267,-6.5413,-6.5413,-6.5413,-6.5413,-6.5413,-6.5413,-6.5413,-6.5413,-6.5413,-6.5413,-6.5413,-6.5413,-6.5413,-6.5413,-6.5413,-6.5413,-6.5413,-6.5413,-6.5413,-6.5413,-6.5413,-6.5375,-6.5146,-6.4688,-6.4167,-6.3923,-6.3274,-6.251,-6.251,-6.1975,-6.1249,-6.1249,-6.0867,-6.0422,-6.0422,-6.0422,-6.0422,-6.0422,-6.0422,-6.0422,-6.0422,-6.0422,-6.0356,-6.027,-6.0022,-5.9777,-5.9639,-5.9065,-5.8566,-5.8424,-5.7955,-5.7559,-5.7412,-5.7289,-5.7188,-5.7188,-5.7188,-5.7188,-5.7188,-5.7188,-5.7188,-5.7188,-5.7188,-5.7188,-5.7188,-5.7188,-5.7442,-5.7985,-5.8782,-5.9361,-5.9579,-5.9615,-5.9615,-5.9615,-5.9615,-5.9325,-5.8746,-5.9579,-5.9434,-5.8383,-5.8383,-5.8275,-5.8058,-5.8891,-5.9687,-6.0484,-6.129,-6.1761,-6.1978,-6.1978,-6.1978,-6.1978,-6.1978,-6.1978,-6.1978,-6.1978,-6.1978,-6.1978,-6.278,-6.278,-6.278,-6.278,-6.278,-6.278,-6.278,-6.278,-6.278,-6.278,-6.278,-6.2904,-6.3205,-6.3431,-6.3867,-6.4464,-6.5068,-6.5413,-6.5413,-6.5413,-6.5413,-6.5413,-6.5413,-6.5413,-6.5413,-6.5413,-6.5413,-6.5413,-6.5413,-6.5413,-6.5413,-6.5413,-6.5413,-6.5413,-6.5413,-6.5413,-6.5413,-6.5413,-6.5413,-6.5413,-6.5413,-6.5108,-6.4649,-6.4649,-6.4153,-6.3427,-6.3427,-6.2853,-6.2051,-6.1707,-6.1058,-6.0422,-6.0422,-6.0422,-6.0422,-6.0422,-6.0422,-6.0422,-6.0422,-6.0422,-6.0422,-6.0422,-6.0099,-5.9809,-5.9723,-5.914,-5.8545,-5.8295,-5.7923,-5.7534,-5.7338,-5.7239,-5.7188,-5.7188,-5.7188,-5.7188,-5.7188,-5.7188,-5.7188,-5.7188,-5.7188,-5.7188,-5.7188,-5.7188,-5.7406,-5.7876,-5.8383,-5.8637,-5.8637,-5.8637,-5.8637,-5.8637,-5.8637,-5.842,-5.7913,-5.842,-5.842,-5.7913,-5.8239,-5.8383,-5.8456,-5.9579,-6.0339,-6.0819,-6.1652,-6.1978,-6.1978,-6.1978,-6.1978,-6.1978,-6.1978,-6.1978,-6.1978,-6.1978,-6.1978,-6.1978,-6.278,-6.278,-6.278,-6.278,-6.278,-6.278,-6.278,-6.278,-6.278,-6.278,-6.278,-6.278,-6.278,-6.283,-6.3168,-6.3954,-6.4845,-6.5345,-6.5413,-6.5413,-6.5413,-6.5413,-6.5413,-6.5413,-6.5413,-6.5413,-6.5413,-6.5413,-6.5413,-6.5413,-6.5413,-6.5413,-6.5413,-6.5413,-6.5413,-6.5413,-6.5413,-6.5413,-6.5413,-6.5413,-6.5413,-6.5413,-6.5413,-6.5413,-6.4955,-6.432,-6.432,-6.3732,-6.2892,-6.2013,-6.1172,-6.0485,-6.0485,-6.046,-6.0422,-6.0422,-6.0422,-6.0422,-6.0422,-6.0422,-6.037,-6.0342,-6.0053,-5.9706,-5.9585,-5.9065,-5.8482,-5.8031,-5.776,-5.7486,-5.7239,-5.7188,-5.7188,-5.7188,-5.7188,-5.7188,-5.7188,-5.7188,-5.7188,-5.7188,-5.7188,-5.7188,-5.7188,-5.7188,-5.7188,-5.7188,-5.7188,-5.7188,-5.7188,-5.7188,-5.7188,-5.7188,-5.7188,-5.7188,-5.7188,-5.7188,-5.7224,-5.7333,-5.8058,-5.8492,-5.8673,-6.0122,-6.0819,-6.0955,-6.1652,-6.1978,-6.1978,-6.1978,-6.1978,-6.1978,-6.1978,-6.1978,-6.1978,-6.1978,-6.1978,-6.1978,-6.278,-6.278,-6.278,-6.278,-6.278,-6.278,-6.278,-6.278,-6.278,-6.278,-6.278,-6.278,-6.278,-6.3134,-6.3422,-6.3587,-6.4426,-6.5068,-6.5398,-6.5413,-6.5413,-6.5413,-6.5413,-6.5413,-6.5413,-6.5413,-6.5413,-6.5413,-6.5413,-6.5413,-6.5413,-6.5413,-6.5413,-6.5413,-6.5413,-6.5413,-6.5413,-6.5413,-6.5413,-6.5413,-6.5413,-6.5413,-6.5413,-6.5413,-6.5299,-6.5146,-6.5146,-6.4611,-6.377,-6.293,-6.2051,-6.1325,-6.1325,-6.0905,-6.0422,-6.0422,-6.0422,-6.0422,-6.0422,-6.0422,-6.0328,-6.0022,-5.9622,-5.9269,-5.9178,-5.8756,-5.8252,-5.7666,-5.7486,-5.7388,-5.7213,-5.7188,-5.7188,-5.7188,-5.7188,-5.7188,-5.7188,-5.7188,-5.7188,-5.7188,-5.7188,-5.7188,-5.7188,-5.7188,-5.7188,-5.7188,-5.7188,-5.7188,-5.7188,-5.7188,-5.7188,-5.7188,-5.7188,-5.7188,-5.7188,-5.7188,-5.7514,-5.813,-5.8311,-5.9072,-6.0303,-6.0665,-6.1136,-6.1725,-6.1906,-6.1978,-6.1978,-6.1978,-6.1978,-6.1978,-6.1978,-6.1978,-6.1978,-6.1978,-6.1978,-6.1978,-6.278,-6.278,-6.278,-6.278,-6.278,-6.278,-6.278,-6.278,-6.278,-6.278,-6.278,-6.278,-6.278,-6.3014,-6.3331,-6.3761,-6.4407,-6.4985,-6.536,-6.5413,-6.5413,-6.5413,-6.5413,-6.5413,-6.5413,-6.5413,-6.5413,-6.5413,-6.5413,-6.5413,-6.5413,-6.5413,-6.5413,-6.5413,-6.5413,-6.5413,-6.5413,-6.5413,-6.5413,-6.5413,-6.5413,-6.5413,-6.5413,-6.5413,-6.5413,-6.5413,-6.5413,-6.4879,-6.4129,-6.3656,-6.293,-6.2166,-6.1745,-6.1325,-6.0905,-6.0485,-6.0422,-6.0422,-6.0422,-6.027,-6.0068,-5.9858,-5.9361,-5.8853,-5.8753,-5.8381,-5.7992,-5.751,-5.7388,-5.7363,-5.7213,-5.7188,-5.7188,-5.7188,-5.7188,-5.7188,-5.7188,-5.7188,-5.7188,-5.7188,-5.7188,-5.7188,-5.7188,-5.7188,-5.7188,-5.7188,-5.7188,-5.7188,-5.7188,-5.7188,-5.7188,-5.7188,-5.7188,-5.7188,-5.7188,-5.7587,-5.8166,-5.8963,-5.8963,-5.9615,-6.0783,-6.1181,-6.158,-6.1978,-6.1978,-6.1978,-6.1978,-6.1978,-6.1978,-6.1978,-6.1978,-6.1978,-6.1978,-6.1978,-6.1978,-6.1978,-6.278,-6.278,-6.278,-6.278,-6.278,-6.278,-6.278,-6.278,-6.278,-6.278,-6.278,-6.278,-6.278,-6.278,-6.3097,-6.395,-6.4407,-6.4845,-6.5267,-6.5345,-6.5413,-6.5413,-6.5413,-6.5413,-6.5413,-6.5413,-6.5413,-6.5413,-6.5413,-6.5413,-6.5413,-6.5413,-6.5413,-6.5413,-6.5413,-6.5413,-6.5413,-6.5413,-6.5413,-6.5413,-6.5413,-6.5413,-6.5413,-6.5413,-6.5413,-6.5413,-6.5413,-6.4955,-6.4435,-6.4435,-6.3809,-6.3006,-6.228,-6.1936,-6.1655,-6.0771,-6.049,-6.0475,-6.0241,-5.9937,-5.9673,-5.9605,-5.9084,-5.8545,-5.8375,-5.8037,-5.7715,-5.7437,-5.7363,-5.7313,-5.7213,-5.7188,-5.7188,-5.7188,-5.7188,-5.7188,-5.7188,-5.7188,-5.7188,-5.7188,-5.7188,-5.7188,-5.7188,-5.7188,-5.7188,-5.7188,-5.7188,-5.7188,-5.7188,-5.7188,-5.7188,-5.7188,-5.7188,-5.7261,-5.7406,-5.8058,-5.8891,-5.9832,-5.9832,-6.0231,-6.1027,-6.1688,-6.1978,-6.1978,-6.1978,-6.1978,-6.1978,-6.1978,-6.1978,-6.1978,-6.1978,-6.1978,-6.1978,-6.1978,-6.1978,-6.1978,-6.278,-6.278,-6.278,-6.278,-6.278,-6.278,-6.278,-6.278,-6.278,-6.278,-6.278,-6.278,-6.278,-6.278,-6.299,-6.3557,-6.3971,-6.4407,-6.4845,-6.522,-6.5413,-6.5413,-6.5413,-6.5413,-6.5413,-6.5413,-6.5413,-6.5413,-6.5413,-6.5413,-6.5413,-6.5413,-6.5413,-6.5413,-6.5413,-6.5413,-6.5413,-6.5413,-6.5413,-6.5413,-6.5413,-6.5413,-6.5413,-6.5413,-6.5413,-6.5413,-6.5413,-6.5337,-6.5222,-6.5222,-6.4688,-6.4,-6.39,-6.3312,-6.2489,-6.1261,-6.0898,-6.0681,-5.9656,-5.9325,-5.9215,-5.887,-5.8689,-5.8482,-5.8142,-5.7821,-5.7559,-5.7412,-5.7289,-5.7213,-5.7188,-5.7188,-5.7188,-5.7188,-5.7188,-5.7188,-5.7188,-5.7188,-5.7188,-5.7188,-5.7188,-5.7188,-5.7188,-5.7188,-5.7188,-5.7188,-5.7188,-5.7188,-5.7188,-5.7188,-5.7188,-5.7188,-5.7188,-5.7514,-5.8239,-5.8347,-5.9144,-6.0665,-6.0665,-6.1037,-6.1833,-6.1942,-6.1978,-6.1978,-6.1978,-6.1978,-6.1978,-6.1978,-6.1978,-6.1978,-6.1978,-6.1978,-6.1978,-6.1978,-6.1978,-6.1978,-6.278,-6.278,-6.278,-6.278,-6.278,-6.278,-6.278,-6.278,-6.278,-6.278,-6.278,-6.278,-6.278,-6.278,-6.2965,-6.3468,-6.3888,-6.4311,-6.4757,-6.5188,-6.5413,-6.5413,-6.5413,-6.5413,-6.5413,-6.5413,-6.5413,-6.5413,-6.5413,-6.5413,-6.5413,-6.5413,-6.5413,-6.5413,-6.5413,-6.5413,-6.5413,-6.5413,-6.5413,-6.5413,-6.5413,-6.5413,-6.5413,-6.5413,-6.5413,-6.5413,-6.5413,-6.5413,-6.5413,-6.5413,-6.5146,-6.4802,-6.4344,-6.3764,-6.3041,-6.2003,-6.1533,-6.1129,-6.0154,-5.97,-5.937,-5.876,-5.8434,-5.8231,-5.8042,-5.7857,-5.7679,-5.7667,-5.7388,-5.7213,-5.7289,-5.7239,-5.7188,-5.7188,-5.7188,-5.7213,-5.7289,-5.7239,-5.7188,-5.7188,-5.7188,-5.7188,-5.7188,-5.7188,-5.7188,-5.7188,-5.7188,-5.7188,-5.7188,-5.7188,-5.7188,-5.7188,-5.7188,-5.7587,-5.8383,-5.8854,-5.9651,-6.081,-6.1254,-6.1652,-6.1978,-6.1978,-6.1978,-6.1978,-6.1978,-6.1978,-6.1978,-6.1978,-6.1978,-6.1978,-6.1978,-6.1978,-6.1978,-6.1978,-6.1978,-6.1978]},{"header":{"parameterUnit":"m.s-1","parameterCategory":1,"la1":30.6,"la2":28.766,"lo1":-90.7593,"lo2":-88.6598,"dy":0.0162,"dx":0.0183,"nx":116,"ny":114,"refTime":"2024-03-27T06:00:00:Z","depth":0,"parameterNumber":3,"parameterNumberName":"V-component_of_WINDS"},"data":[0.0,0.0,0.0,0.0,0.0,0.0,0.0,0.0,0.0,0.0,0.0,0.0,0.0,0.0,0.0,0.0,0.0,0.0,0.0,0.0,0.0,0.0,0.0,0.0,0.0,0.0,0.0,0.0,0.0,0.0,0.0,0.0,0.0,0.0,0.0,0.0,0.0,0.0,0.0,0.0,0.0,0.0,0.0,0.0,0.0,0.0,0.0,0.0,0.0,0.0,0.0,0.0,0.0,0.0,0.0,0.0,0.0,0.0,0.0,0.0,0.0,0.0,0.0,0.0,0.0,0.0,0.0,0.0,0.0,0.0,0.0,0.0,0.0,0.0,0.0,0.0,0.0,0.0,0.0,0.0,0.0,0.0,0.0,0.0,0.0,0.0,0.0,0.0,0.0,0.0,0.0,0.0,0.0,0.0,0.0,0.0,0.0,0.0,0.0,0.0,0.0,0.0,0.0,0.0,0.0,0.0,0.0,0.0,0.0,0.0,0.0,0.0,0.0,0.0,0.0,0.0,0.0,0.0,0.0,0.0,0.0,0.0,0.0,0.0,0.0,0.0,0.0,0.0,0.0,0.0,0.0,0.0,0.0,0.0,0.0,0.0,0.0,0.0,0.0,0.0,0.0,0.0,0.0,0.0,0.0,0.0,0.0,0.0,0.0,0.0,0.0,0.0,0.0,0.0,0.0,0.0,0.0,0.0,0.0,0.0,0.0,0.0,0.0,0.0,0.0,0.0,0.0,0.0,0.0,0.0,0.0,0.0,0.0,0.0,0.0,0.0,0.0,0.0,0.0,0.0,0.0,0.0,0.0,0.0,0.0,0.0,0.0,0.0,0.0,0.0,0.0,0.0,0.0,0.0,0.0,0.0,0.0,0.0,0.0,0.0,0.0,0.0,0.0,0.0,0.0,0.0,0.0,0.0,0.0,0.0,0.0,0.0,0.0,0.0,0.0,0.0,0.0,0.0,0.0,0.0,0.0,0.0,0.0,0.0,0.0,0.0,0.0,0.0,0.0,0.0,0.0,0.0,0.0,0.0,0.0,0.0,0.0,0.0,0.0,0.0,0.0,0.0,0.0,0.0,0.0,0.0,0.0,0.0,0.0,0.0,0.0,0.0,0.0,0.0,0.0,0.0,0.0,0.0,0.0,0.0,0.0,0.0,0.0,0.0,0.0,0.0,0.0,0.0,0.0,0.0,0.0,0.0,0.0,0.0,0.0,0.0,0.0,0.0,0.0,0.0,0.0,0.0,0.0,0.0,0.0,0.0,0.0,0.0,0.0,0.0,0.0,0.0,0.0,0.0,0.0,0.0,0.0,0.0,0.0,0.0,0.0,0.0,0.0,0.0,0.0,0.0,0.0,0.0,0.0,0.0,0.0,0.0,0.0,0.0,0.0,0.0,0.0,0.0,0.0,0.0,0.0,0.0,0.0,0.0,0.0,0.0,0.0,0.0,0.0,0.0,0.0,0.0,0.0,0.0,0.0,0.0,0.0,0.0,0.0,0.0,0.0,0.0,0.0,0.0,0.0,0.0,0.0,0.0,0.0,0.0,0.0,0.0,0.0,0.0,0.0,0.0,0.0,0.0,0.0,0.0,0.0,0.0,0.0,0.0,0.0,0.0,0.0,0.0,0.0,0.0,0.0,0.0,0.0,0.0,0.0,0.0,0.0,0.0,0.0,0.0,0.0,0.0,0.0,0.0,0.0,0.0,0.0,0.0,0.0,0.0,0.0,0.0,0.0,0.0,0.0,0.0,0.0,0.0,0.0,0.0,0.0,0.0,0.0,0.0,0.0,0.0,0.0,0.0,0.0,0.0,0.0,0.0,0.0,0.0,0.0,0.0,0.0,0.0,0.0,0.0,0.0,0.0,0.0,0.0,0.0,0.0,0.0,0.0,0.0,0.0,0.0,0.0,0.0,0.0,0.0,0.0,0.0,0.0,0.0,0.0,0.0,0.0,0.0,0.0,0.0,0.0,0.0,0.0,0.0,0.0,0.0,0.0,0.0,0.0,0.0,0.0,0.0,0.0,0.0,0.0,0.0,0.0,0.0,0.0,0.0,0.0,0.0,0.0,0.0,0.0,0.0,0.0,0.0,0.0,0.0,0.0,0.0,0.0,0.0,0.0,0.0,0.0,0.0,0.0,0.0,0.0,0.0,0.0,0.0,0.0,0.0,0.0,0.0,0.0,0.0,0.0,0.0,0.0,0.0,0.0,0.0,0.0,0.0,0.0,0.0,0.0,0.0,0.0,0.0,0.0,0.0,0.0,0.0,0.0,0.0,0.0,0.0,0.0,0.0,0.0,0.0,0.0,0.0,0.0,0.0,0.0,0.0,0.0,0.0,0.0,0.0,0.0,0.0,0.0,0.0,0.0,0.0,0.0,0.0,0.0,0.0,0.0,0.0,0.0,0.0,0.0,0.0,0.0,0.0,0.0,0.0,0.0,0.0,0.0,0.0,0.0,0.0,0.0,0.0,0.0,0.0,0.0,0.0,0.0,0.0,0.0,0.0,0.0,0.0,0.0,0.0,0.0,0.0,0.0,0.0,0.0,0.0,0.0,0.0,0.0,0.0,0.0,0.0,0.0,0.0,0.0,0.0,0.0,0.0,0.0,0.0,0.0,0.0,0.0,0.0,0.0,0.0,0.0,0.0,0.0,0.0,0.0,0.0,0.0,0.0,0.0,0.0,0.0,0.0,0.0,0.0,0.0,0.0,0.0,0.0,0.0,0.0,0.0,0.0,0.0,0.0,0.0,0.0,0.0,0.0,0.0,0.0,0.0,0.0,0.0,0.0,0.0,0.0,0.0,0.0,0.0,0.0,0.0,0.0,0.0,0.0,0.0,0.0,0.0,0.0,0.0,0.0,0.0,0.0,0.0,0.0,0.0,0.0,0.0,0.0,0.0,0.0,0.0,0.0,0.0,0.0,0.0,0.0,0.0,0.0,0.0,0.0,0.0,0.0,0.0,0.0,0.0,0.0,0.0,0.0,0.0,0.0,0.0,0.0,0.0,0.0,0.0,0.0,0.0,0.0,0.0,0.0,0.0,0.0,0.0,0.0,0.0,0.0,0.0,0.0,0.0,0.0,0.0,0.0,0.0,0.0,0.0,0.0,0.0,0.0,0.0,0.0,0.0,0.0,0.0,0.0,0.0,0.0,0.0,0.0,0.0,0.0,0.0,0.0,0.0,0.0,0.0,0.0,0.0,0.0,0.0,0.0,0.0,0.0,0.0,0.0,0.0,0.0,0.0,0.0,0.0,0.0,0.0,0.0,0.0,0.0,0.0,0.0,0.0,0.0,0.0,0.0,0.0,0.0,0.0,0.0,0.0,0.0,0.0,0.0,0.0,0.0,0.0,0.0,0.0,0.0,0.0,0.0,0.0,0.0,0.0,0.0,0.0,0.0,0.0,0.0,0.0,0.0,0.0,0.0,0.0,0.0,0.0,0.0,0.0,0.0,0.0,0.0,0.0,0.0,0.0,0.0,0.0,0.0,0.0,0.0,0.0,0.0,0.0,0.0,0.0,0.0,0.0,0.0,0.0,0.0,0.0,0.0,0.0,0.0,0.0,0.0,0.0,0.0,0.0,0.0,0.0,0.0,0.0,0.0,0.0,0.0,0.0,0.0,0.0,0.0,0.0,0.0,0.0,0.0,0.0,0.0,0.0,0.0,0.0,0.0,0.0,0.0,0.0,0.0,0.0,0.0,0.0,0.0,0.0,0.0,0.0,0.0,0.0,0.0,0.0,0.0,0.0,0.0,0.0,0.0,0.0,0.0,0.0,0.0,0.0,0.0,0.0,0.0,0.0,0.0,0.0,0.0,0.0,0.0,0.0,0.0,0.0,0.0,0.0,0.0,0.0,0.0,0.0,0.0,0.0,0.0,0.0,0.0,0.0,0.0,0.0,0.0,0.0,0.0,0.0,0.0,0.0,0.0,0.0,0.0,0.0,0.0,0.0,0.0,0.0,0.0,0.0,0.0,0.0,0.0,0.0,0.0,0.0,0.0,0.0,0.0,0.0,0.0,0.0,0.0,0.0,0.0,0.0,0.0,0.0,0.0,0.0,0.0,0.0,0.0,0.0,0.0,0.0,0.0,0.0,0.0,0.0,0.0,0.0,0.0,0.0,0.0,0.0,0.0,0.0,0.0,0.0,0.0,0.0,0.0,0.0,0.0,0.0,0.0,0.0,0.0,0.0,0.0,0.0,0.0,0.0,0.0,0.0,0.0,0.0,0.0,0.0,0.0,0.0,0.0,0.0,0.0,0.0,0.0,0.0,0.0,0.0,0.0,0.0,0.0,0.0,0.0,0.0,0.0,0.0,0.0,0.0,0.0,0.0,0.0,0.0,0.0,0.0,0.0,0.0,0.0,0.0,0.0,0.0,0.0,0.0,0.0,0.0,0.0,0.0,0.0,0.0,0.0,0.0,0.0,0.0,0.0,0.0,0.0,0.0,0.0,0.0,0.0,0.0,0.0,0.0,0.0,0.0,0.0,0.0,0.0,0.0,0.0,0.0,0.0,0.0,0.0,0.0,0.0,0.0,0.0,0.0,0.0,0.0,0.0,0.0,0.0,0.0,0.0,0.0,0.0,0.0,0.0,0.0,0.0,0.0,0.0,0.0,0.0,0.0,0.0,0.0,0.0,0.0,0.0,0.0,0.0,0.0,0.0,0.0,0.0,0.0,0.0,0.0,0.0,0.0,0.0,0.0,0.0,0.0,0.0,0.0,0.0,0.0,0.0,0.0,0.0,0.0,0.0,0.0,0.0,0.0,0.0,0.0,0.0,0.0,0.0,0.0,0.0,0.0,0.0,0.0,0.0,0.0,0.0,0.0,0.0,0.0,0.0,0.0,0.0,0.0,0.0,0.0,0.0,0.0,0.0,0.0,0.0,0.0,0.0,0.0,0.0,0.0,0.0,0.0,0.0,0.0,0.0,0.0,0.0,0.0,0.0,0.0,0.0,0.0,0.0,0.0,0.0,0.0,0.0,0.0,0.0,0.0,0.0,0.0,0.0,0.0,0.0,0.0,0.0,0.0,0.0,0.0,0.0,0.0,0.0,0.0,0.0,0.0,0.0,0.0,0.0,0.0,0.0,0.0,0.0,0.0,0.0,0.0,0.0,0.0,0.0,0.0,0.0,0.0,0.0,0.0,0.0,0.0,0.0,0.0,0.0,0.0,0.0,0.0,0.0,0.0,0.0,0.0,0.0,0.0,0.0,0.0,0.0,0.0,0.0,0.0,0.0,0.0,0.0,0.0,0.0,0.0,0.0,0.0,0.0,0.0,0.0,0.0,0.0,0.0,0.0,0.0,0.0,0.0,0.0,0.0,0.0,0.0,0.0,0.0,0.0,0.0,0.0,0.0,0.0,0.0,0.0,0.0,0.0,0.0,0.0,0.0,0.0,0.0,0.0,0.0,0.0,0.0,0.0,0.0,0.0,0.0,0.0,0.0,0.0,0.0,0.0,0.0,0.0,0.0,0.0,0.0,0.0,0.0,0.0,0.0,0.0,0.0,0.0,0.0,0.0,0.0,0.0,0.0,0.0,0.0,0.0,0.0,0.0,0.0,0.0,0.0,0.0,0.0,0.0,0.0,0.0,0.0,0.0,0.0,0.0,0.0,0.0,0.0,0.0,0.0,0.0,0.0,0.0,0.0,0.0,0.0,0.0,0.0,0.0,0.0,0.0,0.0,0.0,0.0,0.0,0.0,0.0,0.0,0.0,0.0,0.0,0.0,0.0,0.0,0.0,0.0,0.0,0.0,0.0,0.0,0.0,0.0,0.0,0.0,0.0,0.0,0.0,0.0,0.0,0.0,0.0,0.0,0.0,0.0,0.0,0.0,0.0,0.0,0.0,0.0,0.0,0.0,0.0,0.0,0.0,0.0,0.0,0.0,0.0,0.0,0.0,0.0,0.0,0.0,0.0,0.0,0.0,0.0,0.0,0.0,0.0,0.0,0.0,0.0,0.0,0.0,0.0,0.0,0.0,0.0,0.0,0.0,0.0,0.0,0.0,0.0,0.0,0.0,0.0,0.0,0.0,0.0,0.0,0.0,0.0,0.0,0.0,0.0,0.0,0.0,0.0,0.0,0.0,0.0,0.0,0.0,0.1791,0.0,0.0,0.0,0.0,0.0,0.0,0.0,0.0,0.0,0.0,0.0,0.0,0.0,0.0,0.0,0.0,0.0,0.0,0.0,0.0,0.0,0.0,0.0,0.0,0.7988,0.7988,0.7988,0.7988,0.7988,0.7988,0.7988,0.0,0.0,0.0,0.0,0.8187,0.8336,0.8379,0.8379,0.8528,0.8733,0.8981,0.913,0.913,0.8981,0.0,0.0,0.0,0.0,0.0,0.0,0.0,0.0,0.0,0.0,0.0,0.0,0.0,0.0,0.0,0.0,0.0,0.0,0.0,0.0,0.0,0.0,0.0,0.0,0.0,0.0,0.0,0.0,0.0,0.0,0.0,0.0,0.0,0.0,0.0,0.0,0.0,0.0,0.0,0.0,0.0,0.0,0.0,0.0,0.0,0.0,0.0,0.0,0.0,0.0,0.0,0.0,0.0,0.0,0.0,0.0,0.0,0.0,0.0,0.0,0.0,0.0,0.0,0.0,0.0,0.0,0.0,0.0,0.0,0.0,0.0,0.178,0.0,0.0,0.0,0.0,0.0,0.0,0.0,0.0,0.0,0.0,0.0,0.0,0.0,0.0,0.0,0.0,0.0,0.0,0.0,0.0,0.0,0.7988,0.7988,0.7988,0.7988,0.7988,0.7988,0.7988,0.7988,0.7988,0.7988,0.7988,0.8237,0.8336,0.8336,0.8386,0.8428,0.8478,0.8726,0.908,0.9533,0.9533,0.9434,0.9286,0.9476,0.0,0.0,0.0,0.0,0.0,0.0,0.0,0.0,0.0,0.0,0.0,0.0,0.0,0.0,0.0,0.0,0.0,0.0,0.0,0.0,0.0,0.0,0.0,0.0,0.0,0.0,0.0,0.0,0.0,0.0,0.0,0.0,0.0,0.0,0.0,0.0,0.0,0.0,0.0,0.0,0.0,0.0,0.0,0.0,0.0,0.0,0.0,0.0,0.0,0.0,0.0,0.0,0.0,0.0,0.0,0.0,0.0,0.0,0.0,0.0,0.0,0.0,0.0,0.1977,0.1937,0.1964,0.1851,0.1795,0.1795,0.1795,0.1795,0.1795,0.0,0.0,0.0,0.0,0.0,0.0,0.0,0.0,0.0,0.0,0.0,0.0,0.0,0.0,0.0,0.0,0.0,0.0,0.0,0.0,0.7988,0.7988,0.7988,0.7988,0.7988,0.7988,0.7988,0.7988,0.7988,0.7988,0.7988,0.8038,0.8038,0.8038,0.8287,0.8528,0.8726,0.9031,0.9187,0.9236,0.9236,0.9385,0.9525,0.9575,0.9575,0.9575,0.0,0.0,0.0,0.0,0.0,0.0,0.0,0.0,0.0,0.0,0.0,0.0,0.0,0.0,0.0,0.0,0.0,0.0,0.0,0.0,0.0,0.0,0.0,0.0,0.0,0.0,0.0,0.0,0.0,0.0,0.0,0.0,0.0,0.0,0.0,0.0,0.0,0.0,0.0,0.0,0.0,0.338,0.3232,0.0,0.0,0.0,0.0,0.0,0.0,0.0,0.0,0.0,0.0,0.0,0.0,0.0,0.0,0.2562,0.2835,0.2969,0.2903,0.2684,0.2576,0.258,0.202,0.1795,0.1795,0.1795,0.0,0.1795,0.1795,0.0,0.0,0.0,0.0,0.0,0.0,0.0,0.0,0.0,0.0,0.0,0.0,0.0,0.0,0.0,0.0,0.0,0.0,0.0,0.0,0.0,0.8137,0.8187,0.7988,0.8137,0.8137,0.7988,0.7988,0.7988,0.7988,0.8137,0.8287,0.8428,0.8577,0.8775,0.9031,0.9137,0.9286,0.9434,0.9434,0.9484,0.9575,0.9575,0.9575,0.9575,0.9575,0.0,0.0,0.0,0.0,0.0,0.0,0.0,0.0,0.0,0.0,0.0,0.0,0.0,0.0,0.0,0.0,0.0,0.0,0.0,0.0,0.0,0.0,0.0,0.0,0.0,0.0,0.0,0.0,0.0,0.0,0.0,0.0,0.0,0.0,0.0,0.0,0.0,0.0,0.0,0.4182,0.3181,0.3181,0.3078,0.3027,0.0,0.0,0.0,0.0,0.0,0.0,0.0,0.0,0.0,0.3029,0.2894,0.2753,0.2664,0.2608,0.2505,0.2354,0.2244,0.2188,0.2188,0.1908,0.1795,0.1795,0.1795,0.1795,0.1795,0.1795,0.1795,0.1795,0.0,0.0,0.0,0.0,0.0,0.1795,0.0,0.0,0.0,0.0,0.0,0.0,0.0,0.0,0.0,0.0,0.0,0.0,0.8088,0.8287,0.8287,0.8038,0.8187,0.8237,0.7988,0.7988,0.7988,0.7988,0.8237,0.8478,0.8676,0.8825,0.8981,0.9187,0.9286,0.9385,0.9575,0.9575,0.9575,0.9575,0.9575,0.9575,0.9575,0.9575,0.9575,0.9575,0.0,0.0,0.0,0.0,0.0,0.0,0.0,0.0,0.0,0.0,0.0,0.0,0.0,0.0,0.0,0.0,0.0,0.0,0.0,0.0,0.0,0.0,0.0,0.0,0.0,0.0,0.0,0.0,0.0,0.0,0.0,0.0,0.0,0.0,0.0,0.0,0.0,0.3883,0.3181,0.3181,0.3181,0.3187,0.0,0.0,0.0,0.0,0.0,0.0,0.3109,0.2944,0.2973,0.3193,0.3078,0.2937,0.2937,0.2721,0.25,0.233,0.2215,0.2158,0.2044,0.1989,0.1932,0.1819,0.1819,0.1819,0.1817,0.1801,0.1795,0.1795,0.1795,0.1795,0.1795,0.1795,0.1795,0.1795,0.0,0.0,0.0,0.0,0.0,0.0,0.0,0.0,0.0,0.0,0.0,0.8386,0.8386,0.8379,0.8287,0.8038,0.7988,0.7988,0.7988,0.7988,0.7988,0.7988,0.8237,0.8386,0.8435,0.8931,0.9187,0.9187,0.9434,0.9575,0.9575,0.9575,0.9575,0.9575,0.9575,0.9575,0.9575,0.9575,0.9575,0.9575,0.9575,0.0,0.0,0.0,0.0,0.0,0.0,0.0,0.0,0.0,0.0,0.0,0.0,0.0,0.0,0.0,0.0,0.0,0.0,0.0,0.0,0.0,0.0,0.0,0.0,0.0,0.0,0.0,0.0,0.0,0.0,0.0,0.0,0.0,0.0,0.0,0.0,0.0,0.0,0.3181,0.3181,0.0,0.0,0.0,0.0,0.3029,0.3293,0.3488,0.3493,0.3495,0.3583,0.3583,0.3643,0.3673,0.3673,0.3672,0.3702,0.3702,0.3347,0.3054,0.2761,0.2469,0.2175,0.1881,0.1881,0.1881,0.1877,0.1819,0.1795,0.1795,0.1795,0.1795,0.1795,0.1795,0.1795,0.1795,0.0,0.0,0.0,0.0,0.0,0.8038,0.8237,0.8237,0.8336,0.8627,0.8528,0.8379,0.8379,0.8379,0.8287,0.8038,0.8336,0.8428,0.8287,0.8435,0.8528,0.8528,0.8627,0.8733,0.8931,0.9278,0.9484,0.9484,0.9688,0.9795,0.9795,0.9916,0.9973,0.9965,0.9843,0.9795,0.9786,0.9673,0.9575,0.9575,0.9575,0.9575,0.0,0.0,0.0,0.0,0.0,0.0,0.0,0.0,0.0,0.0,0.0,0.0,0.0,0.0,0.0,0.0,0.0,0.0,0.0,0.0,0.0,0.0,0.0,0.0,0.0,0.0,0.0,0.0,0.0,0.0,0.0,0.0,0.0,0.0,0.0,0.0,0.0,0.3181,0.3213,0.0,0.3164,0.3305,0.335,0.3299,0.3431,0.3531,0.3608,0.3635,0.3662,0.3703,0.3551,0.3444,0.3444,0.3286,0.3122,0.2886,0.2769,0.2533,0.2239,0.2121,0.2003,0.1885,0.1885,0.1885,0.1884,0.1862,0.1853,0.1853,0.1853,0.1853,0.1853,0.1853,0.1853,0.185,0.0,0.0,0.0,0.0,0.8137,0.8237,0.8478,0.8485,0.8535,0.8882,0.8676,0.8528,0.8528,0.8428,0.8336,0.8137,0.8485,0.8627,0.8528,0.8726,0.8825,0.8825,0.8874,0.9103,0.9414,0.9614,0.9746,0.9811,0.9925,0.9981,0.9981,1.0155,1.0212,1.0204,1.0082,0.9981,0.9965,0.9786,0.9681,0.9575,0.9575,0.9575,0.9575,0.0,0.0,0.0,0.0,0.0,0.0,0.0,0.0,0.0,0.0,0.0,0.0,0.0,0.0,0.0,0.0,0.0,0.0,0.0,0.0,0.0,0.0,0.0,0.0,0.0,0.0,0.0,0.0,0.0,0.0,0.0,0.0,0.0,0.0,0.0,0.3211,0.3211,0.3316,0.336,0.3379,0.3417,0.3474,0.355,0.3559,0.3602,0.3703,0.3709,0.3728,0.3827,0.361,0.3512,0.353,0.3367,0.3142,0.298,0.2859,0.2615,0.2312,0.219,0.2067,0.1945,0.1945,0.1945,0.1945,0.1945,0.1945,0.1943,0.1902,0.1885,0.1885,0.1885,0.1885,0.1883,0.0,0.0,0.0,0.8435,0.8435,0.8478,0.8775,0.8577,0.8634,0.9137,0.8981,0.8825,0.8825,0.8577,0.8435,0.8435,0.8435,0.8528,0.8775,0.8825,0.8825,0.8825,0.9088,0.9414,0.9884,0.9892,0.9981,1.0212,1.022,1.022,1.022,1.0228,1.0228,1.0228,1.0228,1.022,1.0212,0.9973,0.9795,0.9583,0.9583,0.9575,0.9575,0.0,0.0,0.0,0.0,0.0,0.0,0.0,0.0,0.0,0.0,0.0,0.0,0.0,0.0,0.0,0.0,0.0,0.0,0.0,0.0,0.0,0.0,0.0,0.0,0.0,0.0,0.0,0.0,0.0,0.0,0.0,0.0,0.0,0.3644,0.3337,0.3376,0.3376,0.3379,0.3436,0.3493,0.3501,0.355,0.3673,0.3681,0.3709,0.3827,0.3774,0.3777,0.3777,0.3896,0.3897,0.3895,0.3948,0.4002,0.4061,0.3737,0.3417,0.3097,0.2775,0.2451,0.2128,0.2128,0.2128,0.2128,0.2128,0.2128,0.2116,0.1936,0.1889,0.1889,0.1889,0.1888,0.1887,0.0,0.0,0.8676,0.8676,0.8676,0.8775,0.9031,0.9031,0.908,0.9434,0.9278,0.908,0.908,0.8832,0.8676,0.8676,0.8882,0.9031,0.908,0.9278,0.9377,0.9377,0.9596,0.9785,0.9884,1.0014,1.0163,1.0212,1.0298,1.0363,1.0363,1.0485,1.0542,1.0542,1.0412,1.0363,1.0347,1.016,0.9981,0.9803,0.9681,0.9575,0.9575,0.0,0.0,0.0,0.0,0.0,0.0,0.0,0.0,0.0,0.0,0.0,0.0,0.0,0.0,0.0,0.0,0.0,0.0,0.0,0.0,0.0,0.0,0.0,0.0,0.0,0.0,0.0,0.0,0.0,0.0,0.0,0.6686,0.6492,0.5848,0.511,0.4695,0.4695,0.3972,0.3496,0.3556,0.3602,0.3659,0.3739,0.3744,0.383,0.3891,0.3877,0.3918,0.3959,0.4022,0.406,0.4013,0.4093,0.3981,0.3737,0.3672,0.3417,0.3097,0.3033,0.2775,0.2451,0.2451,0.2322,0.2128,0.2128,0.2128,0.2123,0.2004,0.1982,0.1979,0.1959,0.1937,0.1918,0.0,0.8783,0.8981,0.8981,0.8981,0.908,0.9335,0.9286,0.9286,0.9575,0.9278,0.908,0.9187,0.8882,0.8726,0.8931,0.913,0.9236,0.9385,0.9525,0.9657,0.973,0.9827,0.9957,1.0111,1.0225,1.0314,1.0387,1.0493,1.0542,1.0542,1.0647,1.0688,1.0688,1.059,1.0542,1.0534,1.0355,1.0217,1.0095,0.9835,0.9689,0.9575,0.9575,0.9575,0.9575,0.9575,0.9575,0.9575,0.9575,0.0,0.0,0.0,0.0,0.0,0.0,0.0,0.0,0.0,0.0,0.0,0.0,0.0,0.0,0.0,0.0,0.0,0.0,0.0,0.0,0.0,0.0,0.0,0.0,0.7819,0.7543,0.7543,0.6235,0.5062,0.4561,0.3975,0.3597,0.3657,0.3695,0.3741,0.3863,0.3831,0.3872,0.3929,0.3992,0.3975,0.4071,0.4106,0.4139,0.4164,0.4164,0.4047,0.3874,0.374,0.3612,0.3415,0.3218,0.3021,0.0,0.2693,0.2562,0.2365,0.2168,0.2168,0.0,0.0,0.0,0.0,0.0,0.2003,0.1986,0.0,0.9141,0.9291,0.9291,0.9275,0.9359,0.9607,0.9393,0.9335,0.9583,0.9179,0.8981,0.9236,0.8832,0.8733,0.9187,0.9236,0.9335,0.9575,0.9575,0.9705,0.9876,0.99,1.0079,1.0375,1.0399,1.0542,1.0688,1.0712,1.072,1.072,1.0745,1.0745,1.072,1.072,1.0712,1.068,1.0526,1.0399,1.035,1.0079,0.9827,0.9657,0.9583,0.9575,0.9575,0.9575,0.9575,0.9575,0.9575,0.0,0.0,0.0,0.0,0.0,0.0,0.0,0.0,0.0,0.0,0.0,0.0,0.0,0.0,0.0,0.0,0.0,0.0,0.0,0.0,0.0,0.0,0.0,0.0,0.9413,0.8817,0.8574,0.6785,0.5076,0.3927,0.3765,0.3711,0.3833,0.3785,0.3815,0.3935,0.3937,0.393,0.3978,0.0,0.0,0.0,0.0,0.4172,0.4226,0.4226,0.4256,0.4319,0.3979,0.3847,0.3785,0.344,0.3236,0.3102,0.283,0.2694,0.2627,0.229,0.2223,0.2216,0.2157,0.2131,0.2128,0.2128,0.2128,0.0,0.0,0.9796,1.0011,1.0011,0.9882,0.9785,0.9835,0.9672,0.9525,0.9575,0.9525,0.9476,0.9525,0.9426,0.9426,0.9525,0.9533,0.9525,0.9575,0.9575,0.9705,0.9876,1.0082,1.0209,1.0375,1.0574,1.0655,1.0688,1.0842,1.0915,1.0915,1.1053,1.1045,1.0915,1.0915,1.0834,1.0688,1.0655,1.0558,1.0375,1.0302,1.0128,0.9819,0.9681,0.9575,0.9575,0.9575,0.9575,0.9575,0.9575,0.9575,0.9575,0.9575,0.9575,0.0,0.0,0.0,0.0,0.0,0.0,0.0,0.0,0.0,0.0,0.0,0.0,0.0,0.0,0.0,0.0,0.0,0.0,0.0,0.9115,0.9594,0.9497,0.7897,0.7196,0.6417,0.5252,0.4351,0.3836,0.3896,0.3886,0.3879,0.3997,0.4057,0.4095,0.4106,0.4166,0.0,0.4199,0.4245,0.4278,0.4289,0.4289,0.4322,0.4382,0.0,0.0,0.3894,0.3783,0.3422,0.2805,0.2707,0.2559,0.229,0.2223,0.2223,0.2218,0.2114,0.2086,0.2128,0.2128,0.2128,0.2128,0.0,1.0229,1.0212,1.0212,1.0139,1.0073,1.0073,0.9868,0.9754,0.9754,0.9532,0.9434,0.9575,0.9484,0.9434,0.9575,0.9575,0.9575,0.9575,0.9575,0.9746,1.0065,1.0163,1.029,1.0558,1.0647,1.0688,1.0688,1.0785,1.0875,1.1028,1.0956,1.0964,1.102,1.0875,1.0777,1.0688,1.0688,1.0639,1.0558,1.0415,1.0274,1.0057,0.9827,0.9705,0.9575,0.9575,0.9575,0.9575,0.9575,0.9575,0.9575,0.9575,0.9575,0.9575,0.0,0.0,0.0,0.0,0.0,0.0,0.0,0.0,0.0,0.0,0.0,0.0,0.0,0.0,1.0054,1.0144,0.0,1.0291,0.9776,0.9749,0.9473,0.8439,0.7824,0.7264,0.6745,0.5558,0.5103,0.5896,0.6011,0.6073,0.6223,0.625,0.6304,0.6304,0.639,0.6374,0.6374,0.6527,0.6572,0.6572,0.6621,0.6324,0.5612,0.5612,0.5008,0.3925,0.3899,0.354,0.2984,0.2826,0.268,0.2472,0.2252,0.2169,0.222,0.2138,0.2123,0.2175,0.2175,0.2175,0.2175,0.0,1.0461,1.0318,1.0318,1.0241,1.0217,1.0217,1.0054,0.9941,0.9941,0.9617,0.9472,0.9631,0.9482,0.9416,0.9583,0.9575,0.9575,0.9575,0.9575,0.977,1.0147,1.0196,1.0367,1.0631,1.0672,1.0688,1.0688,1.0729,1.0826,1.102,1.085,1.0858,1.0964,1.081,1.0729,1.0688,1.0688,1.0688,1.068,1.0501,1.0322,1.0196,0.9957,0.9778,0.9575,0.9575,0.9575,0.9575,0.9575,0.9575,0.9575,0.9575,0.9575,0.9575,0.9575,0.9575,0.0,0.0,0.0,0.0,0.0,0.0,0.0,0.0,0.9657,0.9721,0.986,1.0063,1.0257,1.035,1.0574,1.0649,1.0461,0.9902,0.9497,0.9325,0.8611,0.823,0.8582,0.7205,0.6733,0.7957,0.8141,0.827,0.8433,0.8491,0.8492,0.8492,0.8607,0.8606,0.8606,0.8788,0.8848,0.8848,0.9015,0.8452,0.7292,0.7292,0.6395,0.4729,0.4715,0.4429,0.4007,0.3715,0.3571,0.3569,0.3255,0.3082,0.3117,0.3109,0.3107,0.2971,0.2426,0.2223,0.2223,0.0,1.0664,1.0631,1.0631,1.0509,1.0404,1.0404,1.0249,1.018,1.018,1.0111,1.0038,0.9876,0.986,0.9744,0.9591,0.9575,0.9575,0.9575,0.9575,0.9713,0.9908,1.0071,1.0257,1.0407,1.0615,1.0688,1.0688,1.0858,1.1004,1.1028,1.1102,1.1094,1.1028,1.1004,1.0842,1.0688,1.0688,1.0688,1.068,1.0501,1.0322,1.0196,0.9957,0.9778,0.9575,0.9575,0.9575,0.9575,0.9575,0.9575,0.9575,0.9575,0.9575,0.9575,0.9575,0.9575,0.9575,0.9575,0.9575,0.9575,0.9575,0.9575,0.9575,0.0,0.9746,0.986,0.9884,1.016,1.0358,1.0375,1.0574,1.0406,0.9483,1.0152,1.0558,0.9724,0.9446,0.9866,1.1371,0.936,0.7884,0.8097,0.8295,0.8491,0.8502,0.8552,0.8618,0.8618,0.8727,0.8793,0.8793,0.8982,0.9043,0.9043,0.906,0.9051,0.8949,0.8949,0.8505,0.7661,0.7642,0.7248,0.6469,0.6461,0.643,0.643,0.6418,0.6341,0.6391,0.6244,0.6217,0.5866,0.3175,0.2223,0.2223,0.0,0.0,1.0688,1.0688,1.0631,1.0582,1.0582,1.0436,1.0322,1.0322,1.0225,1.0188,1.0054,0.9949,0.9819,0.964,0.9575,0.9575,0.9575,0.9575,0.9705,0.9876,0.9957,1.0136,1.0375,1.0509,1.059,1.0688,1.0769,1.0867,1.1028,1.0932,1.0932,1.0964,1.0858,1.0761,1.0688,1.0688,1.0631,1.0534,1.0415,1.0257,1.0041,0.9916,0.9778,0.9575,0.9575,0.9575,0.0,0.9575,0.9575,0.9575,0.9575,0.9575,0.9575,0.9575,0.9575,0.9575,0.9575,0.9575,0.9575,0.9575,0.9575,0.9657,0.9754,0.9835,0.9949,1.016,1.0278,1.0469,1.0566,1.0729,1.0763,0.0,1.0849,1.1155,1.0819,1.0883,1.1187,1.195,1.1265,1.0742,1.0742,1.0791,1.0904,1.0995,1.1,1.1077,1.1227,1.1291,1.1368,1.146,1.1614,1.1699,1.1699,1.1853,1.1436,1.0565,1.0565,0.9875,0.8415,0.8227,0.7706,0.6913,0.6023,0.5628,0.5517,0.4602,0.4721,0.559,0.5487,0.603,0.6635,0.5207,0.4096,0.343,0.0,0.0,0.0,1.0688,1.0688,1.0688,1.0688,1.059,1.0509,1.0509,1.0387,1.0343,1.0241,1.003,0.9835,0.9705,0.9657,0.9575,0.9575,0.9575,0.9681,0.9811,0.986,1.0006,1.0282,1.0331,1.0444,1.0623,1.0623,1.0712,1.0891,1.0753,1.0761,1.0883,1.0753,1.0664,1.0623,1.0623,1.0517,1.0355,1.0306,1.0128,0.9884,0.9827,0.9738,0.9575,0.9575,0.9575,0.9575,0.9575,0.9575,0.9575,0.9575,0.9575,0.9575,0.9575,0.9575,0.9575,0.9575,0.9575,0.9575,0.9575,0.9665,0.973,0.986,0.9965,1.0111,1.0326,1.0423,1.0542,1.0672,1.0842,1.098,1.1029,1.1297,1.1516,1.1565,1.1833,1.2052,1.2101,1.2377,1.258,1.2637,1.2637,1.2694,1.2758,1.2881,1.2962,1.3084,1.3189,1.3311,1.3441,1.362,1.3717,1.3717,1.3839,1.3317,1.2237,1.2237,1.1442,0.9928,0.943,0.8925,0.8343,0.7119,0.6361,0.5805,0.4666,0.4923,0.5863,0.542,0.6181,0.7422,0.6702,0.5822,0.4931,0.0,0.0,0.0,0.0,1.0688,1.0688,1.0688,1.0688,1.068,1.068,1.068,1.0615,1.0444,1.0103,0.9884,0.9876,0.9721,0.9575,0.9575,0.9575,0.9583,0.9583,0.9795,0.9892,0.99,1.0131,1.0257,1.0391,1.0391,1.0534,1.0704,1.0696,1.0696,1.0704,1.0696,1.0599,1.0391,1.0391,1.0339,1.0204,0.9973,0.9892,0.9868,0.9697,0.9583,0.9575,0.9575,0.9575,0.9575,0.9575,0.9575,0.9575,0.9575,0.9575,0.9575,0.9575,0.9575,0.9575,0.9575,0.9575,0.9575,0.9575,0.9754,0.9876,0.9884,1.016,1.0366,1.0383,1.0566,1.0688,1.0688,1.0842,1.1021,1.1191,1.1378,1.1565,1.1744,1.1922,1.2093,1.228,1.245,1.2629,0.0,1.2766,1.2832,1.2774,1.2994,1.3084,1.3092,1.3433,1.3558,1.3566,1.3807,1.3896,1.3896,1.3896,1.3904,1.3833,1.3833,1.3611,1.3111,1.2402,1.2051,1.2051,1.1548,1.0527,0.9141,0.9141,0.9136,0.8976,0.7371,0.7686,0.8802,0.7148,0.657,0.6634,0.0,0.0,0.0,0.0,0.0,1.0688,1.0688,1.0688,1.0688,1.0688,1.0688,0.0,0.0,0.0,0.0,0.0,0.9827,0.9746,0.9583,0.9575,0.9575,0.9575,0.9681,0.977,0.9884,0.9949,1.0071,1.0257,1.0257,1.0282,1.0392,1.0392,1.0392,1.0392,1.0392,1.0306,1.0257,1.0257,1.0144,0.9973,0.9908,0.9819,0.9705,0.9648,0.9575,0.9575,0.0,0.9575,0.9575,0.9575,0.9575,0.9575,0.9575,0.9575,0.9575,0.9575,0.9575,0.9575,0.9575,0.9713,0.9803,0.9803,0.9933,1.0103,1.0225,1.0347,1.0415,1.0582,1.0753,1.0875,1.0875,1.1118,1.1338,1.1395,1.1565,1.1703,1.1768,1.2028,1.2239,1.2304,1.2564,0.0,0.0,0.0,0.0,1.2774,1.2994,1.3149,1.3271,1.3514,1.3623,1.3815,1.3872,1.3904,1.3904,1.3904,1.3904,1.3904,1.3904,1.369,1.3253,1.2832,1.2474,1.2122,1.0671,0.9801,0.9219,0.8203,0.8348,0.9213,0.8668,0.9374,1.0668,1.012,0.9877,0.9399,0.0,0.0,0.0,0.0,0.0,0.0,0.0,0.0,0.0,0.0,0.0,0.0,0.0,0.0,0.0,0.0,0.0,0.9835,0.973,0.9665,0.9575,0.9575,0.9575,0.9681,0.9786,0.9795,0.9884,1.0114,1.0114,1.0147,1.0212,1.0212,1.0212,1.0212,1.0212,1.018,1.0114,1.0114,0.9957,0.9795,0.9795,0.973,0.9575,0.9575,0.9575,0.0,0.9575,0.9575,0.9575,0.9575,0.9575,0.9575,0.9575,0.9575,0.9575,0.9575,0.9575,0.964,0.9705,0.9803,0.99,0.9965,1.0119,1.029,1.035,1.0485,1.0558,1.0672,1.0842,1.1028,1.1028,1.1256,1.15,1.15,1.1654,1.1776,1.1776,1.2085,1.2304,1.2304,1.2621,1.2774,0.0,0.0,0.0,1.2774,1.3059,1.3246,1.3368,1.3604,1.379,1.3896,1.3904,1.3904,1.3904,1.3904,1.3904,1.3904,1.3904,1.3753,1.3468,1.3111,1.2753,1.233,1.0959,0.9939,0.9219,0.8203,0.842,0.9219,0.8709,0.9435,1.0743,1.0161,0.9893,0.9516,0.0,0.0,0.0,0.0,0.0,0.0,0.0,0.0,0.0,0.0,0.0,0.0,0.0,0.0,0.0,0.0,0.0,0.0,0.9884,0.9721,0.9575,0.9575,0.9575,0.9575,0.9575,0.9575,0.9705,0.9868,0.9868,0.9965,1.0188,1.0188,1.0188,1.0188,1.0188,1.0038,0.9868,0.9868,0.9778,0.9575,0.9575,0.9575,0.9575,0.9575,0.9575,0.9575,0.9575,0.9575,0.9575,0.9575,0.9575,0.9575,0.9575,0.9575,0.9575,0.9575,0.9583,0.9673,0.9843,0.99,0.9957,1.0188,1.0314,1.0391,1.0391,1.0574,1.0688,1.0688,1.0842,1.1028,1.1037,0.0,1.15,1.1508,1.1663,1.1776,1.1776,1.2085,1.2304,0.0,0.0,0.0,0.0,0.0,0.0,1.2782,0.0,1.3376,1.3384,1.3709,1.3904,1.3904,1.3904,1.3904,1.3904,1.3904,1.3904,1.3904,1.3904,1.3904,1.3904,1.3468,1.3111,1.2824,1.2409,1.1175,0.9435,0.9435,0.9435,0.9291,0.7837,0.8126,0.9219,0.7765,0.7259,0.7607,0.0,0.0,0.0,0.0,0.0,0.0,0.0,0.0,0.0,0.0,0.0,0.0,0.0,0.0,0.0,0.0,0.0,0.0,0.9892,0.9721,0.9575,0.9575,0.9575,0.9575,0.9575,0.9575,0.9648,0.9697,0.9697,0.9721,0.9762,0.9762,0.9762,0.9762,0.9762,0.9738,0.9697,0.9697,0.9665,0.9575,0.9575,0.9575,0.9575,0.9575,0.9575,0.9575,0.9575,0.9575,0.9575,0.9575,0.9575,0.9575,0.9575,0.9575,0.9575,0.9575,0.9721,0.9827,0.9876,1.0087,1.0306,1.0355,1.0501,1.0623,1.0623,1.0664,1.0688,1.0688,1.0842,1.1005,1.1135,1.1346,0.0,1.1687,1.1744,0.0,1.1776,1.2085,0.0,1.2304,1.2621,1.2774,1.2774,1.2774,0.0,0.0,1.3238,1.3433,1.3563,1.3782,1.3904,1.3904,1.3904,1.3904,1.3904,1.3904,1.3904,1.3904,1.3904,1.3904,1.3904,1.3468,1.3253,1.3111,1.2474,1.1907,1.1469,1.1109,1.1038,1.0966,1.0599,1.0671,1.0966,1.0599,1.0455,1.0521,0.0,0.0,0.0,0.0,0.0,0.0,0.0,0.0,0.0,0.0,0.0,0.0,0.0,0.0,0.0,0.0,0.0,0.0,0.0,0.9843,0.9705,0.9583,0.9575,0.9575,0.9575,0.9575,0.9575,0.9575,0.9575,0.9575,0.9575,0.9575,0.9575,0.9575,0.9575,0.9575,0.9575,0.9575,0.9575,0.0,0.0,0.9575,0.9575,0.9575,0.9575,0.9575,0.9575,0.9575,0.9575,0.9575,0.9575,0.9575,0.9575,0.9575,0.9575,0.9575,0.9746,0.99,0.9981,1.0217,1.0399,1.0526,1.0623,1.0688,1.0688,1.0688,1.0688,1.0688,1.0842,1.0997,1.1094,1.1321,1.1533,0.0,0.0,0.0,1.1776,1.2085,1.2304,0.0,1.2621,0.0,1.2774,1.2774,1.2938,0.0,1.3311,1.3449,1.3566,1.3807,1.3904,1.3904,1.3904,1.3904,1.3904,1.3904,1.3904,1.3904,1.3904,1.3904,1.3904,1.3682,1.3468,1.3253,0.0,1.2338,1.2194,1.1763,1.1619,1.1619,1.1619,1.1619,1.1619,1.1619,1.1619,1.1619,0.0,0.0,0.0,0.0,0.0,0.0,0.0,0.0,0.0,0.0,1.0688,1.0688,0.0,0.0,0.0,0.0,0.0,0.0,0.0,0.0,0.9819,0.9665,0.9591,0.9575,0.9575,0.9575,0.9575,0.9575,0.9575,0.9575,0.9575,0.9575,0.9575,0.9575,0.9575,0.9575,0.9575,0.9575,0.9575,0.9575,0.9575,0.9575,0.9575,0.0,0.9575,0.9575,0.9575,0.9575,0.9575,0.9575,0.9575,0.9575,0.9575,0.9575,0.9575,0.9575,0.977,0.9957,1.0171,1.0314,1.0509,1.0655,1.0688,1.0688,1.0688,1.0688,1.0688,1.0688,1.0818,1.0996,1.102,1.1224,1.1443,1.1492,0.0,1.1752,1.1776,1.2085,1.2304,1.2304,1.2621,1.2774,1.2774,1.2774,1.2986,1.3344,1.3368,1.3465,1.3598,1.3823,1.3904,1.3904,1.3904,1.3904,1.3904,1.3904,1.3904,1.3904,1.3904,1.3904,1.3904,1.3904,1.3682,1.3325,0.0,0.0,1.2266,1.1835,1.1619,1.1619,1.1619,1.1619,1.1619,1.1619,1.1619,1.1619,0.0,0.0,0.0,0.0,0.0,0.0,0.0,0.0,0.0,0.0,1.0688,1.0688,0.0,0.0,0.0,0.0,0.0,0.0,0.0,0.0,0.0,0.9843,0.9705,0.9575,0.9575,0.9575,0.9575,0.9575,0.9575,0.9575,0.9575,0.9575,0.9575,0.9575,0.9575,0.9575,0.9575,0.9575,0.9575,0.9575,0.9575,0.9575,0.9575,0.9575,0.0,0.0,0.9575,0.9575,0.9575,0.9575,0.9575,0.9575,0.9575,0.9575,0.9575,0.9575,0.986,1.0171,1.0204,1.0396,1.0655,1.0688,1.0688,1.0688,1.0688,1.0688,1.0688,1.0688,1.072,1.0785,1.0996,1.1077,1.1159,1.1451,1.1524,1.1606,1.1752,1.2085,1.2304,0.0,1.2621,1.2774,1.2774,1.2774,0.0,0.0,0.0,1.3514,1.3839,1.3888,1.3904,1.3904,1.3904,1.3904,1.3904,1.3904,1.3904,1.3904,1.3904,1.3904,1.3904,1.3904,1.3833,1.3753,0.0,0.0,1.2681,1.2266,1.1907,1.1619,1.1619,1.1619,1.1619,1.1619,1.1619,1.1619,0.0,0.0,0.0,0.0,0.0,0.0,0.0,1.0688,1.0688,1.0688,1.0688,1.0688,1.0688,1.0688,1.0688,0.0,0.0,0.0,0.0,0.0,0.0,0.0,0.0,0.0,0.9583,0.9575,0.9575,0.9575,0.0,0.9575,0.9575,0.9575,0.9575,0.9575,0.9575,0.9575,0.9575,0.9575,0.9575,0.9575,0.9575,0.9575,0.9575,0.0,0.0,0.0,0.9575,0.9575,0.9575,0.9575,0.9575,0.9575,0.9575,0.9575,0.9575,0.9575,0.9884,1.0212,1.0212,1.042,1.0688,1.0688,1.0688,1.0688,1.0688,1.0688,1.0688,1.0688,1.0688,1.072,1.081,1.0907,1.1053,1.1313,1.1435,1.1565,1.1752,1.1996,1.2199,1.2296,1.254,1.2735,1.2766,1.2774,1.2986,0.0,0.0,1.3522,1.388,1.3904,1.3904,1.3904,1.3904,1.3904,1.3904,1.3904,1.3904,1.3904,1.3904,1.3904,1.3904,1.3904,1.3904,1.3904,1.3253,0.0,1.2753,1.2115,1.1763,1.1619,1.1619,1.1619,1.1619,1.1619,1.1619,1.1619,0.0,0.0,0.0,0.0,0.0,0.0,1.0688,1.0688,1.0688,1.0688,1.0688,1.0688,1.0688,1.0688,1.0688,0.0,0.0,0.0,0.0,0.0,0.0,0.0,0.0,0.0,0.0,0.0,0.0,0.9575,0.9575,0.0,0.0,0.0,0.0,0.0,0.9575,0.9575,0.9575,0.9575,0.9575,0.0,0.0,0.9575,0.0,0.0,0.0,0.0,0.0,0.9575,0.9575,0.9575,0.9575,0.9575,0.9575,0.9575,0.9575,0.9575,0.9884,1.0212,1.0212,1.042,1.0688,1.0688,1.0688,1.0688,1.0688,1.0688,1.0688,1.0688,1.0688,1.0688,1.0688,1.081,1.098,1.1191,1.1346,1.1516,1.1744,1.1922,1.2101,1.2288,1.2458,0.0,1.2824,1.2774,0.0,0.0,0.0,0.0,1.3888,1.3904,1.3904,1.3904,1.3904,1.3904,1.3904,1.3904,1.3904,1.3904,1.3904,1.3904,1.3904,1.3904,1.3833,1.3761,1.3182,0.0,0.0,1.1972,1.1691,1.1619,1.1619,1.1619,1.1619,1.1619,1.1619,1.1619,0.0,0.0,0.0,0.0,0.0,0.0,1.0688,1.0688,1.0688,1.0688,1.0688,1.0688,1.0688,1.0688,1.0688,0.0,0.0,0.0,0.0,0.0,0.0,0.0,0.0,0.0,0.0,0.0,0.0,0.9575,0.9575,0.0,0.0,0.0,0.0,0.0,0.0,0.0,0.9575,0.9575,0.0,0.0,0.0,0.0,0.0,0.0,0.0,0.0,0.0,0.9575,0.9575,0.9575,0.9575,0.9575,0.9575,0.9575,0.9575,0.9575,0.9884,1.0212,1.0212,1.042,1.0688,1.0688,1.0688,1.0688,1.0688,1.0688,1.0688,1.0688,1.0688,1.0688,1.0688,1.0704,1.0826,1.1167,1.124,1.137,1.1727,1.1922,1.2101,1.2288,0.0,0.0,1.2824,1.2774,0.0,0.0,0.0,0.0,0.0,1.3904,1.3904,1.3904,1.3904,1.3904,1.3904,1.3904,1.3904,1.3904,1.3904,1.3904,1.3904,1.3904,1.3682,1.3325,0.0,0.0,0.0,1.2194,1.1907,1.1619,1.1619,1.1619,1.1619,1.1619,1.1619,1.1619,0.0,0.0,0.0,0.0,0.0,0.0,1.0688,1.0688,1.0688,1.0688,1.0688,1.0688,1.0688,1.0688,1.0688,1.0688,0.0,0.0,0.0,0.0,0.0,0.0,0.0,0.0,0.0,0.0,0.973,0.9575,0.9575,0.0,0.0,0.0,0.0,0.0,0.0,0.0,0.0,0.0,0.0,0.0,0.0,0.0,0.0,0.0,0.0,0.0,0.0,0.0,0.9575,0.9575,0.9575,0.9575,0.9575,0.9575,0.9599,0.9754,0.9965,1.0237,1.0298,1.0501,1.0688,1.0688,1.0688,1.0688,1.0688,1.0688,1.0688,1.0688,1.0688,1.0688,1.0688,1.0688,1.0777,1.1029,1.1151,1.1313,1.1573,1.176,1.1987,1.2272,1.2369,0.0,0.0,0.0,0.0,0.0,0.0,0.0,0.0,1.3904,1.3904,1.3904,1.3904,1.3904,1.3904,1.3904,1.3904,1.3904,1.3904,1.3904,1.3904,1.3682,1.3468,1.3253,0.0,0.0,0.0,1.1907,1.1763,1.1619,1.1619,1.1619,1.1619,1.1619,1.1619,1.1619,0.0,0.0,0.0,0.0,0.0,1.0688,1.0688,1.0688,1.0688,1.0688,1.0688,1.0688,1.0688,1.0688,1.0688,1.0688,1.0688,0.0,0.0,0.0,0.0,0.0,0.0,0.0,0.0,0.0,0.9827,0.9705,0.9657,0.9575,0.0,0.0,0.0,0.0,0.0,0.0,0.0,0.0,0.0,0.0,0.0,0.0,0.0,0.0,0.0,0.0,0.0,0.0,0.0,0.0,0.0,0.9786,0.9786,0.9786,0.9795,0.9868,1.0014,1.0253,1.0387,1.0558,1.0688,1.0688,1.0688,1.0688,1.0688,1.0688,1.0688,1.0688,1.0688,1.0688,1.0688,1.0688,1.0753,1.0996,1.111,1.1289,1.1476,1.1663,1.1906,1.2264,0.0,1.245,0.0,0.0,0.0,0.0,0.0,0.0,0.0,1.3904,1.3904,1.3904,1.3904,1.3904,1.3904,1.3904,1.3904,1.3904,1.3904,1.3904,1.3904,1.3611,1.3325,1.3111,0.0,0.0,0.0,1.1691,1.1619,1.1619,1.1619,1.1619,1.1619,1.1619,1.1619,1.1619,0.0,0.0,0.0,0.0,0.0,0.0,1.0688,1.0688,1.0688,1.0688,1.0688,1.0688,1.0688,1.0688,1.0688,1.0688,1.0688,0.0,0.0,0.0,0.0,0.0,0.0,0.0,0.0,0.0,0.9884,0.9884,0.9713,0.9575,0.9575,0.9575,0.9575,0.9575,0.0,0.0,0.0,0.0,0.0,0.0,0.0,0.0,0.9575,0.0,0.0,0.0,0.0,0.0,0.0,0.0,0.0,0.0,0.0,1.0204,1.0171,0.9941,1.0014,1.0253,1.0387,1.0558,1.0688,1.0688,1.0688,1.0688,1.0688,1.0688,1.0688,1.0688,1.0688,1.0688,1.0688,1.0688,1.0753,1.0996,1.111,1.1289,1.1476,1.1663,1.1906,0.0,0.0,1.245,0.0,0.0,0.0,0.0,0.0,0.0,0.0,1.3904,1.3904,1.3904,1.3904,1.3904,1.3904,1.3904,1.3904,1.3904,1.3904,1.3904,1.3904,1.3904,1.3468,0.0,0.0,0.0,0.0,1.1619,1.1619,1.1619,1.1619,1.1619,1.1619,1.1619,1.1619,1.1619,0.0,0.0,0.0,0.0,0.0,0.0,1.0688,1.0688,1.0688,1.0688,1.0688,1.0688,1.0688,1.0688,1.0688,1.0688,1.0688,0.0,0.0,0.0,0.0,0.0,0.0,0.0,0.0,1.0322,1.0136,0.9884,0.9827,0.9746,0.9575,0.9575,0.9575,0.9575,0.9575,0.0,0.0,0.0,0.0,0.0,0.0,0.9989,0.9989,0.0,0.0,0.0,0.0,0.0,0.0,0.0,0.0,0.0,0.0,0.0,0.0,1.0241,1.0298,1.0387,1.0566,1.0647,1.0688,1.0688,1.0688,1.0688,1.0688,1.0688,1.0688,1.0688,1.0688,1.0688,1.0688,1.0688,1.0712,1.0769,1.1029,1.124,0.0,0.0,0.0,1.2264,1.2523,1.2645,0.0,0.0,0.0,0.0,0.0,0.0,0.0,1.3904,1.3904,1.3904,1.3904,1.3904,1.3904,1.3904,1.3904,1.3904,1.3904,1.3904,1.3904,1.3611,0.0,0.0,0.0,0.0,0.0,1.1619,1.1619,1.1619,1.1619,1.1619,1.1619,1.1619,1.1619,1.1619,0.0,0.0,0.0,0.0,0.0,0.0,1.0688,1.0688,1.0688,1.0688,1.0688,1.0688,1.0688,1.0688,1.0688,1.0688,1.0688,0.0,0.0,0.0,0.0,0.0,0.0,0.0,1.0534,1.0415,1.0322,1.0095,1.0022,0.9933,0.9827,0.9827,0.9827,0.9827,0.9827,0.9827,0.0,0.0,0.0,0.0,1.0163,1.0212,1.0212,0.0,0.0,0.0,0.0,0.0,0.0,0.0,0.0,0.0,0.0,0.0,0.0,0.0,1.0534,1.0558,1.0664,1.0688,1.0688,1.0688,1.0688,1.0688,1.0688,1.0688,1.0688,1.0688,1.0688,1.0688,1.0688,1.0688,1.0712,1.0785,1.1037,1.1248,0.0,0.0,0.0,1.2264,0.0,0.0,0.0,0.0,0.0,0.0,0.0,0.0,0.0,0.0,1.3904,1.3904,1.3904,1.3904,1.3904,1.3904,1.3904,1.3904,1.3904,1.3904,1.3904,1.3611,0.0,0.0,0.0,0.0,0.0,1.1691,1.1619,1.1619,1.1619,1.1619,1.1619,1.1619,1.1619,1.1619,0.0,0.0,0.0,0.0,0.0,0.0,0.0,1.0688,1.0688,1.0688,1.0688,1.0688,1.0688,1.0688,1.0688,1.0688,1.0688,0.0,0.0,0.0,0.0,0.0,0.0,0.0,1.0688,1.0534,1.0391,1.0383,1.0266,1.0228,1.0212,1.0212,1.0212,1.0212,1.0212,1.0212,1.0212,1.0228,1.0237,1.0237,1.0245,1.0253,0.0,0.0,0.0,0.0,0.0,0.0,0.0,0.0,0.0,0.0,0.0,0.0,0.0,0.0,0.0,0.0,0.0,1.0688,1.0688,1.0688,1.0688,1.0688,1.0688,1.0688,0.0,1.0688,1.0688,1.0688,1.0688,1.0688,1.0753,1.0996,1.111,0.0,0.0,1.1679,0.0,0.0,0.0,0.0,0.0,0.0,0.0,0.0,0.0,0.0,0.0,0.0,1.3904,1.3904,1.3904,1.3904,1.3904,1.3904,1.3904,1.3904,1.3904,1.3904,1.3904,1.3904,0.0,0.0,0.0,0.0,0.0,1.1763,1.1619,1.1619,1.1619,1.1619,1.1619,1.1619,1.1619,1.1619,0.0,0.0,0.0,0.0,0.0,0.0,0.0,0.0,0.0,0.0,1.0688,1.0688,1.0688,1.0688,1.0688,0.0,0.0,0.0,0.0,0.0,0.0,0.0,0.0,0.0,1.0688,1.0647,1.0566,1.0383,1.0387,1.0298,1.0212,1.0212,1.0212,1.0212,1.0212,1.0212,1.022,1.0314,1.0371,1.0379,1.0517,1.0566,0.0,0.0,0.0,0.0,1.0566,1.059,0.0,0.0,0.0,0.0,0.0,0.0,0.0,0.0,1.0688,1.0688,1.0688,0.0,1.0688,1.0688,1.0688,1.0688,0.0,1.0688,1.0688,1.0688,1.0688,1.0688,1.0688,1.0688,1.0753,1.0996,0.0,0.0,1.1476,0.0,0.0,1.2296,0.0,0.0,0.0,0.0,0.0,0.0,0.0,0.0,0.0,0.0,1.3904,1.3904,1.3904,1.3904,1.3904,1.3904,1.3904,1.3904,1.3904,1.3904,1.3904,1.3904,0.0,0.0,0.0,0.0,1.1763,1.1619,1.1619,1.1619,1.1619,1.1619,1.1619,1.1619,1.1619,1.1619,0.0,0.0,0.0,0.0,0.0,0.0,0.0,0.0,0.0,0.0,1.0688,1.0688,1.0688,1.0688,1.0688,0.0,0.0,0.0,0.0,0.0,0.0,0.0,0.0,1.0688,1.0688,1.0688,1.0647,1.055,1.055,1.0501,1.0404,1.0404,1.0404,1.0404,1.0404,1.0404,1.0412,1.0509,1.055,1.0558,1.0655,0.0,0.0,0.0,0.0,0.0,1.0688,1.0688,0.0,1.0688,1.0688,1.0688,0.0,0.0,0.0,0.0,1.0688,1.0688,1.0688,1.0688,1.0688,1.0688,1.0688,1.0688,1.0688,1.0688,1.0688,1.0688,1.0688,1.0688,1.0688,1.0761,1.0875,1.1053,1.1232,0.0,0.0,0.0,0.0,0.0,0.0,0.0,0.0,0.0,0.0,0.0,0.0,0.0,0.0,0.0,1.3904,1.3904,1.3904,1.3904,1.3904,1.3904,1.3904,1.3904,1.3904,1.3904,1.3904,1.3904,0.0,0.0,0.0,0.0,1.2115,1.1763,1.1619,1.1619,1.1619,1.1619,1.1619,1.1619,1.1619,1.1619,0.0,0.0,0.0,0.0,0.0,0.0,0.0,0.0,0.0,0.0,0.0,0.0,0.0,0.0,0.0,0.0,0.0,0.0,0.0,0.0,0.0,0.0,1.0688,1.0688,1.0688,1.0688,1.0688,1.0688,1.0688,1.0688,1.0688,1.0688,1.0688,1.0688,1.0688,1.0688,1.0688,1.0688,1.0688,1.0688,1.0688,0.0,0.0,0.0,0.0,0.0,0.0,0.0,0.0,1.0688,1.0688,1.0688,1.0688,0.0,0.0,0.0,0.0,0.0,1.0688,1.0688,1.0688,1.0688,1.0688,1.0688,1.0688,1.0688,1.0688,1.0688,1.0688,1.0688,1.0688,1.0842,1.1021,0.0,0.0,0.0,1.1979,1.219,0.0,0.0,0.0,0.0,0.0,0.0,0.0,0.0,0.0,0.0,0.0,0.0,0.0,1.3904,1.3904,1.3904,1.3904,1.3904,1.3904,1.3904,1.3904,1.3904,1.3904,1.3904,1.3904,0.0,0.0,0.0,1.2681,1.1972,1.1691,1.1619,1.1619,1.1619,1.1619,1.1619,1.1619,1.1619,0.0,0.0,0.0,0.0,0.0,0.0,0.0,0.0,0.0,0.0,0.0,0.0,0.0,0.0,0.0,0.0,0.0,0.0,0.0,0.0,0.0,1.0688,1.0688,1.0688,1.0688,1.0688,1.0688,1.0688,1.0688,1.0688,1.0688,1.0688,1.0688,1.0688,1.0688,1.0688,1.0688,1.0688,1.0688,1.0688,1.0688,0.0,0.0,0.0,0.0,0.0,0.0,0.0,0.0,1.0688,1.0688,1.0688,1.0688,0.0,0.0,0.0,0.0,0.0,1.0688,1.0688,1.0688,1.0688,1.0688,1.0688,1.0688,1.0688,1.0688,1.0688,1.0688,1.0688,1.0688,1.0842,1.1021,0.0,0.0,1.1801,0.0,0.0,0.0,0.0,0.0,0.0,0.0,0.0,0.0,0.0,0.0,0.0,0.0,0.0,0.0,1.3904,1.3904,1.3904,1.3904,1.3904,1.3904,1.3904,1.3904,1.3904,1.3904,1.3904,1.3682,0.0,0.0,1.2904,1.2266,1.2194,1.1907,1.1619,1.1619,1.1619,1.1619,1.1619,1.1619,1.1619,0.0,0.0,0.0,0.0,0.0,0.0,0.0,0.0,0.0,0.0,0.0,0.0,0.0,0.0,0.0,0.0,0.0,0.0,0.0,0.0,1.0688,1.0688,1.0688,1.0688,1.0688,1.0688,1.0688,1.0688,1.0688,1.0688,1.0688,1.0688,1.0688,1.0688,1.0688,1.0688,1.0688,1.0688,1.0688,1.0688,0.0,0.0,0.0,0.0,0.0,0.0,0.0,0.0,0.0,0.0,1.0688,1.0688,1.0688,0.0,0.0,0.0,0.0,0.0,1.0688,1.0688,1.0688,1.0688,1.0688,1.0688,1.0688,1.0688,1.0688,1.0688,1.0688,1.072,1.0826,0.0,1.12,1.1476,0.0,0.0,0.0,0.0,0.0,0.0,0.0,0.0,0.0,0.0,0.0,0.0,0.0,0.0,0.0,0.0,0.0,0.0,1.3904,1.3904,1.3904,1.3904,1.3904,1.3904,1.3904,1.3904,1.3904,1.3904,1.3833,1.3611,0.0,1.3111,1.276,1.2338,1.2122,1.1907,1.1691,1.1619,1.1619,1.1619,1.1619,1.1619,0.0,0.0,0.0,0.0,0.0,0.0,0.0,0.0,0.0,0.0,0.0,0.0,0.0,0.0,0.0,0.0,0.0,0.0,0.0,1.0688,1.0688,1.0688,1.0688,1.0688,1.0688,1.0688,1.0688,1.0688,1.0688,1.0688,1.0688,1.0688,1.0688,1.0688,1.0688,1.0688,1.0688,1.0688,1.0688,1.0688,0.0,0.0,0.0,0.0,0.0,0.0,0.0,0.0,0.0,0.0,0.0,0.0,0.0,0.0,0.0,1.0688,1.0688,1.0688,1.0688,1.0688,1.0688,1.0688,1.0688,1.0688,1.0688,1.0688,1.0688,1.0688,1.0688,1.0753,1.0932,1.1143,0.0,1.1719,1.1776,0.0,0.0,0.0,0.0,0.0,0.0,0.0,0.0,0.0,0.0,0.0,0.0,0.0,0.0,0.0,0.0,0.0,1.3904,1.3904,1.3904,1.3904,1.3904,1.3904,1.3904,1.3904,1.3904,1.3904,1.3904,1.3904,1.3539,1.3396,1.3253,1.2617,1.2266,1.2122,1.1763,1.1619,1.1619,1.1619,1.1619,1.1619,0.0,0.0,0.0,0.0,0.0,0.0,0.0,0.0,0.0,0.0,0.0,0.0,0.0,0.0,0.0,0.0,0.0,0.0,0.0,1.0688,1.0688,1.0688,1.0688,1.0688,1.0688,1.0688,1.0688,1.0688,1.0688,1.0688,1.0688,1.0688,1.0688,1.0688,1.0688,1.0688,1.0688,1.0688,1.0688,1.0688,1.0688,0.0,0.0,0.0,0.0,0.0,0.0,0.0,0.0,0.0,0.0,0.0,0.0,0.0,1.0688,1.0688,1.0688,1.0688,1.0688,1.0688,1.0688,1.0688,1.0688,1.0688,1.0688,1.0688,1.0688,1.0688,1.0688,1.0753,1.0932,1.1248,1.1541,1.1744,0.0,0.0,0.0,0.0,0.0,0.0,0.0,0.0,0.0,0.0,0.0,0.0,0.0,0.0,0.0,0.0,0.0,0.0,0.0,1.3904,1.3904,1.3904,1.3904,1.3904,1.3904,1.3904,1.3904,1.3904,1.3904,1.3904,1.3904,1.3611,1.3253,1.2896,1.2545,1.2122,1.1763,1.1619,1.1619,1.1619,1.1619,1.1619,0.0,0.0,0.0,0.0,0.0,0.0,0.0,0.0,0.0,0.0,0.0,1.0688,1.0688,0.0,0.0,0.0,0.0,0.0,0.0,1.0688,1.0688,1.0688,1.0688,1.0688,1.0688,1.0688,1.0688,1.0688,1.0688,1.0688,1.0688,1.0688,1.0688,1.0688,1.0688,1.0688,1.0688,1.0688,1.0688,1.0688,1.0688,1.0688,0.0,0.0,0.0,0.0,0.0,0.0,0.0,0.0,1.0688,1.0688,1.0688,1.0688,1.0688,1.0688,1.0688,1.0688,1.0688,1.0688,1.0688,1.0688,1.0688,1.0688,1.0688,1.0688,1.0688,1.0688,1.0785,1.0956,1.1248,0.0,1.1695,0.0,0.0,0.0,0.0,0.0,0.0,0.0,0.0,0.0,0.0,0.0,0.0,0.0,0.0,0.0,0.0,0.0,0.0,0.0,0.0,1.3904,1.3904,1.3904,1.3904,1.3904,1.3904,1.3904,1.3904,1.3904,1.3904,1.3904,1.3904,1.3825,1.3611,1.3253,1.2896,1.2545,1.1835,1.1619,1.1619,1.1619,1.1619,1.1619,0.0,0.0,0.0,0.0,0.0,0.0,0.0,0.0,1.0858,0.0,0.0,0.0,0.0,1.0777,0.0,0.0,0.0,0.0,1.0688,1.0688,1.0688,1.0688,1.0688,1.0688,1.0688,1.0688,1.0688,1.0688,1.0688,1.0688,1.0688,1.0688,1.0688,1.0688,1.0688,1.0688,1.0688,1.0688,1.0688,1.0688,1.0688,1.0688,0.0,0.0,0.0,0.0,0.0,0.0,0.0,0.0,1.0688,1.0688,1.0688,1.0688,1.0688,1.0688,1.0688,1.0688,1.0688,1.0688,1.0688,1.0688,1.0688,1.0688,1.0688,1.0688,1.0688,1.0688,1.0883,1.1143,1.1443,1.1654,0.0,0.0,0.0,0.0,0.0,0.0,0.0,0.0,0.0,0.0,0.0,0.0,0.0,0.0,0.0,0.0,0.0,0.0,0.0,0.0,0.0,1.3847,1.3904,1.3904,1.3904,1.3904,1.3904,1.3904,1.3904,1.3904,1.3904,1.3904,1.3904,1.3904,1.3904,1.3468,1.3039,1.2545,1.1979,1.1691,1.1619,1.1619,1.1619,1.1619,0.0,0.0,0.0,0.0,0.0,0.0,0.0,0.0,1.1224,1.1224,1.1224,0.0,0.0,0.0,0.0,0.0,0.0,0.0,1.0696,1.0688,1.0688,1.0688,1.0688,1.0688,1.0688,1.0688,1.0688,1.0688,1.0688,1.0688,1.0688,1.0688,1.0688,1.0688,1.0688,1.0688,1.0688,1.0688,1.0688,1.0688,1.0688,1.0688,1.0688,0.0,0.0,0.0,0.0,0.0,0.0,0.0,1.0688,1.0688,1.0688,1.0688,1.0688,1.0688,1.0688,1.0688,1.0688,1.0688,1.0688,1.0688,1.0688,1.0688,1.0688,1.0696,1.0696,1.0696,1.098,1.1281,1.1468,1.1654,0.0,0.0,0.0,0.0,0.0,0.0,0.0,0.0,0.0,0.0,0.0,0.0,0.0,0.0,0.0,0.0,0.0,0.0,0.0,0.0,0.0,0.0,1.3896,1.3904,1.3904,1.3904,1.3904,1.3904,1.3904,1.3904,1.3904,1.3904,1.3904,1.3904,1.3904,1.3468,1.2904,1.2194,1.2194,1.1979,1.1619,1.1619,1.1619,1.1619,0.0,0.0,0.0,0.0,0.0,0.0,0.0,0.0,1.1224,1.1224,1.1224,0.0,0.0,0.0,0.0,0.0,0.0,0.0,1.0883,1.0761,1.0688,1.0688,1.0688,1.0688,1.0688,1.0688,1.0688,1.0688,1.0688,1.0688,1.0688,1.0688,1.0688,1.0688,1.0688,1.0688,1.0688,1.0688,1.0688,1.0688,1.0688,1.0688,1.0688,0.0,0.0,0.0,0.0,0.0,0.0,0.0,0.0,0.0,1.0688,1.0688,1.0688,1.0688,1.0688,1.0688,1.0688,1.0688,1.0688,1.0688,1.0688,1.0688,1.0688,1.0794,1.0956,1.1208,1.1346,1.1476,1.1663,1.1744,0.0,0.0,0.0,0.0,0.0,0.0,0.0,0.0,0.0,0.0,0.0,0.0,0.0,0.0,0.0,0.0,0.0,0.0,0.0,0.0,0.0,0.0,1.3717,1.3839,1.3904,1.3904,1.3904,1.3904,1.3904,1.3904,1.3904,1.3904,1.3904,1.3904,1.3904,1.3468,1.3182,1.2975,1.2689,1.2545,1.2474,1.2474,1.2474,1.2402,0.0,0.0,0.0,0.0,0.0,0.0,1.1614,1.1516,1.1443,1.1443,1.1443,1.1411,0.0,0.0,0.0,0.0,0.0,0.0,1.107,1.0964,1.0875,1.0802,1.0802,1.0769,1.0696,1.0688,1.0688,1.0688,1.0688,1.0688,1.0688,1.0688,1.0688,1.0688,1.0688,1.0688,1.0688,1.0688,1.0688,1.0688,1.0688,1.0688,1.0688,0.0,0.0,0.0,0.0,0.0,0.0,0.0,0.0,0.0,1.0688,1.0688,1.0688,1.0688,1.0688,1.0688,1.0688,1.0688,1.0688,1.0688,1.0688,1.0729,1.0867,1.094,1.1053,1.133,1.1451,1.1557,1.1744,1.1776,0.0,0.0,0.0,0.0,0.0,0.0,0.0,0.0,0.0,0.0,0.0,0.0,0.0,0.0,0.0,0.0,0.0,0.0,0.0,0.0,0.0,0.0,1.3574,1.375,1.3831,1.3904,1.3904,1.3904,1.3904,1.3904,1.3904,1.3904,1.3904,1.3904,1.3904,1.3611,1.3468,1.3253,1.3111,1.2896,1.2824,1.2824,1.2824,1.2753,0.0,0.0,1.1776,1.1776,0.0,0.0,1.1776,1.1776,1.1776,1.1776,1.1776,1.1711,0.0,0.0,0.0,1.1289,1.1256,1.1248,1.1248,1.1232,1.1151,1.0997,1.1037,1.0891,1.072,1.0704,1.0688,1.0688,1.0688,1.0688,1.0688,1.0688,1.0688,1.0688,1.0688,1.0688,1.0688,1.0688,1.0688,1.0688,1.0688,1.0688,1.0688,1.0688,0.0,0.0,0.0,0.0,0.0,0.0,0.0,0.0,1.0688,1.0688,1.0688,1.0688,1.0688,1.0688,1.0688,1.0688,1.0688,1.0688,1.0688,1.0777,1.1126,1.1094,1.1045,1.1232,0.0,1.1573,1.1744,0.0,0.0,0.0,0.0,0.0,0.0,0.0,0.0,0.0,0.0,0.0,0.0,0.0,0.0,0.0,0.0,0.0,0.0,0.0,0.0,0.0,0.0,0.0,1.3518,1.3558,1.3725,0.0,1.3896,1.3904,1.3904,1.3904,1.3904,1.3904,1.3904,1.3904,1.3904,1.3904,1.3682,1.3325,1.3325,1.3182,1.2896,1.2896,1.2896,1.2896,0.0,0.0,1.1776,1.1776,0.0,0.0,1.1776,1.1776,1.1776,1.1776,1.1776,1.176,1.1719,1.1719,0.0,1.1663,1.1524,1.1443,1.1443,1.1305,1.1208,1.1167,1.1037,1.1004,1.0963,1.0769,1.0688,1.0688,1.0688,1.0688,1.0688,1.0688,1.0688,1.0688,1.0688,1.0688,1.0688,1.0688,1.0688,1.0688,1.0688,1.0688,1.0688,1.0688,1.0688,0.0,0.0,0.0,0.0,0.0,0.0,0.0,1.0688,1.0688,1.0688,1.0688,1.0688,1.0688,1.0688,1.0688,1.0688,1.0688,1.0688,1.0753,1.0972,1.1094,1.1265,1.1589,1.1687,1.1727,1.1768,0.0,0.0,0.0,0.0,0.0,0.0,0.0,0.0,0.0,0.0,0.0,0.0,0.0,0.0,0.0,0.0,0.0,0.0,0.0,0.0,0.0,0.0,1.3133,1.3214,1.3498,1.359,0.0,1.3839,1.3904,1.3904,1.3904,1.3904,1.3904,1.3904,1.3904,1.3904,1.3904,1.3833,1.3753,1.3753,1.3753,1.3682,1.3682,1.3682,1.3611,0.0,0.0,0.0,0.0,0.0,0.0,0.0,0.0,1.1679,1.1768,1.1776,1.1776,1.1776,1.1776,0.0,0.0,1.1687,1.163,1.163,1.1541,1.1451,1.1362,1.1183,1.1086,1.1086,1.0997,1.0907,1.0826,1.0826,1.0777,1.0688,1.0688,1.0688,1.0688,1.0688,1.0688,1.0688,1.0688,1.0688,1.0688,1.0688,1.0688,1.0688,1.0688,1.0688,1.0688,1.0688,0.0,0.0,0.0,0.0,0.0,0.0,0.0,1.0688,1.0688,1.0688,1.0688,1.0688,1.0688,1.0688,1.0688,1.0688,1.0761,1.1029,1.1159,1.133,1.1703,1.1776,1.1776,0.0,0.0,0.0,0.0,0.0,0.0,0.0,0.0,0.0,0.0,0.0,0.0,0.0,0.0,0.0,0.0,0.0,0.0,0.0,0.0,0.0,0.0,1.2921,1.3011,1.3092,1.3287,1.3465,1.3574,1.3734,1.3823,1.3904,1.3904,1.3904,1.3904,1.3904,1.3904,1.3904,1.3904,1.3904,1.3904,1.3904,1.3904,1.3904,1.3904,1.3904,1.3896,0.0,0.0,0.0,0.0,0.0,0.0,0.0,0.0,0.0,1.176,1.1776,1.1776,1.1776,1.1776,1.1776,0.0,0.0,0.0,1.1776,1.1776,1.1711,1.1557,1.137,1.1273,1.1273,1.124,1.1151,1.1013,1.1013,1.0923,1.0737,1.0704,1.0688,1.0688,1.0688,1.0688,1.0688,1.0688,1.0688,1.0688,1.0688,1.0688,1.0688,1.0688,1.0688,1.0688,1.0688,1.0688,1.0688,1.0688,0.0,0.0,0.0,0.0,1.0688,1.0688,1.0688,1.0688,1.0688,1.0688,1.0688,1.0688,1.0688,1.0785,1.1143,1.1224,1.133,1.1703,1.1776,0.0,0.0,0.0,0.0,0.0,0.0,0.0,0.0,0.0,0.0,0.0,0.0,0.0,0.0,0.0,0.0,0.0,0.0,0.0,0.0,0.0,1.2774,1.2774,1.2774,1.2905,1.3051,1.3076,1.3246,1.3477,1.3542,1.3734,1.3904,1.3904,1.3904,1.3904,1.3904,1.3904,1.3904,1.3904,1.3904,1.3904,1.3904,1.3904,1.3904,1.3904,1.3904,1.3904,0.0,0.0,0.0,0.0,0.0,0.0,0.0,0.0,0.0,0.0,1.1776,1.1776,1.1776,1.1776,1.1776,1.1776,1.1776,1.1776,1.1776,0.0,0.0,1.1744,1.1565,1.1459,1.1459,1.1305,1.1208,1.1191,1.1191,1.1102,1.0988,1.0769,1.0688,1.0688,1.0688,1.0688,1.0688,1.0688,1.0688,1.0688,1.0688,1.0688,1.0688,1.0688,1.0688,1.0688,1.0688,1.0688,1.0688,1.0688,1.0688,0.0,0.0,0.0,1.0688,1.0688,1.0688,1.0688,1.0688,1.0688,1.0688,1.0688,1.0688,1.0785,1.1143,0.0,1.133,0.0,0.0,0.0,0.0,0.0,0.0,0.0,0.0,0.0,0.0,0.0,0.0,0.0,0.0,0.0,0.0,0.0,0.0,0.0,0.0,0.0,0.0,1.2774,1.2774,1.2774,1.2774,1.2782,1.2873,1.3019,1.3116,1.3173,1.349,1.3734,1.3904,1.3904,1.3904,1.3904,1.3904,1.3904,1.3904,1.3904,1.3904,1.3904,1.3904,1.3904,1.3904,1.3904,1.3904,1.3904,0.0,0.0,0.0,0.0,0.0,0.0,0.0,0.0,0.0,0.0,0.0,1.1776,1.1776,1.1776,1.1776,1.1776,1.1776,1.1776,1.1776,1.1776,1.1776,1.1776,1.1695,1.1654,1.1654,1.1573,1.1484,1.1378,1.1378,1.1289,1.111,1.1029,1.094,1.085,1.085,1.0899,1.0988,1.0988,1.0932,1.085,1.085,1.0785,1.0688,1.0688,1.0688,1.0688,1.0688,1.0688,1.0688,1.0688,1.0688,1.0688,1.0688,0.0,0.0,0.0,1.0688,1.0688,1.0688,1.0688,1.0688,1.0688,1.0688,1.0761,1.1021,1.1151,1.1297,0.0,0.0,0.0,0.0,0.0,0.0,0.0,0.0,0.0,0.0,0.0,0.0,0.0,0.0,0.0,0.0,0.0,0.0,0.0,0.0,0.0,1.2774,1.2774,1.2774,1.2774,1.2774,1.2774,1.2774,1.2913,1.2994,1.31,1.3465,1.3685,1.3758,1.3855,1.3904,1.3904,1.3904,1.3904,1.3904,1.3904,1.3904,1.3904,1.3904,1.3904,1.3904,1.3904,1.3904,1.3904,0.0,0.0,0.0,0.0,0.0,0.0,0.0,0.0,0.0,0.0,0.0,0.0,1.1776,0.0,0.0,0.0,1.1949,1.201,1.1889,1.1837,1.1776,1.1776,1.1776,1.1776,1.1776,1.1776,1.1711,1.1573,1.1573,1.1476,1.1289,1.1289,1.1224,1.1102,1.1053,1.1102,1.1224,1.1224,1.1151,1.1029,1.0988,1.0883,1.0761,1.0712,1.0688,1.0688,1.0688,1.0688,1.0688,1.0688,1.0688,1.0688,1.0688,1.0688,0.0,0.0,0.0,1.0688,1.0688,1.0688,1.0688,1.0688,1.0688,1.0745,0.0,0.0,1.1273,0.0,0.0,0.0,0.0,0.0,0.0,0.0,0.0,0.0,0.0,0.0,0.0,0.0,0.0,0.0,0.0,0.0,0.0,0.0,0.0,0.0,1.2774,1.2774,1.2774,1.2774,1.2774,1.2774,1.2774,1.2774,1.2921,1.31,1.3417,1.3604,1.3582,1.3823,1.3904,1.3904,1.3904,1.3904,1.3904,1.3904,1.3904,1.3904,1.3904,1.3904,1.3904,1.3904,1.3904,1.3904,0.0,0.0,0.0,0.0,0.0,0.0,0.0,0.0,0.0,0.0,0.0,0.0,1.1776,1.201,1.2174,1.2174,1.2475,1.2543,1.2174,1.1949,1.1776,1.1776,1.1776,0.0,1.1776,1.1776,1.1776,1.176,1.176,1.1671,1.1484,1.1484,1.1484,1.1459,1.1289,1.1216,1.1224,1.1224,1.1216,1.1191,1.1037,1.0964,1.0932,1.0761,1.0688,1.0688,1.0688,1.0688,1.0688,0.0,0.0,0.0,0.0,1.0688,1.0688,0.0,0.0,0.0,1.0688,1.0688,1.0688,1.0688,1.0688,1.0745,0.0,0.0,0.0,0.0,0.0,0.0,0.0,0.0,0.0,0.0,0.0,0.0,0.0,0.0,0.0,0.0,0.0,0.0,0.0,0.0,0.0,0.0,0.0,0.0,1.2774,1.2774,1.2774,1.2774,1.2774,1.2774,1.2774,1.2774,1.2921,1.3092,1.3295,1.3474,1.3582,1.3823,1.3904,1.3904,1.3904,1.3904,1.3904,1.3904,1.3904,1.3904,1.3904,1.3904,1.3904,1.3904,1.3904,1.3904,0.0,0.0,0.0,0.0,0.0,0.0,0.0,0.0,0.0,0.0,0.0,0.0,0.0,1.1897,1.1949,1.1949,1.207,1.207,1.1949,1.1837,1.1776,1.1776,1.1776,1.1776,1.1776,1.1776,1.1776,1.1776,1.1776,1.1744,1.1679,1.1679,1.1679,1.1671,1.1484,1.1468,1.1581,1.1581,1.1508,1.1386,1.1208,1.107,1.1004,1.0761,1.0688,1.0688,1.0688,0.0,0.0,0.0,0.0,0.0,0.0,0.0,1.0688,1.0688,1.0688,1.0688,1.0688,1.0688,1.0688,1.0688,1.0688,1.0712,1.0777,1.1013,0.0,0.0,0.0,0.0,0.0,0.0,0.0,0.0,0.0,0.0,0.0,0.0,0.0,0.0,0.0,0.0,0.0,0.0,0.0,0.0,0.0,0.0,1.2774,1.2774,1.2774,1.2774,1.2774,1.2774,1.2774,1.2774,1.2865,1.2929,1.3108,1.3287,1.3474,1.3652,1.3798,1.3904,1.3904,1.3904,1.3904,1.3904,1.3904,1.3904,1.3904,1.3904,1.3904,1.3904,1.3904,1.3904,0.0,0.0,0.0,0.0,0.0,1.4272,1.3803,1.3495,1.3144,1.2483,0.0,0.0,0.0,0.0,1.213,1.2251,1.207,1.1949,1.1949,1.1837,1.1776,1.1776,1.1776,1.1776,1.1776,1.1711,1.1711,1.1776,1.1711,1.1711,1.1776,1.1776,1.1776,1.1768,1.1646,1.1663,1.1776,1.1776,1.1703,1.1573,1.1386,1.1248,1.1126,1.094,1.0834,1.0785,0.0,0.0,0.0,0.0,0.0,0.0,0.0,0.0,1.0688,1.0688,1.0688,1.0688,1.0688,1.0688,1.0688,1.0688,1.0688,1.0688,1.0688,0.0,0.0,0.0,0.0,0.0,0.0,0.0,0.0,0.0,0.0,0.0,0.0,0.0,0.0,0.0,0.0,0.0,0.0,0.0,0.0,0.0,0.0,0.0,1.2774,1.2774,1.2774,1.2774,1.2774,1.2774,1.2774,1.2774,1.2774,1.2774,1.3011,1.3189,1.3376,1.3563,1.3742,1.3904,1.3904,1.3904,1.3904,1.3904,1.3904,1.3904,1.3904,1.3904,1.3904,1.3904,1.3904,1.3904,0.0,0.0,1.6304,1.5961,1.5902,1.544,1.3904,1.3725,1.3255,1.2018,0.0,0.0,0.0,0.0,0.0,1.3144,1.2535,1.2174,1.2174,1.1949,1.1776,1.1776,1.1776,1.1776,1.1776,1.1598,1.1598,1.1776,1.1598,1.1598,1.1776,1.1776,1.1776,1.1776,1.1776,1.1776,1.1776,1.1776,1.1776,1.176,1.1573,1.15,1.1476,1.1289,1.111,0.0,1.0964,1.0842,0.0,1.0688,0.0,0.0,0.0,0.0,1.0688,1.0688,1.0688,1.0688,0.0,0.0,0.0,1.0688,1.0688,0.0,1.0688,0.0,0.0,0.0,0.0,0.0,0.0,0.0,0.0,0.0,0.0,0.0,0.0,0.0,0.0,0.0,0.0,0.0,0.0,0.0,0.0,0.0,0.0,1.2832,1.2774,1.2774,1.2774,1.2774,1.2774,1.2774,1.2774,1.2774,1.2774,1.2774,1.3003,1.3181,1.3368,1.3555,1.3734,1.3896,1.3896,1.3904,1.3904,1.3904,1.3904,1.3904,1.3904,1.3904,1.3904,1.3904,1.3904,1.3904,0.0,1.4451,1.4451,1.4331,1.4331,1.4212,1.3744,1.3684,1.3384,0.0,0.0,0.0,1.1949,1.201,1.207,1.2191,1.201,1.1889,1.1889,1.1837,1.1776,1.1776,1.1776,1.1776,1.1776,1.1727,1.1727,1.1776,1.1727,1.1727,1.1776,1.1776,1.1776,1.1776,1.1776,1.1776,1.1776,1.1776,1.1776,1.176,1.1573,1.15,1.1468,0.0,0.0,0.0,0.0,1.0737,1.0688,0.0,1.0688,1.0688,0.0,1.0688,1.0688,1.0688,1.0688,1.0688,1.0688,0.0,0.0,0.0,0.0,0.0,1.0688,1.0834,0.0,0.0,0.0,0.0,0.0,0.0,0.0,0.0,0.0,0.0,0.0,0.0,0.0,0.0,0.0,0.0,0.0,0.0,0.0,0.0,1.2613,1.2694,1.2766,1.2774,1.2774,1.2774,1.2774,1.2774,1.2774,1.2774,1.2774,1.2774,1.2889,1.3003,1.3173,1.336,1.3547,1.3717,1.3847,1.3904,1.3904,1.3904,1.3904,1.3904,1.3904,1.3904,1.3904,1.3904,1.3904,1.3904,1.7091,1.6809,1.6797,1.6621,1.6621,1.6385,1.5569,1.5451,1.4917,0.0,0.0,0.0,1.207,1.207,1.213,1.201,1.1837,1.1776,1.1776,1.1776,1.1776,1.1776,1.1776,1.1776,1.1776,1.1703,1.1703,1.1776,1.1703,1.1703,1.1776,1.1776,1.1776,1.1776,1.1776,1.1776,1.1776,1.1776,1.1776,1.1768,1.1663,1.1614,0.0,1.1386,1.1256,0.0,0.0,0.0,1.0899,1.0834,1.0753,0.0,0.0,0.0,0.0,0.0,0.0,1.0688,1.0688,1.0688,1.0688,1.0688,0.0,0.0,1.0688,1.0777,1.0899,0.0,0.0,0.0,0.0,0.0,0.0,0.0,0.0,0.0,0.0,0.0,0.0,0.0,0.0,0.0,0.0,0.0,0.0,0.0,1.2475,1.2645,1.2758,1.2774,1.2774,1.2774,1.2774,1.2774,1.2774,1.2774,1.2774,1.2774,1.2774,1.2929,1.31,1.3287,1.3474,1.3582,1.3823,1.3904,1.3904,1.3904,1.3904,1.3904,1.3904,1.3904,1.3904,1.3904,1.3904,1.3904,0.0,2.0802,2.0673,2.0371,2.0242,1.955,1.7898,1.7489,1.6492,0.0,1.3545,1.3135,1.2234,1.2423,1.2483,1.2234,1.1949,1.1837,1.1837,1.1837,1.1776,1.1776,1.1776,1.1776,1.1776,1.1614,1.1614,1.1776,1.1614,1.1614,1.1776,1.1776,1.1776,1.1776,1.1776,1.1776,1.1776,1.1776,1.1776,1.1776,1.1776,1.1776,0.0,0.0,1.1646,1.15,1.1476,1.1362,1.12,1.1045,1.0891,0.0,0.0,0.0,0.0,0.0,1.0712,1.0688,1.0688,1.0688,1.0688,0.0,1.0688,0.0,1.0688,1.0688,1.0745,0.0,0.0,0.0,0.0,0.0,0.0,0.0,0.0,0.0,0.0,0.0,0.0,0.0,0.0,0.0,0.0,0.0,1.2012,1.2028,1.2361,1.2645,1.2758,1.2774,1.2774,1.2774,1.2774,1.2774,1.2774,1.2774,1.2774,1.2774,1.2774,1.2913,1.3076,1.3254,1.3441,1.362,1.3798,1.3888,1.3904,1.3904,1.3904,1.3904,1.3904,1.3904,1.3904,1.3904,1.3904,1.3904,1.8319,1.8144,1.8144,1.8085,1.7267,1.6455,1.6101,1.5154,1.4152,1.3015,1.2483,1.207,1.1897,1.1957,1.207,1.2174,1.1949,1.1889,1.2122,1.1889,1.1776,1.1776,1.1776,1.1776,1.1776,1.1744,1.1744,1.1776,1.1744,1.1744,1.1776,1.1776,1.1776,1.1776,1.1776,1.1776,1.1776,1.1776,0.0,1.1776,1.1776,0.0,1.176,1.1614,1.1533,1.1484,1.133,1.1248,1.1216,1.1183,1.1151,1.1118,0.0,0.0,0.0,1.0915,0.0,0.0,0.0,0.0,0.0,0.0,0.0,0.0,1.0688,1.0688,1.0745,0.0,0.0,0.0,0.0,0.0,0.0,0.0,0.0,0.0,0.0,0.0,0.0,0.0,0.0,0.0,0.0,0.0,1.1882,1.202,1.2361,1.2645,1.2758,1.2774,1.2774,1.2774,1.2774,1.2774,1.2774,1.2774,1.2774,1.2774,1.2774,1.279,1.2889,1.3068,1.3246,1.3433,1.3612,1.3774,1.3904,1.3904,1.3904,1.3904,1.3904,1.3904,1.3904,1.3904,1.3904,1.3904,1.7701,1.7384,1.7384,1.7384,1.6797,1.6267,1.6279,1.5628,1.4748,1.3794,1.2844,1.2191,1.201,1.201,1.201,1.201,1.1889,1.1837,1.201,1.1889,1.1776,1.1776,1.1776,1.1776,1.1776,1.1776,1.1776,1.1776,1.1776,1.1776,1.1776,1.1776,1.1776,1.1776,1.1776,1.1776,1.1776,1.1776,1.1776,1.1776,1.1776,0.0,1.1768,1.1671,1.1638,1.1622,1.1533,1.1443,1.1362,1.1362,1.1297,0.0,0.0,1.1159,1.1094,0.0,1.0972,1.0834,0.0,0.0,0.0,1.0688,0.0,0.0,0.0,1.0688,1.072,0.0,0.0,0.0,0.0,0.0,0.0,0.0,0.0,0.0,0.0,0.0,0.0,0.0,0.0,0.0,0.0,0.0,1.1849,1.202,1.228,1.2515,1.2694,1.2783,1.2774,1.2774,1.2774,1.2774,1.2774,1.2774,1.2774,1.2774,1.2774,1.2774,1.2774,1.3011,1.3149,1.3246,1.3522,1.3693,1.3782,1.3863,1.3904,1.3904,1.3904,1.3904,1.3904,1.3904,1.3904,1.3904,1.8471,1.8232,1.8148,1.7806,1.7384,1.7091,1.7103,1.6632,1.5924,1.4738,1.3674,1.2775,1.2182,1.2182,1.2122,1.1889,1.1837,1.1837,1.1889,1.1837,1.1776,1.1776,1.1776,1.1776,1.1776,1.1776,1.1776,1.1776,1.1776,1.1776,1.1776,1.1776,1.1776,1.1776,1.1776,1.1776,1.1776,1.1776,0.0,1.1776,0.0,1.1776,1.1776,1.1776,1.1776,1.1776,1.1776,1.1679,1.1549,1.1549,1.1451,1.133,1.133,1.1305,0.0,0.0,0.0,0.0,0.0,0.0,0.0,0.0,0.0,1.0745,0.0,0.0,0.0,0.0,0.0,0.0,0.0,0.0,0.0,0.0,0.0,0.0,0.0,0.0,0.0,0.0,0.0,0.0,0.0,0.0,1.1849,1.202,1.2199,1.2385,1.262,1.2735,1.2774,1.2774,1.2774,1.2774,1.2774,1.2774,1.2774,1.2774,1.2774,1.2774,1.284,1.2978,1.3059,1.3116,1.3449,1.3612,1.359,1.3831,1.3904,1.3904,1.3904,1.3904,1.3904,1.3904,1.3904,1.3904,2.1156,2.1218,2.0768,1.9314,1.8144,1.7325,1.7325,1.6397,1.5451,1.4728,1.4202,1.3435,1.201,1.2062,1.2174,1.2182,1.1949,1.1889,1.2122,1.1949,1.1776,1.1776,1.1776,1.1776,1.1776,1.1776,1.1776,1.1776,1.1776,1.1776,1.1776,1.1776,1.1776,1.1776,1.1776,1.1776,1.1776,0.0,1.1776,0.0,1.1776,1.1776,0.0,1.1776,1.1776,1.1776,1.1776,1.176,1.1744,0.0,1.1736,1.1711,0.0,1.1598,1.1468,1.1468,0.0,0.0,0.0,0.0,0.0,0.0,1.1045,0.0,0.0,0.0,0.0,0.0,0.0,0.0,0.0,0.0,0.0,0.0,0.0,0.0,0.0,0.0,0.0,0.0,0.0,0.0,0.0,0.0,0.0,1.202,1.2199,1.2385,1.262,1.2735,1.2774,1.2774,1.2774,1.2774,1.2774,1.2774,1.2774,1.2774,1.2774,1.2774,1.2774,1.279,1.2954,1.3108,1.3311,1.3498,1.359,1.3831,1.3904,1.3904,1.3904,1.3904,1.3904,1.3904,1.3904,1.3904,2.0073,1.9641,1.9305,1.8585,1.761,1.6915,1.7161,1.6113,1.4986,1.4212,1.3794,1.3324,1.2672,1.2363,1.2174,1.2174,0.0,1.1837,0.0,0.0,1.1949,1.1837,1.213,1.2242,1.2062,1.2251,1.2242,1.2001,1.2001,1.1949,1.1776,1.1776,1.1776,1.1776,1.1776,0.0,1.1776,0.0,1.1776,0.0,0.0,0.0,0.0,1.1776,1.1776,1.1776,1.1776,1.1776,1.1776,0.0,1.1776,0.0,0.0,0.0,0.0,0.0,0.0,0.0,0.0,0.0,0.0,0.0,0.0,0.0,1.1118,0.0,1.0972,0.0,0.0,0.0,0.0,0.0,0.0,0.0,0.0,0.0,0.0,0.0,0.0,0.0,0.0,0.0,0.0,0.0,0.0,0.0,0.0,1.2337,1.241,1.2686,1.2774,1.2774,1.2774,1.2774,1.2774,1.2774,1.2774,1.2774,1.2774,1.2774,1.2774,1.2774,1.2873,1.2954,1.3133,1.3311,1.3498,1.3677,1.3815,1.3904,1.3904,1.3904,1.3904,1.3904,1.3904,1.3904,2.0152,1.9105,1.8419,1.7973,1.6972,1.6338,1.6585,1.6053,1.5224,1.4222,1.3803,1.3583,1.3579,1.275,0.0,0.0,1.2155,1.1776,0.0,0.0,1.201,0.0,0.0,0.0,1.2122,1.2303,1.2303,1.2062,1.2062,1.201,1.1776,1.1776,1.1776,1.1776,1.1776,1.1776,1.1776,0.0,1.1776,1.1776,1.1776,1.1776,1.1776,1.1776,1.1776,1.1776,1.1776,1.1776,1.1776,1.1776,1.1776,0.0,1.1776,0.0,0.0,0.0,0.0,0.0,1.1573,0.0,0.0,0.0,0.0,0.0,0.0,0.0,0.0,0.0,0.0,0.0,0.0,0.0,0.0,0.0,0.0,0.0,0.0,0.0,0.0,0.0,0.0,0.0,0.0,0.0,0.0,0.0,1.206,0.0,1.2304,1.2596,1.2783,1.2766,1.2774,1.2774,1.2774,1.2774,1.2774,1.2774,1.2774,1.2774,1.2774,1.2774,1.2774,1.2782,1.3019,1.3197,1.3384,1.3571,1.3742,1.3904,1.3904,1.3904,1.3904,1.3904,1.3904,1.3904,2.2952,2.1463,1.9745,1.8189,1.6615,1.5628,1.5628,1.6408,1.6514,1.5203,0.0,0.0,0.0,0.0,0.0,0.0,0.0,1.1776,1.1776,0.0,1.1837,0.0,0.0,1.1837,0.0,1.1837,1.1837,1.1837,1.1837,1.1837,1.1776,1.1776,1.1776,1.1776,1.1776,1.1776,1.1776,1.1776,1.1776,1.1776,1.1776,1.1776,1.1776,0.0,1.1776,1.1776,1.1776,0.0,0.0,1.1776,1.1776,0.0,0.0,0.0,0.0,0.0,0.0,0.0,0.0,0.0,0.0,1.176,0.0,0.0,0.0,0.0,1.1224,0.0,0.0,0.0,0.0,0.0,1.1216,1.1118,0.0,0.0,0.0,0.0,0.0,0.0,0.0,0.0,0.0,0.0,0.0,1.1776,1.1939,1.2117,1.2296,1.2475,1.2653,1.2832,1.2774,1.2774,1.2774,1.2774,1.2774,1.2774,1.2774,1.2774,1.2774,1.2774,1.2774,1.2782,1.3019,1.3197,1.3384,1.3571,1.3742,1.3904,1.3904,1.3904,1.3904,1.3904,1.3904,1.3904,2.3106,2.1768,2.0414,1.9624,1.9384,1.8887,1.7655,1.6985,1.6276,0.0,0.0,0.0,0.0,1.3083,1.2764,0.0,0.0,1.2125,1.2125,1.2312,0.0,0.0,0.0,1.2439,0.0,0.0,0.0,1.2062,1.2062,1.2423,1.3015,1.2191,1.2251,1.3015,1.2191,1.1776,0.0,0.0,0.0,0.0,0.0,1.1947,1.1931,0.0,0.0,1.1776,1.1776,1.1776,0.0,1.1776,1.1776,1.1776,1.1776,1.1776,1.1776,1.1776,1.1776,0.0,0.0,0.0,1.1776,1.1776,0.0,0.0,0.0,0.0,0.0,0.0,0.0,0.0,0.0,0.0,1.2892,1.3624,1.4374,0.0,0.0,0.0,0.0,0.0,0.0,0.0,0.0,0.0,0.0,1.1776,1.1931,1.2109,0.0,1.2467,1.2645,1.2832,1.2774,1.2774,1.2774,1.2774,1.2774,1.2774,1.2774,1.2897,1.3003,1.2889,1.2897,1.3003,1.2946,1.3553,1.4598,1.4805,1.5556,1.6569,1.6787,1.6916,1.6635,1.4671,1.4537,1.5381,2.3106,2.2324,2.1403,2.0611,2.0207,1.9634,1.8391,1.6996,0.0,0.0,1.3976,0.0,1.3879,0.0,1.2952,0.0,1.2716,1.2304,1.2304,1.2493,0.0,1.2134,1.2499,0.0,0.0,0.0,0.0,0.0,0.0,1.2715,1.3665,1.2432,1.2492,1.3665,0.0,1.1776,1.1776,1.1776,1.1809,0.0,0.0,1.2125,0.0,0.0,1.1963,1.1963,0.0,1.1963,1.1955,1.189,1.1866,1.1857,1.1792,1.1776,1.1776,1.1776,1.1776,1.1776,1.1776,1.1776,0.0,0.0,1.1776,0.0,1.1776,0.0,0.0,0.0,0.0,0.0,0.0,0.0,0.0,1.3829,1.4469,1.5213,0.0,1.6573,0.0,0.0,0.0,0.0,0.0,0.0,1.1776,1.1776,1.1874,1.2044,0.0,0.0,1.258,1.2766,1.2774,1.2774,1.2774,1.2774,1.2774,1.2774,1.2897,1.2986,1.3092,1.2978,1.3253,1.3813,1.3633,1.4442,1.5956,1.6251,1.6947,1.7908,1.8293,1.8379,1.817,1.6211,1.6079,1.6846,2.3106,2.3106,2.263,2.1142,1.9251,0.0,0.0,0.0,1.5482,0.0,1.4307,1.3699,1.4846,1.368,1.3265,1.4399,1.3181,1.2328,1.2328,1.2328,0.0,0.0,1.232,1.2231,1.2044,0.0,0.0,0.0,0.0,0.0,1.3725,1.2423,1.2483,1.3665,1.2371,0.0,1.1792,1.1792,1.189,1.206,1.2247,1.232,1.232,1.2328,0.0,1.2328,1.2312,1.2304,1.228,1.2101,1.1982,1.2012,1.1849,1.1792,1.1792,1.1792,1.1784,1.1776,1.1776,1.1776,1.1776,1.1776,0.0,0.0,0.0,0.0,1.1776,0.0,0.0,0.0,0.0,0.0,0.0,1.1776,1.2904,1.3665,0.0,0.0,0.0,0.0,0.0,0.0,0.0,1.1837,1.1776,1.1776,1.1776,1.1931,0.0,0.0,0.0,1.2758,1.2774,1.2774,1.2774,1.2774,1.2774,1.2774,1.3011,1.31,1.3108,1.3175,1.3973,1.5215,1.5072,1.5879,1.7335,1.7639,1.7944,1.8172,1.848,1.8578,1.8589,1.8519,1.8449,1.817,2.3106,2.3106,2.2879,0.0,1.9894,1.8252,0.0,0.0,0.0,0.0,1.3633,1.2951,1.3331,1.3044,1.2906,1.3208,1.2922,0.0,0.0,0.0,0.0,1.2507,1.2499,1.2418,1.2239,1.2302,0.0,1.2331,0.0,0.0,1.4331,1.2835,1.2775,1.3904,0.0,1.1849,1.1963,1.1963,1.2069,1.2247,1.2426,1.2499,0.0,0.0,1.2702,1.267,1.2402,1.2304,1.2304,1.2247,1.2239,1.2231,1.2182,1.2077,1.1963,1.1963,1.1874,1.1776,1.1776,1.1776,1.1776,1.1776,1.1776,1.1776,0.0,0.0,0.0,0.0,0.0,0.0,0.0,0.0,0.0,0.0,1.2904,0.0,0.0,0.0,0.0,0.0,0.0,0.0,0.0,1.2371,1.1776,1.1776,1.1776,0.0,0.0,0.0,0.0,1.2758,1.2774,1.2774,1.2774,1.2774,1.2774,1.2774,1.3011,1.3165,1.3371,1.4444,1.5113,1.5432,1.6354,1.7435,1.8577,1.89,1.9766,2.0968,2.1247,2.1556,2.1596,2.0491,1.9367,1.8309,2.3106,2.3106,0.0,2.2871,0.0,0.0,1.9394,0.0,0.0,1.4897,1.3773,0.0,1.2824,1.2972,1.2972,1.284,1.2774,0.0,1.2774,0.0,0.0,1.2686,1.2686,1.2605,1.2426,1.2545,0.0,1.2399,0.0,0.0,1.4365,1.2909,1.2909,1.4061,0.0,1.206,1.2158,1.2231,1.232,1.2434,1.2613,0.0,0.0,1.28,1.2774,1.2808,1.2613,1.254,1.2523,1.2442,1.2418,1.2402,1.2328,1.2231,1.2134,1.2052,1.1963,1.1874,1.1801,1.1776,1.1776,1.1776,1.1776,1.1776,1.1776,1.1776,1.1776,0.0,0.0,0.0,0.0,0.0,0.0,0.0,0.0,0.0,0.0,0.0,0.0,0.0,0.0,0.0,0.0,0.0,1.1776,0.0,0.0,0.0,0.0,0.0,0.0,1.2758,1.2774,1.2774,1.2774,1.2774,1.2774,1.2774,1.3092,1.3603,1.4387,1.5288,1.6294,1.7332,1.8028,1.8953,1.9966,2.0309,2.1058,2.2031,2.2445,2.2712,2.2791,2.1953,2.1113,2.0201,2.3106,2.3106,0.0,0.0,0.0,0.0,0.0,1.6794,0.0,1.5005,0.0,1.3235,1.284,1.3104,1.3169,1.2832,0.0,1.2774,1.2774,1.2774,1.2774,1.2774,1.2774,1.2767,1.2605,1.2855,0.0,0.0,0.0,0.0,1.4038,1.2926,1.2989,0.0,0.0,0.0,0.0,1.2523,1.2596,1.2613,1.2775,1.2774,1.2774,1.2774,1.2774,1.2774,1.2774,1.2774,1.2808,1.2653,1.2596,1.2572,1.2426,1.2361,1.2312,1.215,1.2085,1.2028,1.1857,1.1809,1.1801,1.1784,1.1776,1.1776,1.1776,1.1776,1.1776,1.1776,1.1776,0.0,0.0,0.0,0.0,0.0,0.0,0.0,0.0,0.0,0.0,0.0,0.0,0.0,0.0,0.0,0.0,0.0,0.0,0.0,0.0,0.0,0.0,0.0,1.2774,0.0,1.2774,0.0,1.2774,1.284,1.3401,1.4387,1.5613,1.6255,1.7733,1.9833,1.9788,2.0296,2.1122,2.139,2.1683,2.2044,2.2632,2.2928,2.2928,2.2928,2.2928,2.2516,2.3106,0.0,0.0,0.0,0.0,1.8045,1.665,1.509,1.3896,1.335,1.3367,1.3235,1.284,1.284,1.2906,1.284,1.2774,0.0,0.0,0.0,0.0,1.2774,1.2774,1.2824,1.2791,1.2791,1.2832,0.0,0.0,0.0,1.3421,1.2935,0.0,0.0,0.0,0.0,1.2532,1.271,0.0,1.2791,1.2758,1.2774,1.2774,1.2774,1.2774,1.2774,1.2774,1.2774,1.2832,1.28,1.2791,1.2783,1.2685,1.2637,1.2515,1.2483,1.2369,1.2215,1.2036,1.1987,1.1955,1.1809,1.1776,1.1776,1.1776,1.1776,1.1776,1.1776,1.1776,1.1776,1.1776,0.0,0.0,0.0,0.0,0.0,0.0,0.0,0.0,0.0,0.0,0.0,0.0,0.0,0.0,0.0,0.0,0.0,0.0,0.0,0.0,0.0,0.0,0.0,0.0,0.0,0.0,1.284,1.4473,1.5332,1.5681,1.8476,1.9814,1.9845,2.1068,2.1409,2.1109,2.1162,2.151,2.2044,2.2632,2.2928,2.2928,2.2928,2.2928,2.2654,0.0,0.0,0.0,0.0,0.0,0.0,0.0,1.5361,0.0,1.2898,1.2972,1.3038,1.284,1.2774,1.2774,1.2774,1.2774,1.2774,1.2774,1.2774,1.2774,1.2774,1.2774,0.0,1.2774,1.2774,1.2857,1.2898,0.0,0.0,1.3023,1.3096,0.0,1.2774,0.0,1.2629,0.0,0.0,0.0,1.2774,1.2774,1.2774,1.2774,1.2774,1.2774,1.2774,1.2774,1.2774,1.2774,1.2774,1.2774,1.2774,1.2774,1.2775,1.2686,1.2588,1.2507,1.2402,1.2223,1.2174,1.2134,1.1955,1.1906,1.1882,1.1801,1.1776,1.1776,1.1776,1.1776,1.1776,1.1776,1.2371,0.0,0.0,0.0,0.0,0.0,0.0,0.0,0.0,0.0,0.0,0.0,0.0,0.0,0.0,0.0,0.0,0.0,0.0,0.0,0.0,0.0,0.0,0.0,0.0,0.0,1.4091,1.5115,1.6468,1.8156,1.9829,2.0749,2.0987,2.1714,2.1657,2.1136,2.1443,2.1737,2.2044,2.2632,2.2928,2.2928,2.2928,2.2366,2.1609,0.0,2.2057,0.0,0.0,1.887,0.0,1.8711,1.6299,1.4015,1.3358,1.303,1.2914,1.2889,1.2889,1.2889,1.2889,1.2889,1.2873,1.2774,1.2774,1.2774,1.2774,1.2774,1.279,1.2889,1.279,1.279,0.0,0.0,0.0,0.0,0.0,0.0,0.0,0.0,0.0,0.0,0.0,1.2774,1.2774,1.2774,1.2774,1.2774,1.2774,1.2774,1.2774,1.2774,1.2774,1.2774,1.2774,1.2774,1.2774,1.2774,1.2774,1.2808,1.2661,1.2621,1.258,1.241,1.2361,1.232,1.2134,1.206,1.1996,1.1857,1.1801,1.1776,1.1776,1.1776,1.1776,1.1776,1.2603,0.0,0.0,0.0,0.0,0.0,0.0,0.0,0.0,0.0,0.0,0.0,0.0,0.0,0.0,0.0,0.0,0.0,0.0,0.0,0.0,0.0,0.0,1.284,0.0,1.5007,0.0,1.6106,1.7876,2.0447,2.0852,2.1442,2.1991,2.1991,2.1657,2.1149,2.175,2.1991,2.2044,2.2632,2.2928,2.2928,2.2928,2.216,2.1113,0.0,0.0,0.0,0.0,0.0,0.0,0.0,1.725,1.6537,1.4912,1.3884,1.3294,1.3118,1.3068,1.3068,1.3068,1.3068,1.3003,1.2782,1.2774,1.2774,1.2774,1.2774,1.2913,1.3068,1.2913,1.2913,0.0,0.0,0.0,0.0,0.0,0.0,0.0,0.0,0.0,0.0,1.2774,1.2774,1.2774,1.2774,1.2774,1.2774,1.2774,1.2774,1.2774,1.2774,1.2774,1.2774,1.2774,1.2774,1.2774,1.2774,1.2774,1.2832,1.275,1.2808,1.2775,1.2588,1.254,1.2499,1.232,1.215,1.2028,1.2012,1.189,1.1776,1.1776,1.1776,1.1776,1.1776,1.1897,1.2311,0.0,0.0,0.0,0.0,0.0,0.0,0.0,0.0,0.0,0.0,0.0,0.0,0.0,0.0,0.0,0.0,0.0,0.0,1.2832,0.0,1.2898,1.2774,1.4193,0.0,1.5348,1.8161,1.9831,2.0447,2.1962,2.2403,2.1991,2.1991,2.1657,2.1149,2.175,2.1991,2.2044,2.2632,2.2928,2.2928,2.2928,2.2791,2.2654,0.0,0.0,0.0,0.0,0.0,0.0,0.0,1.5985,1.5089,1.5214,1.4778,1.4188,1.3374,1.3262,1.3662,1.4535,1.3798,1.3637,1.4428,1.352,1.2994,1.2994,1.2889,1.2873,1.2938,1.297,1.297,0.0,0.0,0.0,0.0,0.0,0.0,0.0,0.0,1.2774,1.2774,1.2774,1.2774,1.2774,1.2774,1.2774,1.2774,1.2774,1.2774,1.2774,1.2774,1.2774,1.2774,1.2774,1.2774,1.2774,1.2774,1.2774,1.2774,1.2774,1.2774,1.2824,1.2743,1.2726,1.2686,1.2507,1.2402,1.232,1.2223,1.206,1.1931,1.1931,1.1849,1.1776,1.1776,1.3024,1.3973,0.0,0.0,0.0,0.0,0.0,0.0,0.0,0.0,0.0,0.0,0.0,0.0,0.0,0.0,0.0,0.0,0.0,0.0,1.2832,0.0,1.4912,1.4071,1.5489,1.6771,1.8073,1.9307,2.06,2.1923,2.2601,2.2539,2.1977,2.1804,2.1496,2.1149,2.175,2.1991,2.2044,2.2632,2.2928,2.2928,2.2928,2.2928,2.2928,1.8746,0.0,1.6486,0.0,1.5768,1.5041,1.6967,1.5769,1.4805,1.5406,1.5421,1.4851,1.3571,1.3449,1.3863,1.4946,1.4061,1.3907,1.4864,1.3857,1.3149,1.3092,1.2978,0.0,1.2913,1.3035,1.3059,1.2994,1.3453,0.0,0.0,0.0,0.0,0.0,1.2774,1.2774,1.2774,1.2774,1.2774,1.2774,1.2774,1.2774,1.2774,1.2774,1.2774,1.2774,1.2774,1.2774,1.2774,1.2774,1.2774,1.2774,1.2774,1.2774,1.2774,1.2774,1.2774,1.2774,1.2774,1.2774,1.2808,1.2678,1.2605,1.2532,1.241,1.2239,1.2109,1.2109,1.2278,1.2396,1.2396,1.4132,1.5451,0.0,0.0,0.0,0.0,0.0,0.0,0.0,1.5574,1.5791,1.6507,0.0,0.0,0.0,0.0,0.0,0.0,0.0,0.0,0.0,0.0,0.0,0.0,0.0,1.8069,1.9899,2.0385,2.1411,2.2928,2.2779,2.2458,2.1977,2.1748,2.1494,2.1283,2.1777,2.2031,2.2164,2.2727,2.2928,2.2928,2.2928,2.2928,2.2928,1.9711,1.8387,1.7278,1.7435,1.7467,1.7478,1.7478,1.7478,1.7021,1.5879,1.57,1.5153,1.3776,1.3566,1.3566,1.3644,1.3644,1.3563,1.3453,1.3437,1.3287,0.0,0.0,1.3092,1.3092,1.3092,1.3181,1.3368,0.0,0.0,1.3293,0.0,0.0,1.2774,1.2774,1.2774,1.2774,1.2774,1.2774,1.2774,1.2774,1.2774,1.2774,1.2774,1.2774,1.2774,1.2774,1.2774,1.2774,1.2774,1.2774,1.2774,1.2774,1.2774,1.2774,1.2774,1.2774,1.2774,1.2774,1.2774,1.2774,1.2766,1.2702,1.2628,1.2628,1.2426,1.2304,1.2304,1.3146,1.3854,1.3854,1.4831,1.5983,1.7279,0.0,0.0,0.0,0.0,0.0,0.0,1.8052,1.9252,1.802,0.0,0.0,0.0,0.0,0.0,0.0,0.0,0.0,1.4912,1.4912,0.0,1.4912,1.655,1.8237,1.9899,2.159,2.2565,2.2914,2.2565,2.2258,2.1977,2.1748,2.1614,2.1641,2.1857,2.2151,2.2445,2.2739,2.2928,2.2928,2.2928,2.2928,2.2928,1.7361,1.651,1.5789,1.4846,1.4767,1.4856,1.4856,1.4963,1.4938,1.4506,1.4444,1.4311,1.3815,1.3823,1.424,0.0,1.4381,1.4215,0.0,1.4178,1.353,1.3474,1.3352,1.3222,1.3092,1.3214,1.3246,1.3181,0.0,0.0,0.0,1.3275,1.321,1.3011,1.3011,1.2946,1.2774,1.2774,1.2774,1.2774,1.2774,1.2774,1.2774,1.2774,1.2774,1.2774,1.2774,1.2774,1.2774,1.2774,1.2774,1.2774,1.2774,1.2774,1.2774,1.2774,1.2774,1.2774,1.2774,1.2774,1.2774,1.2774,1.2791,1.2751,1.2751,1.2613,1.2761,1.3573,1.3992,1.4504,1.5422,1.6586,1.7563,1.7986,0.0,0.0,0.0,0.0,0.0,0.0,0.0,1.9056,0.0,1.9915,0.0,0.0,0.0,0.0,0.0,0.0,0.0,0.0,1.6721,0.0,1.6333,1.799,1.9698,2.1317,2.2071,2.2579,2.2914,2.2552,2.2258,2.1977,2.1748,2.1614,2.1641,2.1871,2.2151,2.2445,2.2752,2.2928,2.2928,2.2928,2.2928,2.2928,1.773,1.647,1.5472,1.4588,1.4011,1.3742,1.3742,1.3831,1.3904,1.3904,1.3904,1.3904,1.3904,1.3904,0.0,1.5168,1.4395,1.4324,1.5239,1.4285,1.3709,1.3574,1.3539,1.3384,1.3206,0.0,0.0,1.3197,1.3311,1.3409,1.3474,1.3401,1.3311,1.3197,1.3197,1.3141,1.3035,1.2962,1.2929,1.2929,1.2865,1.2774,1.2774,1.2774,1.2774,1.2774,1.2774,1.2774,1.2774,1.2774,1.2774,1.2774,1.2774,1.2774,1.2774,1.2774,1.2774,1.2774,1.2774,1.2774,1.2774,1.2774,1.2774,1.2774,1.2774,1.3135,1.3655,1.4426,1.5342,1.6222,1.7083,1.8189,1.8985,1.8985,0.0,2.0409,0.0,0.0,0.0,0.0,0.0,0.0,0.0,2.1148,0.0,0.0,0.0,0.0,0.0,0.0,0.0,1.6711,1.832,0.0,1.7953,1.9054,2.0517,2.2151,2.2445,2.2753,2.3051,2.2619,2.2325,2.2161,2.1748,2.1681,2.1724,2.1911,2.2218,2.2605,2.2792,2.2928,2.2928,2.2928,2.2928,2.2928,2.0219,1.8067,0.0,0.0,1.4955,0.0,1.3904,1.3904,1.3904,1.3904,1.3904,1.3904,1.3904,1.3904,1.3904,1.3904,0.0,0.0,0.0,1.3904,1.3831,1.3598,1.359,0.0,1.3392,1.3392,1.3384,1.3368,1.3384,1.3474,1.355,1.3449,1.3368,1.3368,1.336,1.3352,1.3336,1.3157,1.3076,1.3059,1.2905,1.2774,1.2774,1.2774,1.2774,1.2774,1.2774,1.2774,1.2774,1.2774,1.2774,1.2774,1.2774,1.2774,1.2774,1.2774,1.2774,1.2774,1.2774,1.2774,1.2774,1.2774,1.2774,1.2832,1.2898,1.394,1.4968,1.5173,1.6988,1.8674,1.8736,1.9607,2.0294,2.0294,2.0537,2.078,2.078,0.0,0.0,0.0,0.0,0.0,0.0,2.1936,2.2041,0.0,0.0,0.0,0.0,0.0,1.9661,1.947,1.9598,1.9606,1.9499,1.9898,2.0914,2.2512,2.2794,2.3133,2.3393,2.2728,2.2445,2.249,2.1878,2.1724,2.1991,2.2004,2.2352,2.2928,2.2928,2.2928,2.2928,2.2928,2.2928,2.2928,0.0,0.0,1.8743,1.6494,1.5806,1.5168,1.4039,1.3904,1.3904,1.3904,1.3904,1.3904,1.3904,1.3904,1.3904,1.3904,1.3904,1.3904,1.3904,1.3904,1.388,1.3839,1.3839,1.3758,1.3587,1.3579,1.3514,1.3368,1.3514,1.353,1.3433,1.3392,1.3368,1.3368,1.3222,1.3157,1.3149,1.297,1.2897,1.2897,1.279,1.2774,1.2774,1.2774,1.2774,1.2774,1.2774,1.2774,1.2774,1.2774,1.2774,1.2774,1.2774,1.2774,1.2774,1.2774,1.2774,1.2774,1.2774,1.2774,1.2774,1.2774,1.2774,1.3095,1.4128,1.4651,1.5489,1.7613,1.8477,1.9206,2.0295,2.0935,2.1208,2.0909,2.1395,2.1707,2.1395,0.0,0.0,0.0,2.1902,2.1943,2.2006,2.2062,2.165,0.0,0.0,0.0,0.0,0.0,2.1132,1.9534,2.0322,2.0336,1.9499,2.1096,2.2498,2.365,2.372,2.3747,2.3802,2.2926,2.2506,2.249,2.1878,2.1724,2.2004,2.2218,2.2525,2.2928,2.2928,2.2928,2.2928,2.2928,2.2928,2.2928,2.1816,2.1044,2.0074,1.846,1.7619,1.6635,1.5168,1.4884,1.4679,1.3975,1.3904,1.3904,1.3904,1.3904,1.3904,1.3904,1.3904,1.3904,1.3904,1.3904,1.3904,1.3904,1.3904,1.3855,1.3766,1.3685,1.3526,1.3498,1.3526,1.3595,1.3498,1.3498,1.3449,1.3368,1.3271,1.3222,1.3206,1.3027,1.2954,1.2946,1.2873,1.2774,1.2774,1.2774,1.2774,1.2774,1.2774,1.2774,1.2774,1.2774,1.2774,1.2774,1.2774,1.2774,1.2774,1.2774,1.2774,1.2774,1.2774,1.3293,1.394,1.4586,1.4716,1.4912,1.5684,1.6333,1.7227,1.8716,1.9483,2.0259,2.1172,2.1488,2.1614,2.1551,2.1978,2.2292,2.2104,2.223,0.0,2.2543,2.2418,2.2418,2.2543,2.2543,2.223,2.1447,0.0,0.0,2.1762,2.2278,2.209,2.0943,2.1611,2.1686,2.1124,2.2496,2.3495,2.4034,2.4034,2.4017,2.3997,2.2987,2.2501,2.2493,2.1876,2.184,2.2268,2.2365,2.266,2.3133,2.2928,2.2928,2.2928,2.2928,2.2928,2.2928,2.2928,2.1885,2.0837,2.0629,1.9576,1.8239,1.6705,1.6221,1.5664,1.4395,1.4039,1.3904,1.3904,1.3904,1.3904,1.3904,1.3904,1.3904,1.3904,1.3904,1.3904,1.3904,1.3904,1.3904,1.3904,1.3758,1.3598,1.3574,1.3574,1.3558,1.3604,1.3604,1.3539,1.3409,1.3352,1.3344,1.336,1.3149,1.3051,1.3043,1.2897,1.2774,1.2774,1.2774,1.2774,1.2774,1.2774,1.2774,1.2774,1.2774,1.2774,1.2774,1.2774,1.2774,1.2774,1.2774,1.2774,1.2774,1.2774,1.3678,1.4912,1.6333,1.6656,1.6786,1.7238,1.8203,1.9036,1.9291,2.0272,2.1172,2.1551,2.1677,2.174,2.1992,2.2418,2.2668,2.2543,0.0,2.2793,2.3043,2.2856,2.2793,2.3043,2.3106,2.3106,2.3106,2.3106,0.0,0.0,2.2899,2.274,2.274,2.2949,2.3071,2.3164,2.3739,2.4102,2.417,2.4114,2.4093,2.4075,2.306,2.2623,2.2644,2.2042,2.2076,2.2597,2.2606,2.2971,2.3475,2.3201,2.2996,2.2996,2.3065,2.2996,2.2928,2.2928,2.2722,2.216,2.0837,2.0421,1.9785,1.825,1.6916,1.6009,1.5797,1.4679,1.3904,1.3904,1.3904,1.3904,1.3904,1.3904,1.3904,1.3904,1.3904,1.3904,1.3904,1.3904,1.3904,1.3904,1.3872,1.379,1.3574,1.3574,1.3563,1.3417,1.3417,1.3482,1.3587,1.3279,1.3222,1.3352,1.3019,1.2881,1.2807,1.2782,1.2774,1.2774,1.2774,1.2774,1.2774,1.2774,1.2774,1.2774,1.2774,1.2774,1.2774,1.2774,1.2774,1.2774,1.2774,1.2774,1.2774,1.2774,1.2964,1.3481,1.4847,1.5238,1.5814,1.8139,1.8844,1.9355,2.0526,2.0982,2.1172,2.1551,2.1866,2.1915,2.174,2.2418,2.2793,0.0,0.0,2.3043,2.3106,2.3043,2.3043,2.3106,2.3106,2.3106,2.3106,2.3106,2.3106,2.3106,2.3306,2.3452,2.3452,2.2936,2.3105,2.3885,2.4256,2.4578,2.4916,2.464,2.448,2.4488,2.3487,2.3007,2.3043,2.2846,2.2855,2.2939,2.3509,2.3774,2.3884,2.3816,2.3611,2.3338,2.3679,2.3406,2.2928,2.2928,2.2928,2.2654,2.1953,2.1816,2.1321,1.9785,1.8949,1.825,1.7409,1.6009,1.5097,1.5097,1.4395,1.3904,1.3904,1.3904,1.3904,1.3904,1.3904,1.3904,1.3904,1.3904,1.3904,1.3904,1.3904,1.3863,1.3782,1.3782,1.3693,1.3514,1.3514,1.3506,1.349,1.3319,1.3287,1.3352,1.3084,1.2978,1.297,1.2807,1.2774,1.2774,1.2774,1.2774,1.2774,1.2774,1.2774,1.2774,1.2774,1.2774,1.2774,1.2774,1.2774,1.2774,1.2774,1.2774,1.2964,1.3744,1.394,1.4455,1.6592,1.7098,1.7613,1.9686,2.0132,2.0335,2.0982,2.1235,2.1488,2.1803,2.2167,2.2355,2.2418,2.2793,0.0,0.0,2.2918,2.3106,2.3106,2.3106,2.3106,2.3106,2.3106,2.3106,2.3106,2.3106,2.3179,2.3354,2.3515,2.3764,2.4115,2.3855,2.402,2.4631,2.4776,2.4916,2.5119,2.4797,2.4481,2.4291,2.3486,2.3092,2.3107,2.3018,2.3257,2.3587,2.3905,2.4102,2.4224,2.4088,2.3884,2.3747,2.3952,2.3747,2.3475,2.2928,2.2928,2.2928,2.2928,2.2928,2.2516,2.1321,2.0837,2.0201,1.9089,1.7549,1.6503,1.615,1.5097,1.4252,1.3904,1.3904,1.3904,1.3904,1.3904,1.3904,1.3904,1.3904,1.3904,1.3904,1.3904,1.3904,1.3904,1.3904,1.3831,1.3701,1.3701,1.3628,1.349,1.3457,1.3433,1.3425,1.3238,1.3157,1.3141,1.297,1.2897,1.2889,1.2848,1.2774,1.2774,1.2774,1.2774,1.2774,1.2774,1.2774,1.2774,1.2774,1.2774,1.2774,1.2774,1.2774,1.303,1.4128,1.439,1.5108,1.7806,1.8524,1.8972,2.0716,2.1109,2.1109,2.1109,2.1362,2.1677,2.2041,2.2355,2.2668,2.2918,0.0,0.0,0.0,2.3043,2.3106,2.3106,2.3106,2.3106,2.3106,2.3106,2.3106,2.3106,2.3179,2.3325,2.3588,2.3735,2.4086,2.4723,2.4753,2.487,2.5119,2.5119,2.509,2.5002,2.4613,2.4291,2.3954,2.3377,2.3148,2.3235,2.3227,2.3605,2.4199,2.4246,2.4442,2.4631,2.4374,2.4238,2.417,2.4238,2.417,2.4034,2.2928,2.2928,2.2928,2.2928,2.2928,2.2859,2.2722,2.154,2.056,2.0421,1.9158,1.7689,1.6291,1.6009,1.5381,1.4047,1.3904,1.3904,1.3904,1.3904,1.3904,1.3904,1.3904,1.3904,1.3904,1.3904,1.3904,1.3904,1.3904,1.3896,1.388,1.388,1.3872,1.3855,1.3693,1.362,1.3612,1.3425,1.3352,1.3336,1.3149,1.3076,1.3059,1.2897,1.2774,1.2774,1.2774,1.2774,1.2774,1.2774,1.2774,1.2774,1.2774,1.2774,1.2774,1.2774,1.2774,1.2832,1.2898,1.2964,1.3613,1.6462,1.7173,1.7818,2.0526,2.1109,2.1109,2.1109,2.1362,2.1677,2.2041,2.2355,2.2606,2.2606,0.0,0.0,2.2668,2.2918,2.3106,2.3106,2.3106,2.3106,2.3106,2.3106,2.3106,2.3106,2.3384,2.3574,2.3588,2.4174,2.4657,2.5075,2.509,2.5105,2.5119,2.5119,2.4973,2.4598,2.4276,2.3954,2.3618,2.3233,2.3247,2.3554,2.3875,2.4196,2.4598,2.492,2.5052,2.5052,2.5052,2.4781,2.4495,2.4849,2.4578,2.402,2.2928,2.2928,2.2928,2.2928,2.2928,2.2928,2.2928,2.2379,2.2022,2.2022,2.0698,1.9158,1.7689,1.6644,1.5523,1.4039,1.3904,1.3904,1.3904,1.3904,1.3904,1.3904,1.3904,1.3904,1.3904,1.3904,1.3904,1.3904,1.3904,1.3904,1.3904,1.3904,1.3904,1.3896,1.3831,1.3807,1.379,1.3612,1.3539,1.3522,1.3344,1.3197,1.3084,1.3019,1.2929,1.2774,1.2774,1.2774,1.2774,1.2774,1.2774,1.2774,1.2774,1.2774,1.2774,1.2774,1.2774,1.2774,1.2774,1.2774,1.3293,1.5229,1.6333,1.7302,1.8332,1.9877,2.0856,2.0005,2.0893,2.1915,2.2104,2.2543,2.2918,2.2918,0.0,2.3043,2.2918,2.3043,2.3106,2.3106,2.3106,2.3106,2.3106,2.3106,2.3193,2.3398,2.353,2.3779,2.4174,2.4627,2.4987,2.5119,2.5119,2.5119,2.5119,2.5119,2.4958,2.4635,2.4232,2.391,2.3588,2.3471,2.3588,2.391,2.4247,2.4569,2.4943,2.5075,2.5119,2.5119,2.5119,2.4984,2.4916,2.5052,2.4916,2.4713,2.2928,2.2928,2.2928,2.2928,2.2928,2.2928,2.2928,2.2928,2.2928,2.2928,2.1953,2.0768,1.9228,1.818,1.6715,1.4742,1.4608,1.4395,1.3904,1.3904,1.3904,1.3904,1.3904,1.3904,1.3904,1.3904,1.3904,1.3904,1.3904,1.3904,1.3904,1.3904,1.3904,1.3904,1.3904,1.3904,1.3896,1.3774,1.3655,1.3709,1.353,1.3384,1.3262,1.3206,1.3076,1.2921,1.2921,1.2881,1.2774,1.2774,1.2774,1.2774,1.2774,1.2774,1.2774,1.2774,1.2774,1.2774,1.2774,1.2774,1.3161,1.452,1.5619,1.6462,1.6915,1.878,2.0195,1.9355,2.0703,2.2104,2.223,2.2731,2.3106,2.3106,2.3106,2.3106,2.3106,2.3106,2.3106,2.3106,2.3106,2.3106,2.3106,2.3106,2.3208,2.3427,2.3545,2.3837,2.4393,2.4627,2.4826,2.4826,2.4826,2.4826,2.4826,2.4914,2.4686,2.4262,2.4042,2.3764,2.3442,2.3545,2.3779,2.4101,2.4423,2.4826,2.5119,2.5119,2.5119,2.5119,2.5119,2.5119,2.5119,2.5119,2.5119,2.5119,2.2928,2.2928,2.2928,2.2928,2.2928,2.2928,2.2928,2.2928,2.2928,2.2928,2.2928,2.2297,2.0768,2.056,1.9367,1.6362,1.6079,1.5452,1.3967,1.3904,1.3904,1.3904,1.3904,1.3904,1.3904,1.3904,1.3904,1.3904,1.3904,1.3904,1.3904,1.3904,1.3904,1.3904,1.3904,1.3904,1.3904,1.3904,1.3904,1.3888,1.3717,1.3574,1.3558,1.3441,1.3254,1.3092,1.3092,1.2986,1.2774,1.2774,1.2774,1.2774,1.2774,1.2774,1.2774,1.2774,1.2774,1.2774,1.2774,1.2774,1.3161,1.452,1.4912,1.5303,1.6656,1.8011,1.91,1.9407,2.0879,2.2167,2.2543,2.2856,2.3106,2.3106,2.3106,2.3106,2.3106,2.3106,2.3106,2.3106,2.3106,2.3106,2.3106,2.3106,2.3106,2.3106,2.3413,2.3735,2.4071,2.4086,2.4086,2.4086,2.4086,2.4086,2.4086,2.4408,2.4247,2.3588,2.3588,2.3427,2.312,2.3457,2.3779,2.4101,2.4437,2.4826,2.5119,2.5119,2.5119,2.5119,2.5119,2.5119,2.5119,2.5119,2.5119,2.5119,2.2928,2.2928,2.2928,2.2928,2.2928,2.2928,2.2928,2.2928,2.2928,2.2928,2.2928,2.2297,2.0768,1.9646,1.825,1.6291,1.5168,1.4395,1.3904,1.3904,1.3904,1.3904,1.3904,1.3904,1.3904,1.3904,1.3904,1.3904,1.3904,1.3904,1.3904,1.3904,1.3904,1.3904,1.3904,1.3904,1.3904,1.3904,1.3904,1.3896,1.3847,1.375,1.3566,1.3587,1.3449,1.3287,1.3287,1.3173,1.3019,1.3019,1.2938,1.2774,1.2774,1.2774,1.2774,1.2774,1.2774,1.2774,1.2774,1.2774,1.2898,1.3293,1.4202,1.5043,1.5424,1.7356,1.91,1.9407,2.0879,2.2167,2.2543,2.2856,2.3106,2.3106,2.3106,2.3106,2.3106,2.3106,2.3106,2.3106,2.3106,2.3106,2.3106,2.3106,2.3208,2.3427,2.3749,2.3984,2.4071,2.4086,2.4086,2.4086,2.4086,2.3969,2.3735,2.4071,2.4013,2.3588,2.3588,2.3545,2.3457,2.3793,2.4115,2.4437,2.4841,2.5031,2.5119,2.5119,2.5119,2.5119,2.5119,2.5119,2.5119,2.5119,2.5119,2.5119,2.2928,2.2928,2.2928,2.2928,2.2928,2.2928,2.2928,2.2928,2.2928,2.2928,2.2928,2.2585,2.1609,2.0686,1.9298,1.7198,1.5097,1.3904,1.3904,1.3904,1.3904,1.3904,1.3904,1.3904,1.3904,1.3904,1.3904,1.3904,1.3904,1.3904,1.3904,1.3904,1.3904,1.3904,1.3904,1.3904,1.3904,1.3904,1.3904,1.3904,1.3904,1.3839,1.3742,1.3742,1.3636,1.3482,1.3482,1.336,1.3189,1.3116,1.2978,1.2774,1.2774,1.2774,1.2774,1.2774,1.2774,1.2774,1.2774,1.2774,1.2774,1.2774,1.3875,1.4912,1.5098,1.7098,1.9164,1.9789,2.1082,2.223,2.2731,2.2981,2.3106,2.3106,2.3106,2.3106,2.3106,2.3106,2.3106,2.3106,2.3106,2.3106,2.3106,2.3106,2.3193,2.3384,2.3588,2.3691,2.3691,2.3691,2.3691,2.3691,2.3691,2.3603,2.3398,2.3603,2.3603,2.3398,2.353,2.3588,2.3618,2.4071,2.4379,2.465,2.4987,2.5119,2.5119,2.5119,2.5119,2.5119,2.5119,2.5119,2.5119,2.5119,2.5119,2.5119,2.2928,2.2928,2.2928,2.2928,2.2928,2.2928,2.2928,2.2928,2.2928,2.2928,2.2928,2.2928,2.2928,2.2791,2.1596,1.8868,1.5867,1.4039,1.3904,1.3904,1.3904,1.3904,1.3904,1.3904,1.3904,1.3904,1.3904,1.3904,1.3904,1.3904,1.3904,1.3904,1.3904,1.3904,1.3904,1.3904,1.3904,1.3904,1.3904,1.3904,1.3904,1.3904,1.3904,1.3904,1.3807,1.3598,1.3598,1.3547,1.3368,1.3181,1.3003,1.2856,1.2856,1.2782,1.2774,1.2774,1.2774,1.2774,1.2774,1.2774,1.2832,1.2964,1.4071,1.5163,1.5479,1.7356,1.9355,2.055,2.1524,2.2355,2.2981,2.3106,2.3106,2.3106,2.3106,2.3106,2.3106,2.3106,2.3106,2.3106,2.3106,2.3106,2.3106,2.3106,2.3106,2.3106,2.3106,2.3106,2.3106,2.3106,2.3106,2.3106,2.3106,2.3106,2.3106,2.3106,2.312,2.3164,2.3457,2.3632,2.3706,2.4291,2.465,2.4627,2.4987,2.5119,2.5119,2.5119,2.5119,2.5119,2.5119,2.5119,2.5119,2.5119,2.5119,2.5119,2.2928,2.2928,2.2928,2.2928,2.2928,2.2928,2.2928,2.2928,2.2928,2.2928,2.2928,2.2928,2.2928,2.1816,2.0837,2.0201,1.7338,1.5097,1.3975,1.3904,1.3904,1.3904,1.3904,1.3904,1.3904,1.3904,1.3904,1.3904,1.3904,1.3904,1.3904,1.3904,1.3904,1.3904,1.3904,1.3904,1.3904,1.3904,1.3904,1.3904,1.3904,1.3904,1.3904,1.3904,1.388,1.3847,1.3847,1.3734,1.3555,1.3376,1.3189,1.3035,1.3035,1.2946,1.2774,1.2774,1.2774,1.2774,1.2774,1.2774,1.303,1.4202,1.5489,1.6646,1.6969,1.8244,1.9916,2.1776,2.2355,2.2606,2.3043,2.3106,2.3106,2.3106,2.3106,2.3106,2.3106,2.3106,2.3106,2.3106,2.3106,2.3106,2.3106,2.3106,2.3106,2.3106,2.3106,2.3106,2.3106,2.3106,2.3106,2.3106,2.3106,2.3106,2.3106,2.3106,2.3237,2.3486,2.3559,2.3866,2.4364,2.451,2.4701,2.5017,2.509,2.5119,2.5119,2.5119,2.5119,2.5119,2.5119,2.5119,2.5119,2.5119,2.5119,2.5119,2.2928,2.2928,2.2928,2.2928,2.2928,2.2928,2.2928,2.2928,2.2928,2.2928,2.2928,2.2928,2.2928,2.216,2.1113,1.9646,1.7409,1.5452,1.3967,1.3904,1.3904,1.3904,1.3904,1.3904,1.3904,1.3904,1.3904,1.3904,1.3904,1.3904,1.3904,1.3904,1.3904,1.3904,1.3904,1.3904,1.3904,1.3904,1.3904,1.3904,1.3904,1.3904,1.3904,1.3904,1.3904,1.3904,1.3904,1.379,1.3558,1.353,1.3376,1.3214,1.3124,1.3035,1.2946,1.2856,1.2774,1.2774,1.2774,1.3293,1.4006,1.4716,1.6462,1.8063,1.8384,1.9534,2.0893,2.2292,2.2606,2.2668,2.3043,2.3106,2.3106,2.3106,2.3106,2.3106,2.3106,2.3106,2.3106,2.3106,2.3106,2.3106,2.3106,2.3106,2.3106,2.3106,2.3106,2.3106,2.3106,2.3106,2.3106,2.3106,2.3106,2.3106,2.3106,2.3267,2.3501,2.3823,2.3823,2.4086,2.4635,2.4797,2.4958,2.5119,2.5119,2.5119,2.5119,2.5119,2.5119,2.5119,2.5119,2.5119,2.5119,2.5119,2.5119,2.5119,2.2928,2.2928,2.2928,2.2928,2.2928,2.2928,2.2928,2.2928,2.2928,2.2928,2.2928,2.2928,2.2928,2.2928,2.1803,1.9019,1.7409,1.5867,1.4395,1.4039,1.3904,1.3904,1.3904,1.3904,1.3904,1.3904,1.3904,1.3904,1.3904,1.3904,1.3904,1.3904,1.3904,1.3904,1.3904,1.3904,1.3904,1.3904,1.3904,1.3904,1.3904,1.3904,1.3904,1.3904,1.3904,1.3904,1.3904,1.3807,1.3623,1.3623,1.3563,1.3392,1.3238,1.3165,1.3175,1.3195,1.3203,1.3269,1.3424,1.439,1.5294,1.5554,1.7291,1.9164,1.9674,2.0766,2.1866,2.248,2.2668,2.2793,2.3043,2.3106,2.3106,2.3106,2.3106,2.3106,2.3106,2.3106,2.3106,2.3106,2.3106,2.3106,2.3106,2.3106,2.3106,2.3106,2.3106,2.3106,2.3106,2.3106,2.3106,2.3106,2.3106,2.3135,2.3193,2.3457,2.3793,2.4174,2.4174,2.4335,2.4657,2.5002,2.5119,2.5119,2.5119,2.5119,2.5119,2.5119,2.5119,2.5119,2.5119,2.5119,2.5119,2.5119,2.5119,2.5119,2.2928,2.2928,2.2928,2.2928,2.2928,2.2928,2.2928,2.2928,2.2928,2.2928,2.2928,2.2928,2.2928,2.2928,2.2229,2.0421,1.8949,1.7409,1.5867,1.4608,1.3904,1.3904,1.3904,1.3904,1.3904,1.3904,1.3904,1.3904,1.3904,1.3904,1.3904,1.3904,1.3904,1.3904,1.3904,1.3904,1.3904,1.3904,1.3904,1.3904,1.3904,1.3904,1.3904,1.3904,1.3904,1.3904,1.3904,1.3888,1.3863,1.3863,1.375,1.3604,1.351,1.3457,1.3568,1.4566,1.4902,1.513,1.6124,1.6592,1.698,1.8139,1.8716,1.9355,2.0589,2.1475,2.2167,2.2543,2.2856,2.3043,2.3106,2.3106,2.3106,2.3106,2.3106,2.3106,2.3106,2.3106,2.3106,2.3106,2.3106,2.3106,2.3106,2.3106,2.3106,2.3106,2.3106,2.3106,2.3106,2.3106,2.3106,2.3106,2.3106,2.3237,2.353,2.3574,2.3896,2.451,2.451,2.4738,2.5061,2.5105,2.5119,2.5119,2.5119,2.5119,2.5119,2.5119,2.5119,2.5119,2.5119,2.5119,2.5119,2.5119,2.5119,2.5119,2.2928,2.2928,2.2928,2.2928,2.2928,2.2928,2.2928,2.2928,2.2928,2.2928,2.2928,2.2928,2.2928,2.2928,2.2297,2.0698,1.9228,1.776,1.6221,1.475,1.3904,1.3904,1.3904,1.3904,1.3904,1.3904,1.3904,1.3904,1.3904,1.3904,1.3904,1.3904,1.3904,1.3904,1.3904,1.3904,1.3904,1.3904,1.3904,1.3904,1.3904,1.3904,1.3904,1.3904,1.3904,1.3904,1.3904,1.3904,1.3904,1.3904,1.3847,1.3774,1.3677,1.4136,1.4844,1.5316,1.6057,1.6809,1.7107,1.7826,1.8506,1.888,1.9623,2.0335,2.0982,2.1488,2.1853,2.1992,2.2606,2.3043,2.2856,2.2981,2.3106,2.3106,2.3106,2.3043,2.2856,2.2981,2.3106,2.3106,2.3106,2.3106,2.3106,2.3106,2.3106,2.3106,2.3106,2.3106,2.3106,2.3106,2.3106,2.3106,2.3106,2.3267,2.3588,2.3779,2.4101,2.4569,2.4826,2.4987,2.5119,2.5119,2.5119,2.5119,2.5119,2.5119,2.5119,2.5119,2.5119,2.5119,2.5119,2.5119,2.5119,2.5119,2.5119,2.5119]}]]